GFSCGP_700_spd_000.txt.gz
Wind_Speed
4 2 4 7 9 6 7 10 12 11 10 17 15 11 8 4 9 6 4 3 4 8 12 15 13 10 4 6 14 19 19 22 26 30 27 28 29 31 30 28 32 31 28 27
3 2 4 6 7 7 8 10 11 7 11 14 6 3 8 9 7 2 1 2 5 5 9 9 9 8 10 10 9 15 16 21 27 29 31 29 30 30 30 30 33 33 32 33
2 4 7 5 6 7 7 6 11 13 12 6 8 3 4 4 3 4 4 2 4 5 6 6 10 13 15 15 11 14 18 24 26 28 28 30 34 37 36 37 39 43 37 35
5 3 4 7 9 11 10 12 14 12 9 1 9 3 11 5 2 5 6 4 5 7 9 11 14 18 18 18 20 22 24 26 29 32 32 34 37 40 41 44 46 42 37 38
2 2 5 7 9 11 9 12 14 10 4 2 5 1 5 8 8 5 7 6 8 10 13 18 19 19 20 20 22 25 25 27 32 32 34 36 40 45 51 46 43 44 44 45
1 3 3 5 10 10 12 12 4 3 2 2 3 10 6 4 8 8 4 3 5 12 18 17 18 22 24 22 25 27 27 31 33 34 36 39 46 47 46 47 47 47 48 49
1 2 3 6 8 5 10 6 2 3 3 4 5 6 3 2 1 2 1 6 11 13 18 20 23 27 21 26 27 28 30 33 35 35 41 45 43 44 45 48 48 47 47 49
5 1 4 6 8 6 10 10 5 2 1 6 5 5 5 4 2 1 8 13 18 21 20 21 26 23 25 26 29 31 34 36 38 43 40 42 45 48 47 45 49 51 51 51
7 2 5 8 3 4 4 5 6 1 2 3 4 3 8 19 9 11 22 27 20 15 16 20 18 24 27 29 31 32 38 43 44 44 47 48 48 44 47 51 53 54 51 49
8 1 5 3 2 3 2 2 3 4 2 4 7 12 9 18 20 28 32 24 15 12 14 20 24 26 29 33 39 47 49 53 53 50 47 43 46 52 55 57 58 55 51 46
8 3 5 3 3 2 2 1 1 3 2 3 3 5 9 18 23 27 25 25 27 28 29 29 31 33 38 46 50 54 52 49 44 42 43 47 52 56 57 56 56 53 47 39
11 3 6 7 4 2 4 4 8 2 2 8 14 18 15 11 23 30 27 35 34 30 29 33 36 42 46 49 52 50 47 43 41 42 47 51 56 56 58 55 51 46 38 31
12 5 6 5 4 4 8 13 20 16 16 12 9 12 16 16 29 27 31 27 29 32 36 39 43 47 47 45 46 44 42 41 41 45 51 52 57 56 55 51 43 35 31 32
14 5 5 7 14 20 26 24 25 25 18 19 31 36 29 23 26 25 27 27 30 34 42 46 46 43 45 45 42 43 40 39 46 50 53 57 58 56 49 42 33 30 32 32
9 10 15 18 18 20 25 26 25 24 27 24 30 28 28 33 28 28 29 31 42 43 41 45 47 48 47 48 52 48 41 44 48 52 55 57 55 47 39 32 31 28 28 30
17 14 20 25 17 17 30 31 17 9 20 28 29 34 33 29 29 25 30 45 48 45 48 50 48 54 50 47 41 39 45 49 53 54 54 51 45 38 35 34 31 32 32 28
18 15 13 16 20 20 21 3 13 25 22 24 32 31 29 30 33 31 40 51 51 48 50 44 52 48 38 40 42 43 46 52 54 53 48 40 39 34 34 31 31 34 36 36
14 15 14 13 18 1 17 19 29 24 19 27 27 31 36 36 35 38 47 50 51 48 50 51 49 38 35 41 45 47 49 51 50 44 40 38 33 31 34 38 37 35 34 35
9 14 13 10 10 20 32 20 19 28 32 28 28 30 33 33 43 47 52 50 39 50 49 31 32 35 39 42 46 49 50 49 45 38 36 34 36 36 33 31 32 32 32 34
19 15 17 17 8 5 21 25 22 22 31 16 20 24 46 42 43 47 49 56 45 52 37 33 40 43 42 44 45 45 45 43 38 39 38 35 33 33 33 32 31 33 36 37
17 17 23 26 20 22 27 15 16 17 21 34 45 42 37 38 42 46 43 52 49 35 40 43 43 39 40 43 43 42 41 41 38 35 35 30 31 34 33 32 35 37 38 36
21 17 25 16 9 11 5 20 31 38 45 46 48 43 41 43 41 45 43 44 35 40 43 39 39 42 43 44 42 38 38 34 36 38 29 32 35 33 33 35 38 38 37 36
23 27 23 21 23 40 44 45 31 38 41 41 44 43 36 45 41 34 27 31 36 40 44 40 40 42 43 44 40 37 33 36 31 27 31 34 32 33 36 39 39 36 35 34
33 24 31 34 38 34 30 30 31 36 37 42 40 33 44 42 35 30 29 33 38 42 39 39 41 42 42 40 36 33 29 27 27 29 32 33 33 35 38 38 35 34 33 34
31 39 35 36 32 35 32 33 35 38 39 35 43 34 34 30 33 33 34 35 38 38 37 40 42 42 40 38 36 32 27 27 27 30 31 32 35 37 37 33 31 32 34 36
30 29 34 39 30 36 34 35 34 37 43 44 33 32 34 30 33 33 36 42 39 37 38 43 45 42 39 38 35 31 28 26 28 28 30 33 35 35 33 29 29 31 33 36

GFSCGP_700_spd_003.txt.gz
Wind_Speed
3 3 1 2 5 3 3 4 5 6 3 8 5 4 5 1 4 8 7 7 5 10 11 12 13 14 12 10 9 15 17 18 20 23 28 27 27 24 25 26 28 32 35 36
5 1 2 3 5 6 5 5 4 2 6 6 2 3 5 8 8 6 4 5 7 7 7 6 6 5 8 6 6 12 16 18 21 24 26 29 30 29 30 31 33 37 39 39
4 5 4 5 5 5 5 3 7 8 6 1 1 5 3 5 6 5 2 2 5 5 4 4 7 7 9 11 8 11 15 17 21 25 28 29 30 32 34 35 39 39 37 37
4 3 2 6 8 7 5 7 10 9 4 3 3 4 7 4 4 3 2 4 6 5 6 7 9 13 11 12 12 13 15 20 24 28 30 33 34 36 38 43 47 40 41 43
2 1 5 7 7 9 6 13 11 6 4 5 3 2 1 3 2 3 6 6 6 7 7 12 13 13 14 15 15 17 20 24 28 31 34 37 38 39 44 46 42 46 46 44
1 1 3 6 9 9 10 10 2 4 4 3 1 4 1 2 4 3 5 7 6 7 13 16 18 18 18 17 19 22 28 29 32 36 38 39 44 50 49 46 46 43 44 46
1 1 2 6 7 5 9 4 1 1 1 2 4 6 3 3 2 5 7 8 8 13 17 19 20 20 19 21 25 29 32 35 38 42 44 47 48 47 44 40 43 49 51 53
5 1 3 5 8 6 11 10 4 1 2 5 10 1 4 7 8 8 8 11 16 23 22 20 21 23 26 31 30 35 38 41 41 48 51 46 41 41 39 44 47 51 50 50
5 2 3 6 3 5 5 6 6 3 4 3 4 1 6 13 12 8 16 22 21 14 14 17 22 27 28 34 39 39 38 40 42 43 42 38 39 40 43 46 49 52 51 49
6 1 2 2 1 3 3 3 4 5 2 3 6 9 6 10 16 17 24 22 15 15 17 20 24 29 31 35 39 45 46 47 45 44 40 40 41 42 46 48 53 55 54 50
7 3 3 2 2 3 2 1 2 2 1 1 3 7 12 17 22 15 24 23 25 26 25 26 29 32 39 45 48 47 45 46 44 43 43 44 45 46 52 55 56 56 51 40
10 2 3 3 1 2 2 4 4 3 2 5 8 16 1 5 15 23 31 28 25 26 28 30 34 39 42 41 39 44 43 44 46 47 47 44 49 54 55 57 57 52 43 34
10 4 3 1 3 4 5 9 15 9 8 11 7 11 13 25 30 24 27 22 22 21 24 34 37 37 39 43 40 43 44 45 48 43 41 46 51 55 56 54 48 39 33 32
10 4 5 7 9 15 20 19 18 15 12 16 27 30 29 24 19 24 21 20 19 25 35 38 38 40 44 41 47 45 42 42 42 44 48 51 54 53 50 45 40 37 34 32
8 9 14 14 15 17 21 21 20 22 23 17 24 25 27 24 26 25 31 33 34 36 43 47 46 46 46 48 50 34 30 38 42 46 50 53 52 47 43 41 38 36 32 32
17 11 16 20 12 14 26 27 10 2 10 18 21 26 27 27 28 33 34 35 37 43 49 50 51 47 53 48 35 30 37 44 46 49 51 49 45 40 40 37 36 35 36 38
15 10 11 10 12 19 20 4 11 20 24 20 21 26 28 29 31 31 36 41 47 52 53 50 47 49 39 32 36 39 40 44 47 48 46 44 40 39 39 39 35 33 33 32
14 14 11 10 15 2 14 23 28 24 13 18 25 29 28 35 29 32 46 45 45 48 47 38 39 34 33 37 38 38 41 44 46 46 43 40 38 37 36 33 31 30 30 31
11 11 11 5 7 18 27 10 14 17 27 22 25 23 28 38 36 47 45 46 44 40 33 44 34 36 37 35 38 41 43 45 44 43 42 37 36 36 34 33 31 30 33 37
14 15 17 12 6 5 16 22 25 24 25 14 18 29 42 43 45 41 35 37 34 29 27 31 33 34 36 39 42 44 45 44 42 40 39 35 35 33 34 32 33 36 39 39
16 19 20 18 12 18 23 13 12 11 16 28 33 39 42 42 39 31 42 38 29 24 26 30 32 34 37 40 43 45 45 43 39 36 38 34 32 34 33 34 37 40 39 35
25 17 21 12 9 8 6 21 28 37 46 34 37 39 37 28 33 44 35 33 28 25 30 31 34 36 38 41 43 44 43 40 37 33 30 29 31 32 34 37 38 37 34 34
19 17 19 16 23 28 36 39 38 40 38 34 36 37 39 40 46 35 31 27 28 29 33 36 38 39 40 43 42 42 39 36 34 29 27 29 31 33 36 38 36 33 33 36
33 30 30 32 30 31 31 31 29 33 33 37 39 43 45 42 35 36 30 33 33 36 40 41 39 38 40 42 41 40 37 36 32 28 27 29 31 34 36 35 33 32 34 36
32 31 29 31 30 30 31 30 32 36 34 42 43 41 34 33 31 34 37 38 41 44 43 40 38 39 41 42 38 36 36 33 30 26 28 29 32 35 34 32 30 32 34 38
18 26 22 32 30 32 32 32 30 35 41 40 36 31 32 35 36 38 41 45 43 39 39 41 41 42 43 42 36 36 34 31 25 25 27 30 32 32 30 27 29 30 33 37

GFSCGP_700_spd_006.txt.gz
Wind_Speed
5 3 4 1 2 3 3 2 2 2 4 1 1 1 2 2 9 11 10 10 12 19 16 15 14 14 16 15 14 14 19 19 22 23 21 23 26 27 25 26 27 30 32 36
3 2 2 2 1 2 3 1 1 2 3 1 1 2 4 5 8 8 7 8 9 12 13 14 13 13 12 13 13 14 18 21 22 23 25 27 29 31 29 31 32 34 38 41
6 7 4 3 4 4 4 1 3 3 5 3 5 3 3 6 7 6 4 4 8 11 11 10 9 10 11 13 14 16 20 22 23 25 28 31 35 35 36 36 37 36 42 40
6 5 2 4 4 4 2 5 9 7 3 6 7 5 2 5 5 6 6 7 8 8 7 7 7 11 15 14 17 17 22 25 27 28 32 35 39 40 42 43 43 47 42 39
4 2 3 4 5 7 3 10 9 5 6 4 2 7 4 5 3 3 9 8 7 7 7 8 12 15 18 18 19 22 27 29 31 33 36 40 41 41 47 50 51 47 42 35
2 0 2 5 8 5 8 8 2 3 4 5 2 4 6 4 2 3 9 10 11 10 10 14 18 19 20 22 24 27 28 30 35 37 41 42 45 42 48 46 45 41 37 41
3 1 3 4 5 5 8 2 3 2 4 1 2 5 2 5 7 8 10 12 12 12 15 20 20 21 21 23 24 28 32 36 39 42 44 48 51 44 44 44 45 44 45 45
3 2 3 6 4 3 8 7 3 2 2 4 6 3 4 7 8 10 12 12 15 18 23 18 18 20 23 24 27 30 35 43 48 48 46 44 45 44 44 45 46 45 47 50
3 2 3 6 4 5 3 4 4 2 3 3 2 3 7 9 4 9 12 17 21 19 19 20 22 26 29 34 37 36 39 43 44 44 46 44 45 45 45 46 47 47 52 54
3 2 2 3 3 3 2 2 2 3 3 4 4 11 10 7 8 12 15 16 21 21 21 23 25 30 31 31 35 37 39 41 45 45 45 45 46 47 49 48 48 51 54 54
4 1 2 2 2 2 2 1 1 1 1 3 4 7 3 5 7 10 13 18 21 25 23 22 26 26 31 33 34 39 42 43 44 45 43 44 43 43 45 48 52 53 49 42
5 2 2 4 4 5 5 4 2 2 2 5 5 11 3 4 7 17 22 17 26 26 22 24 30 33 38 41 44 42 38 41 44 38 36 35 39 45 49 53 51 44 39 36
6 2 2 2 3 6 5 5 8 10 7 11 6 7 6 14 20 19 19 26 25 28 28 32 34 40 44 45 39 35 44 38 31 31 36 42 45 50 51 49 44 39 35 33
4 4 4 6 8 8 10 11 10 11 10 14 21 25 21 18 20 19 19 26 20 25 27 36 43 44 42 37 39 37 35 34 35 39 40 44 48 49 48 44 40 36 35 31
5 7 12 12 14 18 17 15 15 19 20 17 18 19 19 19 23 27 28 23 26 32 41 43 43 43 40 39 36 34 32 32 35 40 45 47 48 47 44 40 37 37 37 35
10 8 15 17 17 16 19 24 17 8 13 17 18 20 14 25 30 25 27 28 33 43 44 46 44 36 34 33 31 32 34 36 39 43 46 48 47 44 40 37 36 36 33 32
10 9 11 8 13 24 13 3 5 12 12 13 12 13 23 22 22 26 35 37 40 42 42 40 37 32 32 32 32 33 35 39 42 45 47 47 45 42 37 35 32 31 30 30
9 11 10 9 15 4 5 16 22 14 11 10 16 18 24 20 23 30 42 41 40 35 39 39 35 29 30 29 31 34 36 41 43 45 45 44 42 38 35 32 31 29 32 35
6 9 7 3 6 21 13 4 8 10 17 19 19 21 31 27 35 29 41 36 34 42 37 32 30 26 28 31 34 36 40 43 46 45 43 39 38 39 32 32 32 34 37 37
8 11 10 9 5 5 3 17 20 15 14 14 22 34 34 36 38 37 32 35 40 29 30 27 27 28 32 35 39 42 44 46 46 44 40 36 35 33 32 32 34 37 37 35
12 13 14 11 11 13 16 14 10 9 13 31 33 36 28 33 36 41 36 30 28 29 27 27 31 36 38 38 41 43 46 46 45 41 37 34 32 30 31 33 35 36 34 34
12 7 9 7 8 7 6 16 22 27 33 36 36 35 33 40 37 32 31 28 25 28 32 35 38 41 40 40 42 44 45 44 42 37 34 32 28 29 31 34 34 33 33 33
13 11 14 13 18 21 27 28 30 29 32 33 34 32 39 36 33 31 29 30 33 36 39 43 45 44 40 42 44 44 43 41 36 36 33 28 27 29 31 34 32 32 31 35
24 24 27 25 27 19 23 28 32 31 31 36 31 38 38 36 32 34 34 34 38 41 46 46 42 42 42 43 44 41 40 37 36 36 30 25 28 29 30 31 30 30 33 34
31 28 34 25 25 23 26 29 37 29 34 32 35 37 33 31 31 34 36 39 43 46 43 41 43 45 45 44 42 39 32 35 38 30 23 25 27 29 28 27 26 27 31 35
29 25 24 27 20 25 30 33 26 33 34 33 32 29 28 32 36 37 40 44 44 42 42 43 44 44 45 43 37 33 31 33 30 20 21 25 26 26 25 23 25 28 30 34

GFSCGP_700_spd_009.txt.gz
Wind_Speed
5 6 2 1 3 4 1 4 5 4 5 2 6 5 4 2 1 4 6 10 12 11 16 23 20 20 18 18 17 13 24 25 22 25 26 28 28 28 32 34 38 36 37 37
4 4 2 2 1 1 2 3 2 4 3 2 3 5 2 3 6 6 5 6 9 14 16 21 21 20 22 22 24 23 24 21 23 27 31 29 30 31 34 36 40 39 41 41
2 5 4 2 2 3 3 3 3 5 6 7 6 9 7 5 8 9 10 11 11 9 7 15 16 14 12 11 13 17 20 22 25 31 32 33 32 35 38 42 41 43 43 45
4 5 1 2 3 4 5 3 7 7 6 10 11 6 10 9 7 7 7 8 8 7 5 8 9 10 13 16 18 21 25 27 30 32 36 34 38 44 46 47 48 51 48 48
3 2 2 2 3 3 4 8 6 7 9 9 9 12 12 11 7 3 4 5 3 8 9 9 10 14 17 20 22 25 29 33 35 38 37 40 45 45 45 49 55 49 43 44
5 1 0 3 4 2 5 5 4 3 5 7 2 7 11 8 6 5 4 2 1 4 12 13 16 21 24 24 25 28 31 35 34 35 44 48 52 50 45 48 51 49 48 47
5 2 2 3 2 3 6 4 5 3 4 2 2 7 4 4 6 6 3 2 3 14 15 18 20 16 24 23 23 25 27 30 37 41 44 47 49 48 50 49 49 49 49 51
4 5 3 5 2 3 6 5 4 4 2 5 4 6 8 7 4 4 2 4 5 9 16 15 15 19 18 28 29 30 31 34 39 42 41 44 46 45 47 48 47 49 51 52
0 2 2 4 4 4 4 3 1 0 1 3 6 4 6 7 4 1 3 5 8 8 9 11 12 15 28 30 32 35 33 34 38 42 44 44 45 48 48 49 49 48 47 49
0 2 1 4 4 5 3 1 4 3 3 4 2 12 5 6 5 6 7 10 13 14 14 16 19 22 24 26 32 37 40 44 45 42 44 47 47 43 43 42 44 48 52 52
3 2 1 5 1 3 4 2 3 4 3 4 5 7 2 5 5 8 11 15 17 13 16 19 21 27 26 30 27 33 36 43 41 41 47 43 40 40 43 47 50 51 51 49
4 1 1 1 6 5 2 3 3 3 3 5 5 12 3 2 5 11 13 18 16 17 15 19 21 26 31 33 34 40 43 37 36 36 36 36 40 43 47 49 50 51 47 41
1 2 4 3 1 2 3 5 6 5 6 12 10 9 5 10 15 14 16 17 15 15 21 25 24 26 35 37 46 40 36 34 33 33 34 38 41 43 47 49 50 49 46 41
0 1 2 7 10 11 12 13 12 13 14 15 19 21 17 15 17 15 16 14 20 25 26 27 37 42 44 41 32 35 32 31 33 35 38 41 44 47 49 49 46 43 41 39
1 1 6 10 13 14 16 17 16 18 20 21 22 20 21 19 15 15 15 18 23 24 30 40 41 41 41 39 34 31 28 31 31 37 40 43 46 48 45 44 44 41 39 37
5 4 11 17 10 12 17 20 20 18 13 16 18 19 15 11 15 18 23 25 23 39 38 37 38 42 36 25 28 28 30 28 32 38 35 39 41 43 42 43 41 38 34 30
5 5 10 7 18 24 9 3 2 7 11 11 13 14 15 15 17 25 29 25 36 38 40 39 41 33 25 26 27 28 28 33 34 35 34 33 42 42 40 38 31 28 29 28
4 6 6 10 12 3 2 11 16 14 12 10 11 11 9 16 24 30 34 31 38 40 40 39 33 32 31 29 29 34 28 35 33 34 38 34 43 40 34 28 26 27 25 27
5 5 5 2 8 19 8 1 3 10 14 13 9 11 20 30 34 22 28 39 40 38 35 34 30 30 34 30 32 34 39 37 33 34 31 39 39 28 29 26 27 25 26 28
6 6 5 7 4 4 2 9 13 13 14 13 17 22 40 36 29 25 37 38 37 32 26 26 28 30 30 31 33 33 35 38 44 25 44 42 34 32 27 28 25 25 27 30
8 11 11 9 9 12 12 20 11 6 11 21 28 35 31 28 26 34 37 33 23 22 25 27 28 30 33 41 38 34 35 36 41 32 30 40 32 30 32 25 25 27 28 33
7 6 7 6 7 8 6 9 17 19 24 30 34 28 35 30 35 33 29 25 23 25 28 29 31 34 43 36 35 36 34 35 41 23 40 40 29 31 26 23 25 29 28 31
8 12 8 9 14 19 26 29 26 24 28 29 28 24 21 32 26 24 21 23 26 28 30 32 32 37 33 34 34 35 39 36 35 38 39 34 31 27 21 24 24 28 28 32
18 14 24 21 21 22 23 21 24 31 32 34 26 31 27 23 23 22 25 28 30 31 34 31 32 33 35 37 37 35 39 34 32 31 34 31 25 22 25 21 23 25 29 30
24 16 23 29 27 25 21 25 27 31 27 32 34 29 30 28 26 26 29 31 32 34 30 34 33 35 38 38 37 36 39 35 29 29 28 24 20 23 24 25 25 25 27 29
30 24 24 28 26 28 27 33 26 24 27 31 27 29 29 29 28 29 32 34 32 34 35 32 33 36 36 40 42 38 36 30 27 24 18 18 19 20 22 22 24 25 24 28

GFSCGP_700_spd_012.txt.gz
Wind_Speed
4 6 2 4 4 6 7 5 3 9 2 9 8 9 6 4 3 1 5 9 10 8 17 23 23 24 25 23 22 19 21 20 23 27 28 28 29 33 34 32 36 38 41 42
4 2 3 3 6 4 4 4 4 4 9 4 7 9 5 2 3 5 5 9 13 16 19 22 29 30 25 21 19 21 23 24 25 30 31 29 35 35 35 35 40 45 45 43
4 4 2 4 3 3 3 3 2 4 4 9 7 10 10 7 7 12 14 11 10 15 22 25 25 20 15 13 14 16 19 21 22 29 34 37 35 37 37 38 43 47 52 56
3 1 4 1 1 3 3 3 5 7 8 11 16 4 13 13 11 10 12 12 9 8 6 3 11 8 10 13 17 20 25 27 26 29 32 34 37 39 47 49 50 44 42 45
4 3 3 1 3 2 4 10 7 7 10 11 11 10 20 16 12 10 10 9 8 8 6 10 10 15 17 18 21 25 28 32 33 34 35 39 43 43 45 46 47 46 50 47
4 2 1 2 3 4 5 7 7 6 8 6 13 3 6 8 11 9 8 7 5 1 7 11 15 19 23 25 27 24 24 28 34 36 37 40 43 42 43 47 50 49 51 52
6 4 4 5 4 5 7 6 7 3 5 2 2 2 11 11 10 10 6 3 3 5 6 3 4 8 18 25 26 26 26 24 28 34 42 42 43 48 50 48 49 50 49 48
9 6 2 5 4 4 5 5 4 4 5 4 4 3 13 12 11 11 6 1 4 6 11 11 16 16 17 21 30 29 31 31 33 36 43 49 53 50 45 47 48 47 44 45
1 5 3 6 4 6 5 5 3 2 3 3 7 11 12 8 7 6 2 2 3 7 10 10 8 15 22 25 29 35 37 35 34 39 44 48 50 46 45 45 43 43 45 45
2 5 2 5 7 7 7 3 4 4 2 3 10 8 8 6 4 3 3 3 9 9 8 15 16 21 26 33 35 34 40 37 43 44 46 44 43 43 43 42 44 43 45 48
8 3 1 5 4 5 3 3 3 4 2 2 3 2 2 2 5 5 8 10 11 11 17 19 17 18 27 34 40 36 46 42 43 48 44 39 40 40 41 41 44 46 49 48
4 4 3 3 5 3 2 2 3 2 3 4 4 12 7 2 3 6 8 10 13 16 22 22 25 32 36 41 41 50 42 42 46 42 41 37 37 39 39 41 45 48 50 48
6 1 1 7 1 2 4 3 5 6 8 10 8 8 9 14 15 10 7 9 11 19 23 30 31 36 39 41 43 42 42 40 41 41 41 40 37 41 41 44 47 47 46 46
4 2 2 1 6 10 11 12 13 14 13 14 16 19 18 13 15 5 9 9 15 22 28 29 40 39 40 41 43 40 35 36 36 44 39 41 48 49 46 46 44 44 44 42
3 3 3 5 9 9 13 14 14 16 18 20 21 20 17 15 9 11 12 20 23 35 36 38 40 43 43 40 32 32 33 35 36 38 29 42 43 42 52 43 47 44 43 40
1 2 8 11 2 11 20 17 15 15 16 16 14 17 12 10 14 19 27 30 33 40 37 39 41 40 35 33 28 28 31 35 38 48 39 45 50 33 42 35 47 41 38 39
3 3 8 3 15 16 3 4 5 6 7 10 13 14 15 14 18 20 31 36 37 32 39 40 38 29 25 27 31 28 29 34 42 41 47 52 59 48 44 43 44 40 37 34
4 4 5 7 10 3 2 16 14 11 9 9 10 12 9 16 22 30 36 31 28 37 39 36 26 27 26 36 29 32 37 41 36 37 43 53 44 46 34 42 39 43 37 38
5 4 4 2 4 15 5 7 6 11 16 12 12 17 23 25 28 31 29 31 35 36 33 24 26 27 35 29 33 39 45 34 32 33 43 49 44 43 34 42 38 40 38 31
6 7 6 6 2 4 4 8 18 19 15 15 19 20 25 34 32 23 31 32 37 37 30 25 27 30 30 35 39 44 36 37 36 39 41 45 42 33 37 40 33 36 33 29
7 8 11 8 7 10 10 14 13 6 9 18 23 31 32 34 33 32 34 34 31 22 23 26 29 31 36 39 41 36 41 40 39 44 46 41 42 32 41 37 37 34 32 36
6 5 6 5 6 8 9 11 13 15 21 31 32 28 34 34 26 33 31 28 21 24 27 28 32 34 38 39 36 37 41 47 43 37 36 32 32 33 34 34 31 27 35 33
10 14 9 11 10 10 19 23 30 32 32 33 30 37 29 31 30 30 28 21 24 27 29 35 32 39 35 32 34 37 48 47 42 39 34 29 28 28 28 25 26 27 30 28
16 16 20 20 26 20 22 24 29 35 30 33 31 27 29 27 27 24 22 25 30 35 42 37 42 32 33 34 37 44 43 41 39 37 32 29 26 23 20 22 25 27 26 25
22 20 25 23 25 23 26 32 31 28 32 32 27 23 24 25 22 24 31 35 39 41 39 41 32 35 40 37 41 43 41 38 37 32 27 22 19 19 19 20 23 25 25 25
28 32 29 30 24 26 28 32 34 32 35 24 21 22 23 23 28 33 38 39 37 39 39 37 37 40 41 43 43 41 38 36 33 28 22 19 19 17 18 20 23 24 24 25

GFSCGP_700_spd_015.txt.gz
Wind_Speed
4 4 8 9 7 3 3 8 20 15 11 5 5 2 11 7 6 6 9 8 20 24 23 27 25 21 21 22 21 24 22 24 25 28 27 27 31 32 35 43 39 36 39 38
6 8 6 2 3 2 3 4 12 8 6 2 7 5 8 9 7 9 11 12 14 23 23 26 26 22 24 25 26 27 23 22 26 26 27 29 31 32 33 31 35 38 43 50
6 5 4 9 2 7 6 3 2 1 2 2 5 9 12 12 13 14 13 13 14 18 21 23 26 26 22 19 18 17 15 17 22 26 28 31 33 34 36 34 34 43 49 48
2 1 7 5 1 1 1 3 6 7 4 4 6 5 14 14 17 15 16 15 18 21 25 25 20 16 11 12 15 19 20 22 25 27 29 32 33 33 34 39 44 45 43 49
6 6 6 4 3 5 2 7 7 7 7 8 4 7 19 18 16 14 13 10 13 16 16 14 14 13 14 16 20 23 26 28 28 29 31 33 36 38 40 42 43 49 49 47
4 0 1 2 8 10 7 8 6 6 6 3 9 6 18 18 16 15 13 11 11 10 11 13 17 17 17 20 24 24 22 25 27 32 38 41 41 42 44 46 48 48 46 46
10 4 8 5 4 5 7 9 1 1 1 3 5 9 3 17 16 15 13 12 10 8 10 14 17 18 22 23 28 34 34 33 33 35 41 41 43 47 49 51 50 47 45 45
9 3 1 5 6 3 10 7 5 1 1 5 8 8 12 16 19 14 10 4 4 8 11 8 8 12 14 15 21 35 38 40 42 41 47 44 47 53 54 56 53 48 46 45
10 5 5 5 10 5 6 8 7 3 4 3 6 16 7 5 6 6 3 3 5 4 1 7 12 18 22 26 30 34 39 42 44 44 50 45 47 52 59 54 51 48 47 44
9 7 4 10 8 10 9 6 4 3 1 2 2 7 2 10 12 10 6 5 7 12 14 12 14 19 26 32 36 39 42 42 44 49 46 45 47 54 53 50 48 46 46 46
12 7 8 5 4 4 4 1 3 1 0 4 1 3 6 5 6 7 8 8 12 14 17 21 25 27 29 29 36 37 38 41 44 46 43 42 44 46 48 39 40 43 43 49
8 9 8 5 4 3 1 1 1 1 2 3 1 9 9 9 10 6 9 10 13 17 21 25 26 28 32 37 37 41 41 42 42 40 41 44 38 49 39 42 48 43 41 43
12 7 8 3 1 2 3 3 7 7 9 8 2 6 7 14 17 22 20 16 19 23 27 28 29 40 39 40 42 42 42 40 39 40 40 43 41 47 47 41 50 45 45 37
10 9 5 6 4 6 8 8 8 11 8 14 17 18 15 17 14 9 13 17 22 26 29 30 38 41 39 44 43 39 36 35 36 38 38 41 44 49 51 47 50 59 34 36
8 9 7 4 5 5 8 12 12 12 14 15 17 12 7 14 15 12 15 20 22 23 33 40 40 38 42 41 39 38 37 35 37 39 41 46 48 47 46 50 53 41 32 34
8 6 4 2 5 7 13 2 4 2 5 10 11 9 11 13 18 21 22 23 26 33 42 39 38 41 42 39 38 34 39 40 39 41 44 47 46 43 48 51 45 26 33 35
6 3 2 2 5 6 4 4 5 7 9 10 11 14 19 23 24 25 25 26 34 42 40 38 40 40 35 32 33 41 40 41 45 49 49 42 43 48 50 54 33 31 34 35
6 5 3 4 3 1 6 11 15 13 11 12 11 13 21 24 27 26 29 33 39 37 34 37 34 26 28 33 40 43 45 48 50 47 43 41 42 42 45 41 22 31 34 33
11 8 4 3 3 9 3 7 11 11 13 16 23 25 24 21 22 31 38 38 36 30 34 28 25 28 35 41 44 45 47 47 44 45 44 44 41 41 39 34 26 31 33 33
11 9 7 7 4 6 6 9 14 14 17 17 18 20 21 28 31 33 34 29 31 34 33 32 34 38 40 42 44 45 43 44 46 46 48 45 40 38 34 31 30 24 28 36
15 12 14 13 8 7 11 15 12 10 15 20 23 24 31 32 33 32 30 30 31 33 32 35 37 39 41 40 40 40 41 44 46 47 44 40 37 33 29 28 26 29 32 30
13 9 11 9 7 10 7 14 16 21 26 25 28 33 32 30 34 27 28 30 31 32 33 37 40 40 39 40 40 40 43 44 43 41 41 38 34 29 27 24 24 25 25 26
16 19 13 14 11 20 23 21 27 28 28 28 32 30 31 35 30 26 26 29 30 31 36 38 40 41 40 40 39 40 41 42 39 38 37 34 30 25 21 19 20 21 23 24
14 18 22 20 23 21 18 26 29 32 32 30 28 33 33 27 21 23 27 29 31 34 37 39 40 40 39 38 37 39 41 41 35 34 33 30 26 20 18 18 20 21 22 22
23 23 27 31 27 23 28 30 31 34 32 31 34 35 25 20 23 26 28 31 34 34 36 38 39 38 39 38 37 39 40 37 33 31 29 25 22 20 17 18 18 20 21 22
26 28 29 35 33 32 31 31 31 32 34 34 33 28 22 22 25 27 30 32 33 36 38 39 37 37 39 38 38 40 39 35 32 29 25 22 21 19 17 16 18 20 21 21

GFSCGP_700_spd_018.txt.gz
Wind_Speed
10 4 3 4 8 8 3 4 14 19 16 11 4 12 15 16 16 15 16 18 19 22 23 25 23 21 17 20 21 21 23 25 18 19 18 18 21 26 29 33 34 33 33 37
4 5 7 8 7 7 5 14 17 13 13 8 5 16 14 15 16 13 15 13 13 21 23 28 24 21 19 21 22 24 18 14 15 16 18 21 25 29 30 33 35 39 40 40
8 9 9 6 5 9 10 16 15 10 6 8 11 16 15 15 18 16 14 13 16 18 20 25 21 21 23 18 14 12 11 12 14 17 20 22 24 26 30 35 36 37 39 43
7 8 9 5 5 4 5 5 2 3 3 7 9 10 22 20 18 16 16 15 15 15 15 16 15 14 11 10 11 13 16 19 22 24 25 25 27 30 32 33 35 37 42 47
7 8 7 4 2 3 2 2 1 2 3 6 4 8 16 19 16 16 16 17 16 15 16 15 12 14 16 19 21 22 23 22 22 22 23 28 33 36 36 37 42 46 48 50
7 3 4 3 9 7 2 2 3 1 0 1 6 8 25 22 22 17 13 13 14 10 9 11 11 11 15 19 19 25 26 24 29 34 37 39 41 44 47 47 45 50 46 57
8 6 7 9 7 7 2 1 2 2 2 4 3 3 6 18 19 15 15 15 10 10 13 13 11 16 22 24 27 32 33 34 36 41 44 44 45 47 50 44 48 44 54 59
5 4 2 5 6 5 8 6 4 4 2 3 3 4 4 16 15 12 8 5 5 9 8 8 9 13 21 25 27 28 30 32 37 44 44 46 48 49 45 48 52 53 55 48
7 5 7 11 8 5 3 9 6 4 2 1 4 13 11 12 14 11 10 12 14 9 11 12 13 15 18 20 22 26 32 36 42 42 44 46 48 49 49 46 46 45 49 39
9 9 10 8 9 9 8 5 2 3 2 1 1 7 6 15 15 13 5 7 7 9 15 16 16 19 23 25 29 35 36 41 43 44 46 46 45 44 44 42 41 44 44 47
13 8 9 6 3 4 4 2 3 2 1 4 2 2 1 14 13 17 15 15 13 14 16 18 21 23 27 30 33 41 41 42 43 44 41 40 41 42 43 41 46 48 52 50
10 11 9 7 6 4 1 2 2 1 2 2 1 3 5 10 17 15 12 10 16 19 24 26 26 27 34 37 41 41 42 44 43 41 39 40 42 43 44 47 51 53 45 48
14 10 9 4 4 5 4 4 4 5 7 9 4 4 12 9 14 20 21 24 29 30 30 27 29 31 37 39 40 42 43 43 39 38 38 39 42 44 48 51 55 45 45 46
13 14 8 9 5 6 7 9 10 8 8 13 20 15 15 22 22 21 23 22 23 24 25 28 31 37 44 45 44 44 43 42 40 38 38 41 42 47 52 54 50 44 49 41
12 11 9 8 9 10 10 9 10 14 14 12 16 16 15 23 20 20 22 22 24 25 26 29 37 42 43 42 44 42 42 41 42 43 43 45 49 53 40 40 45 48 47 40
13 10 11 11 10 9 10 8 5 6 7 10 9 13 16 20 20 20 20 24 25 27 32 37 40 42 41 44 42 42 40 41 44 44 47 50 45 41 38 41 42 40 31 36
12 10 10 6 10 10 7 13 6 7 12 14 16 21 21 21 19 19 21 24 27 30 36 40 39 40 42 39 40 39 40 42 44 47 48 41 40 40 41 40 38 34 28 26
10 10 8 5 7 1 8 9 8 9 14 18 19 20 20 20 22 25 29 29 32 34 37 36 36 37 37 37 37 39 41 44 46 43 41 39 39 39 40 40 34 30 21 24
14 12 7 5 8 10 11 16 11 8 12 18 19 22 23 25 27 26 29 35 37 36 34 33 35 35 35 36 38 40 43 43 40 40 40 40 41 39 37 37 31 25 23 24
17 16 14 9 4 6 7 12 12 11 19 5 13 16 18 24 27 29 37 36 32 30 32 32 32 34 36 37 40 42 40 39 39 40 41 42 40 38 37 33 30 28 26 24
16 18 19 18 11 10 16 15 13 10 13 18 17 15 20 23 29 33 33 33 32 31 31 32 32 34 36 39 40 41 38 37 38 40 41 39 37 37 33 30 27 23 20 22
14 12 16 14 11 12 14 14 17 19 25 25 21 22 26 29 30 32 33 32 29 28 29 32 33 35 38 39 39 38 38 39 39 38 38 36 35 33 28 25 20 18 19 21
18 23 17 17 12 15 23 26 25 27 26 28 27 27 29 32 29 32 33 27 25 27 30 32 34 36 38 38 37 38 40 40 38 37 36 35 32 27 24 20 19 18 19 22
22 22 23 25 28 27 26 29 28 27 28 28 29 31 35 26 35 30 25 23 25 28 30 32 34 36 36 36 37 38 39 38 36 35 33 32 28 23 21 20 18 18 19 21
20 22 23 30 31 31 30 27 25 30 32 30 30 32 32 37 32 24 21 24 27 29 31 32 34 36 35 36 37 38 35 35 36 33 31 29 26 22 21 19 18 17 18 20
26 27 30 35 30 33 36 36 30 28 28 28 33 36 32 31 23 20 22 27 28 30 32 34 35 35 34 35 37 38 35 37 35 30 29 27 24 22 21 20 18 18 18 20

GFSCGP_700_spd_021.txt.gz
Wind_Speed
12 3 5 4 5 3 4 8 13 9 10 12 8 9 11 19 18 18 18 20 22 23 22 21 19 18 19 18 18 20 21 23 13 12 13 17 20 22 26 29 30 33 32 36
10 6 4 2 3 5 4 1 13 13 11 9 8 15 17 22 20 18 20 21 21 23 24 22 23 19 19 14 17 22 23 18 13 14 16 17 19 25 26 27 32 34 37 38
4 6 4 4 5 3 12 14 18 15 7 4 10 9 9 12 16 17 17 16 15 15 16 17 14 14 15 16 17 16 12 12 13 14 15 17 20 23 25 27 29 34 37 40
7 7 9 10 5 4 12 13 9 9 8 9 14 6 13 15 16 15 14 13 12 12 10 7 8 12 13 14 12 11 12 14 12 10 13 16 23 28 31 34 37 41 43 44
8 7 8 7 6 5 7 7 6 7 10 9 11 6 18 20 19 18 16 12 9 5 8 7 6 8 10 12 15 15 16 17 18 21 25 31 37 39 40 42 46 46 46 50
11 9 7 7 6 7 8 7 7 4 4 2 3 8 20 28 26 22 16 12 6 8 6 8 10 8 11 13 13 16 24 28 31 33 35 38 41 42 45 48 50 47 51 53
7 5 6 12 7 4 7 10 3 0 0 4 1 4 4 26 20 17 15 10 9 10 11 12 15 16 19 19 20 22 27 30 34 37 38 41 42 45 46 48 50 50 49 48
5 4 6 12 9 4 6 5 4 5 3 2 1 0 3 23 14 15 12 13 10 6 11 21 20 19 23 20 21 24 28 29 36 39 42 43 45 47 49 48 48 47 47 44
6 4 6 8 9 7 2 4 4 5 3 2 3 4 7 14 20 20 18 16 11 16 27 22 20 24 19 19 20 27 32 38 43 48 43 45 47 47 46 45 44 44 44 46
8 8 12 9 7 5 4 4 1 2 2 1 3 6 8 21 24 22 21 22 27 19 18 21 24 20 18 23 28 28 35 40 42 41 43 45 45 44 43 43 44 45 48 50
12 8 12 8 4 6 4 1 1 3 2 5 1 6 12 17 22 21 23 20 16 17 19 22 24 25 30 28 28 33 41 43 41 42 42 43 42 40 40 42 45 49 52 54
12 9 12 8 7 5 3 3 3 0 3 4 1 6 9 10 17 20 19 18 16 17 20 24 26 24 25 29 32 40 45 39 42 41 42 41 40 42 44 47 49 53 59 58
13 10 11 5 6 8 6 7 5 4 5 7 3 5 9 14 18 20 19 21 24 27 29 29 30 29 30 33 38 43 41 41 41 42 43 43 44 45 46 50 54 53 49 47
16 12 11 11 4 9 9 11 10 11 9 13 18 15 12 16 20 23 24 26 24 25 26 28 28 30 33 38 43 41 41 43 44 43 43 43 44 47 49 50 49 45 42 41
14 10 16 10 9 9 10 12 14 16 16 14 13 17 17 21 26 26 25 24 24 27 27 28 30 35 38 37 39 40 42 43 44 43 42 44 46 46 46 45 43 40 37 36
15 9 13 12 12 13 15 15 17 18 18 21 23 24 19 21 25 26 26 25 27 28 28 33 37 37 37 37 37 39 41 43 43 42 44 45 44 44 44 44 41 38 36 30
14 13 10 7 12 13 14 19 17 14 15 14 19 18 19 21 22 24 25 27 27 28 32 35 38 39 35 35 38 40 41 42 43 44 45 45 45 44 44 42 39 37 33 26
11 12 10 6 6 1 15 14 17 18 17 17 18 20 19 19 18 24 26 26 28 30 33 39 40 35 34 36 38 39 40 41 43 45 45 46 45 44 43 39 36 35 30 25
12 13 11 6 11 14 13 15 18 19 18 16 18 17 18 20 21 25 25 28 31 35 39 38 36 33 34 36 38 39 41 43 43 43 44 43 44 43 39 37 35 33 28 24
18 18 17 11 5 6 10 11 14 19 24 17 9 16 18 19 23 21 25 29 34 34 36 37 32 31 34 36 38 40 42 42 42 42 41 42 42 40 37 35 33 29 25 23
14 18 21 22 15 13 18 18 17 16 16 11 20 20 21 21 21 25 31 33 32 32 32 30 29 32 35 37 39 41 41 40 40 40 40 39 39 37 36 34 30 25 21 21
17 11 14 16 13 15 20 21 20 16 17 24 24 23 20 19 25 28 31 32 31 28 26 27 31 34 35 37 39 40 39 38 39 38 36 37 38 35 34 30 25 23 22 21
21 22 17 17 14 18 18 16 20 27 27 29 27 25 25 24 29 32 29 31 23 22 25 30 32 33 35 37 38 38 37 37 38 36 37 38 37 33 32 27 24 24 22 21
21 20 25 27 28 27 28 27 32 34 32 28 28 29 29 29 33 23 39 23 21 23 28 31 32 34 35 37 37 37 35 36 36 36 37 36 34 31 29 26 23 23 21 20
21 22 27 30 28 29 30 32 32 32 31 29 33 30 29 30 35 33 21 18 22 26 30 32 33 35 36 37 36 36 34 35 37 38 35 32 32 30 26 24 23 22 21 20
27 28 29 33 27 30 30 29 30 32 33 30 30 30 31 34 26 18 18 21 24 28 32 33 34 35 36 37 36 34 34 35 37 38 34 31 31 27 25 23 22 21 21 20

GFSCGP_700_spd_024.txt.gz
Wind_Speed
9 8 10 11 10 8 5 3 8 10 12 11 12 10 9 9 18 16 14 14 17 17 18 18 19 21 18 18 19 32 23 20 8 15 13 14 16 20 22 24 31 28 35 37
13 9 10 7 6 5 4 3 3 9 12 14 12 11 11 12 20 18 17 18 21 22 22 23 24 23 17 10 12 12 11 13 13 11 11 12 15 20 24 26 29 30 32 35
10 9 8 4 5 4 4 7 11 11 11 9 9 7 10 13 17 17 19 20 18 16 11 7 7 8 11 9 8 8 10 12 13 12 12 14 15 18 24 28 30 32 36 40
7 7 5 6 3 1 8 9 5 6 5 5 10 5 8 13 16 16 14 11 8 6 3 4 5 10 3 5 9 11 8 12 12 14 17 21 25 29 35 37 39 41 45 48
8 6 5 4 2 3 7 9 8 6 6 5 10 4 10 14 16 16 13 11 8 6 6 5 7 6 3 11 15 13 11 13 20 23 28 31 33 38 39 39 42 44 47 47
8 8 6 6 6 7 8 10 8 3 1 2 7 10 11 22 23 20 17 12 11 11 8 11 14 4 10 20 23 17 19 20 24 26 31 34 39 39 39 41 44 45 45 45
8 7 8 8 7 6 7 7 1 1 1 4 4 9 14 16 23 21 18 16 15 13 10 8 8 11 21 21 19 22 22 22 25 29 34 38 39 39 40 40 41 42 44 45
7 4 7 10 9 4 6 9 5 5 3 3 4 5 6 12 23 18 16 16 15 13 10 13 22 27 17 22 24 25 25 26 27 33 38 41 40 40 42 44 46 46 48 50
7 5 8 9 12 6 3 3 6 1 1 1 3 6 7 10 24 19 23 21 18 16 17 23 27 19 21 27 27 26 28 27 31 37 45 44 44 45 46 46 47 47 48 50
7 6 8 7 7 8 5 6 2 2 2 3 3 6 11 12 24 26 26 24 20 19 23 24 21 23 26 29 29 29 31 30 35 41 44 42 43 44 45 45 47 47 48 50
8 7 9 9 5 8 7 4 3 3 2 4 1 6 8 13 13 16 21 21 20 23 21 21 22 25 28 30 32 33 29 34 39 40 39 41 42 43 46 47 47 49 50 48
14 8 10 11 8 8 7 6 5 3 3 4 2 7 7 10 16 18 21 21 22 21 22 23 24 26 28 32 32 29 34 40 37 38 40 41 43 45 47 49 51 50 49 46
13 7 8 5 8 11 9 9 8 7 6 8 3 5 5 9 12 22 24 24 24 25 24 25 26 26 28 30 33 38 40 34 37 39 40 42 44 46 48 49 48 47 46 45
15 10 12 13 4 8 13 13 12 11 7 7 17 19 17 16 13 18 22 23 25 24 26 26 27 28 30 33 38 40 36 38 38 40 42 45 47 48 48 47 46 46 44 41
14 13 16 13 10 10 11 12 14 16 17 16 19 20 14 15 18 19 22 25 28 30 28 28 28 29 32 38 37 36 36 37 40 42 45 47 48 48 47 47 46 45 42 39
15 11 14 16 15 14 16 17 19 20 21 24 23 23 16 15 17 21 25 29 29 28 28 28 28 31 37 34 33 35 37 39 41 44 46 47 48 47 47 48 46 44 39 36
13 14 10 7 14 16 18 23 23 24 26 23 22 16 17 17 18 19 20 22 26 27 27 28 32 35 34 33 36 37 38 40 41 43 45 46 47 47 47 46 44 41 37 34
10 11 10 6 8 2 18 18 17 20 21 23 23 19 18 19 18 20 21 22 25 27 28 32 35 35 35 35 36 35 38 39 41 43 45 45 45 45 44 42 40 37 34 31
10 11 8 6 10 17 16 20 21 23 21 23 24 19 19 18 22 23 21 20 25 27 30 32 32 33 34 33 33 36 38 40 42 44 44 44 44 42 40 40 38 35 32 29
13 15 15 11 6 6 13 15 16 18 28 28 22 17 16 21 26 19 16 19 24 28 34 36 32 32 31 32 35 36 38 40 42 43 42 42 41 40 40 39 35 33 30 26
12 12 17 20 16 13 19 22 21 14 22 12 11 16 26 26 24 21 21 23 27 30 33 31 28 28 30 34 36 38 40 41 42 41 39 40 40 40 39 36 34 31 28 26
15 9 12 11 10 12 15 18 18 17 17 17 23 26 29 27 26 25 23 25 31 33 28 25 25 28 32 35 38 39 40 41 41 39 38 38 39 39 36 34 33 30 27 26
18 20 15 13 13 18 23 26 27 24 24 27 32 31 29 29 29 29 27 31 29 32 22 22 25 29 34 37 38 39 40 40 39 37 37 38 39 37 33 33 32 28 26 24
20 19 23 25 25 25 25 27 27 28 30 30 31 30 30 30 30 30 26 35 33 18 18 22 27 32 35 37 37 39 40 40 39 37 36 37 38 35 32 31 29 26 25 24
18 20 26 29 29 29 26 27 27 29 30 30 30 31 30 32 28 29 36 29 22 15 19 25 30 34 36 36 37 39 40 40 38 37 36 36 37 34 32 29 27 25 24 23
25 25 27 31 25 27 28 28 29 31 32 32 33 32 29 28 31 35 33 17 11 16 23 29 34 35 35 36 37 38 40 39 37 36 36 36 35 33 30 28 27 25 23 22

GFSCGP_700_spd_027.txt.gz
Wind_Speed
15 10 16 15 16 9 8 9 11 12 12 11 9 9 7 5 16 18 15 13 13 13 14 16 15 16 20 19 18 21 21 10 10 5 7 8 10 13 14 18 23 25 26 29
11 8 10 10 10 9 8 5 3 7 13 13 11 10 8 5 10 19 17 17 16 17 18 18 18 19 17 16 14 11 7 8 9 10 9 9 10 13 15 17 23 26 28 32
10 10 12 8 7 6 6 3 4 6 11 10 9 8 8 9 12 18 20 18 18 17 15 9 6 5 5 3 2 4 6 5 4 7 8 9 13 16 22 26 28 31 34 37
11 11 9 6 4 5 7 5 3 5 7 4 8 4 11 12 14 16 17 17 16 12 9 7 3 3 2 4 8 12 8 8 10 11 11 16 21 26 30 31 32 34 37 40
10 11 8 5 4 4 5 6 6 6 6 6 9 5 12 16 18 19 19 16 13 10 10 7 2 3 4 5 14 13 13 14 15 17 20 23 26 30 35 35 35 36 39 41
13 11 8 6 4 2 3 5 5 5 5 4 9 12 12 18 20 22 20 17 14 13 12 9 4 3 2 13 22 22 14 17 20 22 23 25 29 34 37 36 37 38 40 41
10 8 6 5 5 4 6 7 0 1 1 3 7 8 18 8 14 21 21 19 18 16 13 8 6 4 17 24 14 15 17 20 22 24 24 28 33 36 37 37 37 40 42 44
9 5 6 8 8 3 6 9 5 4 3 2 5 6 6 11 16 15 18 18 19 17 13 9 10 13 16 11 14 20 21 23 25 28 29 32 36 37 38 41 43 43 44 45
8 5 8 7 9 7 6 7 9 3 1 1 5 8 12 11 13 20 25 24 20 17 15 13 14 17 15 16 19 21 23 24 29 32 33 38 40 40 42 43 43 44 45 46
7 5 9 7 9 10 7 6 3 4 3 3 4 8 11 7 9 18 25 25 23 21 15 15 19 18 20 21 22 24 25 28 35 36 39 40 38 40 42 42 43 44 44 44
6 6 8 9 8 9 9 8 4 4 3 3 2 5 4 4 7 10 15 16 20 18 16 18 20 22 23 24 25 29 31 33 38 39 42 35 40 39 41 42 43 44 45 45
13 7 7 12 8 9 10 9 8 4 4 5 2 7 3 4 6 12 15 15 18 19 21 23 24 24 26 27 29 32 33 37 39 40 36 37 39 41 41 42 43 44 46 46
15 9 6 4 9 13 14 13 12 10 7 7 3 4 6 10 8 10 16 20 23 24 25 25 26 26 28 29 33 33 35 40 38 33 35 39 40 40 42 44 45 45 46 46
14 14 11 14 6 9 17 17 15 14 8 9 18 20 16 15 14 12 16 20 24 27 27 28 27 28 29 32 33 34 38 36 32 35 36 38 40 42 44 45 46 46 46 45
16 16 17 16 13 10 12 13 16 19 19 17 21 22 17 17 16 13 15 20 23 27 29 28 29 30 31 31 34 37 35 32 34 34 37 39 42 43 44 45 45 45 44 44
16 12 15 16 17 16 17 17 19 21 23 27 28 27 19 16 14 14 14 16 21 25 29 30 31 31 31 32 36 35 30 32 34 35 38 40 42 43 44 44 45 44 44 42
15 14 11 8 15 16 16 24 25 26 27 26 28 25 20 19 17 16 17 17 17 21 27 28 28 30 30 34 31 30 32 33 34 36 38 40 42 43 44 44 43 42 41 38
10 11 10 6 6 2 16 18 18 19 18 21 24 25 22 21 20 18 16 19 19 20 22 24 27 29 34 33 31 31 31 32 34 37 39 41 43 43 43 42 41 39 38 35
9 9 6 5 8 15 14 15 20 23 22 22 23 21 23 21 18 15 19 22 19 18 20 23 27 31 34 32 31 29 30 33 36 38 40 42 43 43 41 39 39 37 36 33
14 13 12 9 5 5 5 12 18 21 24 21 16 17 17 13 19 24 26 22 19 17 20 24 30 33 30 28 26 28 32 35 37 39 40 42 42 41 38 38 38 35 34 32
8 10 14 16 12 10 12 16 17 10 14 14 13 12 12 21 28 28 24 20 20 22 23 28 33 29 26 24 25 29 33 37 38 39 41 42 40 38 37 38 37 34 34 30
11 7 7 8 7 8 5 7 10 15 24 21 17 19 26 29 28 25 23 22 21 24 30 34 29 25 20 21 27 31 35 38 39 40 41 40 38 36 36 35 34 32 31 27
13 15 11 11 11 18 23 23 21 22 22 21 22 26 28 29 28 27 26 25 26 31 29 31 23 14 19 24 27 33 35 38 39 41 41 38 36 35 35 34 32 30 29 25
16 15 20 22 21 21 23 24 23 22 23 22 24 26 29 30 31 30 34 32 30 41 27 28 14 15 21 27 28 32 36 38 40 40 38 37 35 34 33 32 31 28 27 25
18 19 24 26 23 22 20 23 24 25 26 26 27 27 28 29 30 30 32 32 37 32 21 16 12 19 23 26 29 33 36 37 38 36 34 33 32 32 31 30 29 26 25 23
22 19 21 24 23 27 27 27 28 30 30 29 29 29 30 29 26 27 28 34 32 26 13 12 16 21 23 27 31 33 35 35 34 31 31 31 32 31 29 28 26 24 24 23

GFSCGP_700_spd_030.txt.gz
Wind_Speed
10 7 9 13 16 8 10 9 12 12 18 13 15 15 12 13 20 22 21 20 18 16 15 15 15 15 17 20 20 20 17 14 6 4 3 5 6 8 9 12 16 19 24 29
8 9 8 11 14 9 7 10 12 17 20 17 17 15 14 10 15 24 24 21 18 17 16 16 17 20 20 22 22 20 13 6 7 3 8 5 2 4 8 11 17 21 25 28
12 9 15 11 10 8 9 8 11 9 21 19 13 12 15 14 11 14 23 23 20 18 17 17 16 13 11 10 10 8 2 5 5 6 4 3 4 8 12 18 24 26 28 31
5 9 8 8 6 7 7 9 7 6 12 10 14 10 15 17 14 14 19 24 23 20 17 14 11 9 8 8 8 4 4 5 7 7 6 9 11 15 19 24 28 31 32 34
7 11 10 7 6 7 6 8 8 7 7 7 10 12 7 13 15 16 19 23 22 18 14 13 12 10 8 7 3 8 11 11 11 12 13 15 18 21 24 29 32 32 34 35
12 13 11 8 8 7 7 7 7 6 5 10 9 9 9 10 13 18 20 21 20 17 14 15 13 9 9 7 11 16 13 11 16 16 17 19 22 25 29 34 33 34 35 36
11 11 10 8 6 7 8 8 4 4 5 7 5 8 19 11 14 15 18 21 19 17 15 16 12 8 6 10 11 11 13 16 17 19 21 24 26 30 33 35 34 35 36 38
13 7 9 10 10 7 10 8 6 4 4 2 4 7 4 10 17 17 15 18 19 18 18 17 11 10 10 9 9 12 17 19 21 22 27 30 30 32 38 35 36 37 40 41
10 5 10 9 11 8 6 6 9 3 4 3 8 8 12 14 12 15 20 24 22 20 19 17 14 12 12 11 14 17 20 22 24 28 30 34 33 37 37 36 36 39 41 41
8 4 9 8 9 10 7 5 3 6 3 4 3 7 4 5 7 13 19 23 23 22 22 20 17 15 15 16 19 22 24 26 30 32 34 34 39 37 34 35 37 39 40 41
8 8 6 8 8 8 11 8 8 4 3 2 3 1 1 2 3 4 8 15 21 24 24 21 20 19 20 21 24 26 28 31 34 38 36 41 40 33 34 35 37 39 41 41
13 8 5 9 11 13 14 10 10 6 4 4 2 5 2 4 5 6 10 14 20 24 26 24 23 23 25 27 27 29 32 35 38 36 40 41 34 33 35 36 38 40 42 43
15 9 6 4 7 13 13 16 15 14 10 8 4 3 5 11 11 8 11 18 21 22 26 27 27 28 30 30 30 32 36 39 34 39 40 34 33 33 35 37 40 42 43 43
14 17 13 14 5 6 12 21 19 14 8 9 14 13 15 15 14 14 12 17 21 24 28 30 32 33 34 33 33 36 39 34 34 38 31 32 32 34 37 39 41 43 43 42
16 13 19 19 15 13 13 12 18 21 18 12 14 15 13 15 18 19 18 17 20 23 26 30 34 37 35 35 35 38 38 32 35 32 31 32 34 36 38 40 42 42 42 41
16 12 17 18 19 18 18 18 18 18 20 24 23 26 20 20 19 18 19 17 18 21 24 28 33 35 35 34 37 39 33 35 33 32 31 32 34 37 39 39 41 41 41 42
17 16 11 7 15 17 16 24 25 25 26 26 23 22 23 24 20 18 19 17 16 17 20 25 28 32 33 35 38 34 37 33 32 30 30 33 35 37 38 39 40 41 41 40
12 14 11 6 3 3 12 15 15 17 17 19 20 23 25 25 20 19 19 15 15 19 22 24 27 31 33 36 34 36 35 32 28 28 31 33 37 38 39 40 40 39 39 37
12 11 7 5 7 12 15 14 14 15 15 17 20 20 22 19 18 20 16 18 23 23 22 23 25 29 32 35 38 36 33 25 25 29 31 36 37 38 40 40 39 37 36 35
14 13 12 7 4 4 6 8 13 16 12 4 6 11 14 14 16 11 22 27 25 23 22 23 25 28 34 35 42 32 23 22 27 30 35 36 37 39 40 40 37 34 34 33
9 10 14 15 9 8 12 12 11 3 4 12 22 19 15 13 17 25 29 24 22 21 21 20 26 32 39 41 31 24 20 23 29 32 35 36 38 40 40 38 36 34 32 32
7 5 6 7 6 6 1 7 8 12 20 20 19 14 18 23 26 28 27 27 27 24 28 28 30 33 40 28 25 19 22 27 28 33 36 38 40 40 38 36 34 33 30 30
9 10 8 7 5 13 18 13 16 21 23 23 22 21 23 27 30 30 30 30 30 30 34 41 35 35 39 22 16 23 22 24 31 34 36 38 39 36 33 32 32 30 29 28
12 11 15 16 14 14 18 19 21 21 23 24 25 26 28 30 33 34 34 33 33 34 36 35 34 37 16 18 22 18 22 27 31 33 36 36 33 32 32 32 29 27 28 27
15 17 18 19 17 18 19 23 25 25 26 27 28 29 29 29 31 31 32 33 32 32 34 35 36 21 17 15 14 19 24 27 30 33 33 32 32 33 32 30 27 27 26 25
17 18 15 18 20 22 23 25 26 24 25 26 27 27 26 27 28 28 26 28 31 35 34 31 19 13 10 14 18 21 25 27 30 32 32 32 32 31 29 28 28 27 25 25

GFSCGP_700_spd_033.txt.gz
Wind_Speed
7 10 14 15 13 7 9 9 9 11 9 12 14 10 8 15 19 20 19 19 20 22 22 19 21 21 20 22 20 20 20 20 20 11 9 6 8 9 11 14 12 12 16 19
10 12 9 10 14 10 9 10 9 6 10 11 12 13 12 14 17 20 21 20 20 20 22 22 21 22 23 23 22 22 23 21 13 12 9 9 9 10 11 10 12 16 20 23
10 11 11 9 14 10 8 6 7 10 14 15 11 15 17 19 15 19 20 20 20 20 23 24 23 24 24 23 20 18 14 12 11 11 9 11 12 12 13 15 18 20 24 28
6 6 12 6 10 10 10 10 8 8 16 21 20 18 20 20 23 21 21 24 22 21 22 23 21 19 16 15 14 12 12 9 8 11 12 11 12 11 18 20 23 27 29 30
2 10 8 10 6 10 5 8 7 9 16 12 18 14 22 22 19 19 19 22 22 25 23 21 17 16 15 17 14 11 8 11 12 12 13 13 15 16 19 21 26 28 35 34
10 10 7 4 8 7 5 5 7 9 15 10 18 18 8 17 15 15 16 18 20 20 20 18 17 18 19 15 12 12 13 13 13 14 16 18 20 23 27 25 27 34 35 34
10 8 7 5 4 4 6 8 12 8 7 9 3 8 17 9 9 14 17 17 19 20 20 20 20 20 17 14 13 14 14 14 16 18 20 22 25 25 28 30 31 36 33 35
17 10 11 9 9 5 9 13 13 7 7 8 4 9 5 6 9 9 16 15 17 18 20 21 21 20 16 16 13 14 16 19 20 22 24 26 28 30 31 30 35 34 35 35
15 7 10 12 8 6 8 10 9 6 6 8 16 13 7 9 8 8 15 17 17 18 20 22 23 21 19 16 16 17 20 22 24 25 28 31 34 36 30 36 36 36 36 35
5 3 5 8 8 10 10 4 5 8 3 6 5 7 5 2 5 9 15 18 18 19 20 23 23 23 23 21 20 20 22 26 27 30 33 36 38 36 37 38 36 35 35 35
12 12 5 6 10 12 8 12 9 5 5 3 4 3 4 1 4 8 14 18 19 20 22 22 25 26 26 27 24 25 27 30 31 34 38 41 42 38 36 35 34 35 35 36
13 9 10 13 11 14 9 10 12 9 6 6 3 8 3 1 0 5 9 16 18 21 22 23 26 29 28 30 30 30 32 33 36 38 42 44 37 34 34 34 34 35 36 38
12 11 13 10 10 11 12 12 12 10 7 10 4 4 4 9 12 7 8 13 18 21 23 25 28 30 31 32 33 35 35 37 39 40 44 43 34 34 33 33 35 36 38 39
14 15 15 15 8 2 10 13 14 15 11 11 16 15 11 10 10 10 11 12 17 21 24 26 29 32 33 35 37 39 39 40 40 42 45 34 32 31 33 33 35 37 38 40
14 13 17 19 11 10 10 10 13 20 21 18 17 15 14 14 15 13 15 15 16 21 24 30 31 33 35 39 41 41 42 41 41 43 40 30 33 33 33 33 35 39 40 41
16 10 13 13 13 16 14 16 16 18 20 22 23 23 20 19 14 15 15 17 16 19 22 24 26 31 36 40 41 42 42 41 42 44 33 32 32 31 31 35 39 38 40 40
10 11 9 9 8 8 15 22 22 21 21 20 22 22 16 15 16 13 13 17 17 19 21 22 24 30 35 38 38 41 40 43 44 37 34 32 30 28 33 37 37 38 39 39
14 11 10 5 4 1 10 12 13 13 16 18 19 19 19 19 15 18 15 13 15 15 18 23 26 30 34 36 40 37 42 45 42 39 31 27 29 32 33 35 38 39 39 38
13 12 7 5 8 11 13 12 11 7 6 7 7 9 11 14 16 19 15 15 15 20 25 26 27 29 33 37 34 39 43 43 44 35 28 25 29 32 33 37 38 39 39 36
14 14 10 8 4 4 2 7 8 8 7 3 6 8 13 17 15 12 17 22 24 30 29 26 25 27 29 33 37 40 44 48 41 24 23 28 30 32 36 38 38 38 37 35
14 15 15 11 7 6 9 12 9 6 4 10 15 26 21 13 13 20 23 31 34 33 32 29 28 27 31 38 42 45 49 40 31 22 28 25 30 35 37 38 36 34 34 33
6 7 8 8 6 6 6 4 2 7 15 17 23 22 24 20 23 28 31 32 33 32 33 32 31 33 38 43 50 43 30 28 23 25 23 27 32 35 37 36 34 33 33 33
6 9 5 7 3 9 9 14 14 19 22 22 24 23 24 24 24 24 34 33 33 32 36 36 40 42 44 46 38 37 28 25 16 20 23 29 33 35 35 35 34 33 31 33
10 11 11 11 4 7 9 16 16 19 21 24 25 26 27 28 29 26 35 33 33 36 37 36 38 39 40 38 35 23 23 16 17 22 27 31 34 34 33 32 33 35 33 32
9 10 9 13 13 11 7 9 21 24 25 26 25 25 27 26 27 30 32 33 34 35 35 37 38 39 38 29 21 16 15 17 21 25 29 31 33 33 34 34 34 34 31 29
16 12 13 9 16 18 18 27 27 28 27 26 27 29 31 29 30 32 31 31 31 32 35 36 38 30 19 18 18 18 18 21 24 28 30 32 34 35 34 35 33 32 30 27

GFSCGP_700_spd_036.txt.gz
Wind_Speed
7 8 12 12 8 13 6 11 10 11 8 11 14 19 15 14 17 17 17 18 19 19 21 17 15 18 17 22 13 16 17 15 18 18 16 13 13 12 10 13 15 16 15 16
7 12 3 7 9 10 10 11 6 5 5 9 12 13 14 16 21 22 21 20 21 21 23 17 19 22 23 24 23 20 20 18 22 20 14 14 13 11 12 13 14 16 17 19
5 1 8 7 9 11 13 7 7 11 6 9 9 13 14 13 16 20 22 22 22 22 22 22 25 24 24 27 26 24 24 21 18 16 13 13 13 13 15 16 18 20 21 24
8 6 8 6 13 13 11 2 10 11 10 12 9 12 17 14 17 21 25 28 27 25 25 28 25 27 28 30 26 25 22 16 16 15 14 13 14 18 20 21 21 20 22 26
5 13 12 12 9 7 4 11 7 9 12 9 14 15 31 23 26 28 29 27 25 23 24 25 27 26 25 26 23 21 17 17 15 13 15 13 16 20 21 23 25 28 28 29
7 7 6 11 11 8 6 6 9 11 14 5 24 23 11 30 26 24 23 24 25 28 30 29 31 26 25 23 22 19 13 16 16 17 18 16 19 22 24 25 26 28 32 32
12 15 8 9 9 8 7 10 5 9 9 5 13 8 9 20 16 4 25 24 20 26 26 22 21 15 16 20 18 16 15 20 18 18 19 21 22 26 29 31 32 34 32 32
12 3 10 12 11 4 8 12 5 1 2 11 3 6 3 11 9 3 16 19 17 20 21 24 25 27 23 20 19 18 19 21 19 19 23 24 26 30 34 36 35 34 34 31
9 9 9 3 8 5 5 5 6 10 9 6 11 20 4 3 5 4 13 15 18 18 21 22 21 23 22 22 21 20 21 24 22 22 26 27 30 33 36 38 40 39 33 31
11 12 16 13 13 10 9 7 4 3 2 5 10 11 13 3 3 6 12 15 18 18 22 22 23 25 25 24 26 25 24 27 28 28 28 30 34 36 39 42 44 32 31 30
9 21 11 7 8 8 5 9 10 10 8 1 4 5 6 5 4 4 11 16 18 19 19 21 23 25 28 29 30 27 27 29 32 32 33 36 38 40 41 45 45 34 32 30
13 7 8 10 7 8 7 8 11 9 8 5 2 10 1 3 5 4 7 14 18 19 19 22 23 27 30 31 32 29 29 33 36 36 39 40 40 45 41 46 39 33 31 31
8 7 11 14 8 10 16 14 14 10 8 8 5 5 5 7 11 6 7 9 16 20 20 23 25 29 30 33 33 32 31 34 38 42 43 40 44 47 38 44 33 33 31 32
14 10 13 13 15 4 16 12 13 14 11 14 17 15 11 15 9 8 11 10 12 19 19 22 24 30 33 39 36 34 36 37 38 44 40 43 46 44 41 37 29 29 30 34
16 14 15 18 19 8 10 9 9 15 18 20 18 15 13 14 11 9 11 11 14 14 21 21 25 31 34 41 40 34 37 40 42 43 41 41 48 39 38 28 28 27 33 33
16 11 13 14 12 14 16 17 16 17 17 19 20 19 16 15 16 18 12 13 15 16 18 26 29 32 38 38 35 36 39 42 46 40 40 42 43 44 32 26 26 33 34 33
11 12 8 8 9 10 14 21 19 21 19 18 19 18 16 17 18 14 13 11 17 18 19 19 26 25 24 29 33 36 40 45 44 39 41 45 48 39 26 27 33 30 32 36
12 11 11 6 6 2 10 7 11 9 9 11 12 10 9 13 12 17 21 15 15 13 17 16 19 23 26 28 30 37 43 43 41 42 45 41 31 29 26 27 25 27 34 38
10 12 11 6 10 11 13 7 6 4 2 3 3 3 5 11 14 14 10 14 16 18 18 21 27 24 25 30 34 38 40 42 44 47 46 38 28 23 30 24 24 30 34 36
14 14 12 9 4 4 2 8 6 4 4 3 7 8 8 17 14 11 10 15 20 23 28 31 26 24 25 30 33 35 39 43 48 51 43 32 23 24 23 26 29 33 35 34
12 16 15 11 6 6 7 10 12 4 3 7 9 15 24 17 13 17 22 24 25 29 30 31 24 23 30 35 37 41 44 48 48 39 31 24 26 19 25 30 33 35 34 33
6 8 10 12 6 7 10 6 4 9 10 14 21 21 21 20 19 19 20 24 29 29 30 32 34 34 38 40 42 43 48 45 39 34 31 21 19 22 26 30 34 36 35 34
7 8 5 7 1 7 8 10 8 12 17 19 19 20 20 23 21 19 17 25 31 33 35 38 38 36 34 34 39 42 41 41 34 28 22 19 21 25 28 32 35 35 35 34
10 12 11 11 5 5 8 9 10 18 19 17 22 24 25 25 22 21 24 28 34 36 36 34 31 32 32 37 42 37 28 26 23 24 26 24 25 28 31 33 34 35 35 34
11 11 8 10 12 12 12 15 20 21 23 24 24 26 24 23 27 32 34 34 32 31 30 30 34 33 30 26 23 22 24 29 26 21 22 26 29 31 33 34 36 35 34 32
14 12 14 12 18 18 24 26 25 25 27 26 24 25 27 29 28 26 26 26 25 27 30 27 18 17 21 22 20 18 18 19 21 24 27 30 33 34 36 37 37 36 36 35

GFSCGP_700_spd_039.txt.gz
Wind_Speed
7 6 6 4 7 9 4 8 11 11 16 17 14 6 17 19 19 15 14 14 15 12 12 13 12 10 7 6 8 7 9 12 13 13 14 11 13 14 14 14 15 16 18 20
4 7 8 5 6 4 13 8 14 6 7 15 17 13 19 22 21 20 17 15 16 18 18 16 15 18 16 13 11 13 13 14 15 17 19 16 13 13 13 15 16 17 18 21
8 5 3 11 10 16 20 15 19 13 5 8 7 11 23 19 19 22 24 19 19 20 20 21 21 24 24 23 21 19 19 16 20 21 20 16 15 16 15 18 17 19 21 23
7 9 7 8 11 9 16 12 6 16 14 6 6 1 16 19 16 21 25 25 25 24 25 24 24 28 28 27 27 26 21 20 23 20 15 15 17 20 18 19 19 20 22 25
3 9 8 11 11 9 13 13 11 10 13 14 6 1 10 15 17 18 22 28 28 27 28 28 25 23 26 32 29 27 24 22 19 18 16 18 22 23 20 21 21 22 25 28
8 9 16 12 10 13 4 9 8 9 6 2 18 12 9 21 28 29 29 24 24 26 29 28 28 31 30 26 27 26 25 22 21 19 18 20 23 24 24 25 27 30 31 33
11 5 4 11 13 10 11 14 2 3 4 6 15 8 28 17 19 26 16 28 28 29 27 32 34 34 32 29 27 26 26 24 20 19 20 19 23 24 26 28 32 34 35 39
14 8 17 4 15 5 9 10 2 5 2 4 16 6 2 10 15 15 13 21 28 28 33 34 36 35 34 20 17 22 25 23 19 17 19 21 23 27 29 32 34 38 40 39
11 9 13 7 4 7 3 3 2 5 5 2 11 5 9 10 11 10 16 21 28 30 29 32 32 28 23 22 18 20 21 22 20 20 21 23 26 30 33 36 39 40 41 42
16 5 6 15 12 10 12 8 3 4 4 4 3 9 8 7 3 6 11 19 20 16 17 18 21 21 22 22 22 23 26 28 27 27 25 26 28 30 35 39 44 40 46 44
15 8 3 17 20 14 14 10 9 7 4 4 0 2 5 3 1 6 14 15 14 13 13 16 18 20 21 21 23 27 29 32 33 33 32 33 33 35 35 42 44 50 49 40
11 3 15 20 9 8 12 8 6 12 5 1 2 8 8 4 2 4 2 14 16 19 20 17 17 20 22 23 22 20 26 32 36 37 39 39 39 39 40 44 48 48 47 36
14 9 10 9 10 9 12 15 15 12 11 11 5 4 5 14 11 6 9 4 12 16 19 22 23 24 26 27 29 27 28 28 32 37 40 43 43 44 46 45 47 50 41 33
15 9 10 10 8 8 11 7 10 14 11 10 14 18 15 12 14 8 8 6 9 12 16 21 24 25 29 32 33 32 35 39 39 38 39 41 43 45 46 50 46 39 32 28
18 20 16 15 16 13 10 15 8 14 16 19 17 13 10 8 4 9 4 6 5 7 11 16 24 25 27 30 33 36 36 38 39 39 39 41 43 46 48 44 43 37 31 26
18 17 17 15 18 16 13 13 19 15 14 14 12 17 12 9 7 10 10 11 13 14 18 19 18 24 25 28 31 33 32 34 39 39 40 43 46 46 48 49 47 35 28 29
17 15 14 13 15 18 19 24 22 20 21 18 18 11 16 15 10 5 7 12 15 19 17 19 22 21 26 31 32 31 32 35 39 42 44 47 49 51 56 46 37 30 31 34
18 14 12 8 9 0 14 8 8 6 4 6 9 8 9 7 9 10 13 16 18 20 20 17 18 19 21 25 28 30 33 36 39 42 46 49 52 55 46 44 33 31 26 23
17 17 11 8 15 10 12 10 11 10 6 8 13 14 9 8 12 16 20 18 17 17 19 19 19 23 28 25 28 30 34 37 40 44 49 54 56 57 48 31 27 27 22 25
19 19 17 12 5 7 7 10 10 9 8 10 12 14 14 14 16 18 13 15 19 21 24 27 31 34 34 33 33 34 35 38 42 50 55 54 55 39 28 42 28 23 25 27
19 19 20 18 10 7 8 10 10 9 7 12 13 12 13 19 20 18 17 22 26 28 30 30 32 32 32 30 32 35 38 41 46 50 51 45 38 39 34 28 26 24 28 32
12 16 16 13 9 9 13 13 12 12 15 14 13 17 21 20 18 20 20 24 27 27 30 31 30 27 30 31 34 37 41 43 40 42 37 33 24 27 22 19 23 29 31 32
12 11 10 8 5 7 10 14 14 13 14 17 22 21 19 20 19 21 23 25 28 29 27 25 25 24 24 27 30 33 34 32 28 22 21 22 17 18 21 27 30 31 32 33
15 12 11 9 6 7 17 18 19 19 20 20 17 21 22 20 19 20 23 26 26 24 23 23 25 25 26 28 26 19 14 16 17 17 18 19 21 24 28 30 32 33 35 36
18 17 16 15 14 14 17 18 19 21 23 20 21 23 22 20 22 24 23 21 20 22 23 23 25 26 22 15 18 20 16 15 17 20 22 24 27 29 32 33 35 36 37 37
19 19 18 19 23 25 26 26 25 23 22 22 24 22 21 23 24 22 22 24 24 23 20 20 18 17 18 15 13 15 18 20 22 23 26 29 32 34 36 38 39 38 39 36

GFSCGP_700_spd_042.txt.gz
Wind_Speed
5 3 3 9 3 3 7 10 12 9 9 16 16 10 8 12 14 15 14 10 10 8 7 6 6 6 11 10 7 5 6 8 9 12 12 12 11 12 13 16 17 19 20 21
7 5 6 6 5 4 3 7 14 12 12 23 21 17 10 15 18 19 15 14 13 11 13 13 10 9 10 10 10 11 10 10 13 15 15 16 16 14 17 17 21 21 19 18
9 11 9 8 5 5 12 11 10 14 11 10 11 18 16 19 21 23 19 15 15 13 14 16 15 14 15 14 13 14 14 14 16 19 20 20 18 16 17 18 18 18 19 20
12 8 9 10 9 6 15 14 17 17 9 11 6 7 6 20 18 28 25 23 21 18 18 18 18 17 17 19 19 20 19 18 20 21 23 19 16 16 18 18 17 19 21 26
9 9 16 13 11 7 11 11 15 15 15 9 10 5 4 14 21 24 29 29 27 27 26 24 21 20 20 20 20 22 24 24 23 25 23 16 16 17 18 19 19 21 24 28
10 7 10 9 12 15 15 9 8 12 6 3 1 3 8 12 21 22 23 28 28 31 30 25 26 24 23 25 23 22 24 30 28 25 17 14 16 16 19 21 21 23 26 29
13 3 3 10 13 15 12 10 3 3 2 5 6 3 14 14 17 24 27 22 27 27 31 30 28 28 26 29 27 24 28 27 30 23 18 18 19 18 20 23 26 30 32 35
14 7 10 6 10 5 5 8 4 4 2 4 5 5 6 15 10 11 17 23 24 31 24 24 25 26 27 27 25 25 24 21 24 21 18 21 21 22 24 29 33 35 36 38
7 9 6 8 3 5 7 10 6 6 2 3 6 2 7 6 8 12 17 18 23 26 25 26 27 24 24 29 26 27 23 21 23 21 22 23 25 28 32 35 38 40 43 42
23 7 13 11 14 12 17 7 4 5 3 3 5 5 7 8 3 5 7 15 15 16 21 22 25 28 30 28 26 25 25 24 24 25 25 26 28 31 35 36 39 43 44 41
28 21 13 16 22 24 15 12 13 11 4 4 1 3 5 3 2 7 3 3 5 10 8 9 10 13 14 17 20 22 24 23 26 27 29 32 34 35 37 38 39 41 57 46
27 19 13 14 6 15 9 15 18 12 6 4 2 7 8 7 11 4 1 3 8 12 11 9 9 11 11 12 17 18 17 18 20 21 23 26 31 32 36 38 44 50 46 51
25 13 9 7 13 18 20 15 17 13 14 15 7 6 4 6 11 13 6 4 6 8 10 13 17 18 18 20 17 17 22 25 26 30 30 31 33 34 37 40 42 44 46 51
19 17 19 20 12 6 10 15 11 14 13 12 16 15 14 20 20 18 11 9 10 11 14 17 20 21 22 21 21 23 27 29 30 29 30 33 36 36 39 41 43 46 48 53
21 21 18 13 14 10 8 9 12 10 8 14 17 19 13 12 7 11 11 13 12 14 15 16 19 22 24 25 27 29 32 30 30 29 31 30 35 40 43 43 48 51 53 55
22 19 20 21 22 22 14 14 17 19 15 13 9 9 12 9 10 10 11 17 17 14 14 15 19 21 23 24 24 27 28 29 30 32 33 37 39 39 44 49 56 59 54 55
21 23 20 19 20 19 19 25 22 22 25 19 18 12 9 14 14 14 13 13 13 13 16 18 18 20 20 19 20 24 27 30 33 34 35 36 41 44 48 53 57 58 49 33
15 19 18 12 12 1 13 14 12 13 15 15 13 16 15 15 11 7 7 9 12 15 16 15 18 19 19 22 23 26 30 33 36 37 38 40 44 48 51 58 50 34 40 38
16 18 12 7 14 11 10 9 14 14 12 12 14 17 13 9 7 11 11 11 12 14 17 19 19 19 20 24 30 27 28 31 34 36 40 46 51 51 53 33 40 35 26 24
21 21 21 12 5 7 13 20 17 16 15 17 14 12 11 10 11 15 16 20 19 20 21 23 25 27 24 23 22 24 27 30 33 37 43 50 40 40 39 37 23 24 21 23
25 27 25 24 15 11 17 12 15 17 15 19 17 17 16 15 17 22 22 21 21 20 20 21 21 23 21 22 23 27 31 34 39 38 42 33 34 28 26 25 24 24 24 28
27 25 22 21 14 13 16 21 23 17 17 17 16 13 13 19 20 20 21 20 18 18 19 21 22 20 22 23 24 26 27 30 33 34 33 31 28 26 28 25 27 28 30 33
17 21 18 17 9 14 13 20 20 18 13 11 12 13 18 17 19 20 20 18 18 20 21 21 22 23 26 29 28 28 30 30 29 26 27 25 25 25 28 30 31 32 34 36
20 14 15 15 13 13 14 14 14 13 13 13 16 17 18 21 22 20 19 21 24 25 21 22 25 28 28 27 26 26 22 22 24 24 23 24 27 29 30 32 35 38 39 39
24 21 20 19 17 18 18 18 18 18 18 19 19 20 23 24 22 21 23 25 24 23 24 25 26 25 24 19 19 20 21 20 20 21 24 27 30 32 34 36 39 41 42 42
26 25 27 25 22 20 19 21 21 21 21 22 22 24 25 24 22 23 23 24 25 25 26 24 21 17 17 18 18 18 19 21 24 26 28 31 35 37 39 42 43 43 44 44

GFSCGP_700_spd_045.txt.gz
Wind_Speed
1 2 4 5 4 1 4 6 11 9 9 10 23 17 13 12 12 12 8 8 12 13 10 12 14 13 12 12 11 9 7 4 4 3 5 7 7 9 11 14 17 19 20 19
3 3 5 5 0 1 4 6 7 10 11 13 16 21 16 17 14 12 9 9 9 12 11 12 11 12 11 11 9 8 6 6 6 7 9 11 12 13 15 17 18 19 20 20
7 9 12 11 10 8 9 9 7 9 14 12 9 19 22 21 18 17 17 14 13 10 6 6 7 6 9 10 9 9 9 10 11 11 14 16 17 17 16 16 18 21 22 22
9 6 10 12 14 7 9 10 11 17 17 10 9 7 14 26 25 23 22 23 16 17 15 14 9 7 6 4 7 13 13 15 16 17 18 18 20 18 15 19 22 22 19 21
6 4 10 12 9 8 5 7 12 17 11 14 9 6 13 14 19 25 24 27 24 21 19 16 14 12 10 9 9 10 13 16 19 20 21 21 20 17 18 18 20 20 21 23
16 10 7 12 13 12 10 10 13 8 10 2 6 7 10 11 17 22 26 25 27 26 22 20 20 18 18 16 16 15 15 14 19 23 28 21 19 17 18 18 19 22 25 28
17 13 10 14 12 15 13 10 3 2 1 5 4 6 15 15 10 13 17 21 23 24 25 23 23 21 21 18 17 15 15 17 22 26 24 18 17 15 18 19 22 26 30 34
13 8 8 7 12 15 8 4 3 3 2 4 5 6 5 8 13 11 12 16 21 25 25 25 25 22 22 21 18 16 17 19 22 22 19 19 21 19 21 25 27 27 31 35
10 10 12 7 6 12 8 6 7 6 1 1 4 7 11 9 5 5 8 13 14 20 17 18 19 19 19 20 19 18 20 22 24 24 23 21 22 24 27 27 29 35 37 38
20 7 9 15 10 9 9 7 4 4 1 2 5 6 10 5 3 3 6 12 14 14 18 18 15 13 15 18 22 24 23 23 25 26 25 23 24 28 27 28 32 35 39 36
22 19 16 18 16 16 17 18 14 12 4 4 1 5 7 2 2 5 3 2 3 10 10 11 11 10 13 16 17 18 21 22 20 17 18 20 21 22 26 28 29 32 34 43
22 13 19 22 21 20 25 26 17 10 6 6 5 13 11 13 10 6 7 6 4 1 3 1 2 5 8 9 12 15 13 14 16 17 18 21 23 25 30 33 32 36 37 43
23 19 20 19 20 12 16 13 16 17 18 16 8 10 4 8 11 7 9 9 6 4 5 6 8 12 13 15 16 19 16 18 20 21 23 25 25 26 26 29 33 36 43 45
22 24 21 23 24 20 23 22 15 17 19 20 24 23 17 16 19 19 20 14 10 10 10 13 14 17 19 22 24 24 25 26 25 26 30 28 27 31 29 29 33 33 42 46
22 22 21 20 17 17 17 13 15 18 17 18 22 23 18 18 14 12 11 16 16 14 15 16 16 17 20 24 26 27 28 25 27 31 32 29 32 31 32 34 43 37 47 47
27 21 19 17 17 17 19 19 18 18 19 19 17 16 14 17 16 14 13 16 18 19 19 18 17 18 21 24 25 27 26 25 29 31 30 32 31 31 34 42 44 48 53 54
29 26 20 18 19 22 23 30 31 28 26 26 25 22 19 19 17 18 17 16 18 17 15 15 17 18 19 18 17 17 19 19 24 28 31 32 33 36 40 44 47 54 46 37
26 24 19 17 18 5 31 31 30 31 33 33 34 31 24 19 21 19 17 16 15 15 15 16 16 16 17 17 18 17 19 23 26 28 31 33 34 37 41 46 49 40 37 44
25 23 16 11 18 19 11 17 18 22 21 18 18 18 22 22 19 17 14 12 12 14 15 16 17 17 18 19 22 24 23 24 26 29 32 36 39 41 45 46 34 44 38 32
21 19 20 14 7 8 19 19 21 17 15 18 16 15 18 18 15 11 10 12 14 14 16 18 20 22 24 24 24 23 24 25 27 31 37 44 47 44 32 39 43 33 31 32
25 24 26 26 16 15 18 15 13 22 19 22 20 18 16 14 13 12 15 17 18 19 19 19 20 22 25 26 25 25 26 26 27 33 33 29 36 41 40 34 34 34 32 35
30 28 25 26 20 15 16 17 24 20 25 16 15 19 18 15 15 19 21 20 20 20 22 23 23 25 27 26 26 26 28 31 30 29 36 36 34 32 33 34 33 35 38 40
29 27 23 21 23 21 14 18 24 26 17 13 10 12 14 15 20 21 20 21 22 22 22 24 26 26 24 28 30 31 31 30 31 33 29 28 30 32 32 34 36 39 41 43
29 22 27 22 25 24 19 15 17 18 17 13 12 14 16 20 20 21 22 22 21 22 25 27 25 25 29 31 32 33 28 24 24 25 27 29 29 31 34 38 41 43 45 47
29 27 26 24 23 18 17 16 16 16 16 15 16 18 20 21 23 24 23 23 25 26 28 26 25 26 28 28 23 21 22 24 25 26 26 29 32 36 38 40 43 46 47 49
27 28 30 31 23 22 17 15 16 18 20 21 22 23 24 24 25 27 27 27 27 28 27 26 28 27 22 21 22 22 23 24 25 27 30 33 37 40 44 47 49 49 50 50

GFSCGP_700_spd_048.txt.gz
Wind_Speed
5 3 5 4 5 4 4 5 10 9 6 13 12 13 16 10 9 6 2 7 12 14 11 13 14 15 16 16 16 15 12 11 9 6 4 3 3 7 9 10 12 13 14 17
5 1 4 5 3 4 3 4 8 10 8 11 14 10 18 17 13 9 2 6 13 18 16 14 13 13 13 13 12 11 11 9 8 6 5 6 8 9 11 12 12 13 16 18
7 6 9 9 9 7 9 8 5 8 9 13 14 10 10 19 18 17 14 10 9 12 12 14 12 10 11 11 10 9 8 8 8 8 10 9 11 12 12 12 12 15 18 19
8 6 8 9 10 10 12 9 5 10 12 13 11 7 11 13 22 21 19 18 15 15 14 13 10 10 5 5 9 11 13 12 13 13 14 15 14 14 14 16 16 18 19 21
5 4 4 8 10 11 7 3 5 7 11 9 10 5 11 12 16 20 22 22 19 18 16 13 9 4 7 7 6 7 9 12 14 14 15 18 19 18 17 20 20 19 20 22
15 13 10 7 13 11 9 7 8 11 7 3 7 7 8 11 13 14 16 21 21 17 17 16 14 14 13 13 12 13 13 12 15 15 17 19 22 23 24 24 22 21 22 24
20 17 17 12 10 9 9 6 3 2 1 4 5 6 15 18 15 10 10 13 16 19 18 19 19 15 12 12 11 13 15 14 14 18 17 19 22 20 21 22 23 21 25 26
17 11 11 7 13 7 11 6 5 2 2 3 5 6 9 11 12 11 8 10 13 16 19 19 16 17 15 14 14 17 12 12 14 17 17 20 18 21 21 24 24 23 27 27
10 11 7 8 8 11 12 7 6 4 4 1 5 10 13 9 8 8 2 3 6 8 12 16 12 14 15 14 12 16 13 14 16 18 19 18 20 20 19 26 28 28 30 33
15 8 9 6 12 8 9 6 3 3 2 3 4 5 7 10 4 5 4 7 9 6 5 9 9 9 10 14 16 17 17 19 19 20 20 19 20 20 21 23 24 27 25 26
26 20 15 10 13 11 13 14 11 9 4 4 1 4 6 6 1 5 6 6 6 5 8 10 10 9 9 11 13 13 12 14 15 16 18 19 19 19 20 23 23 25 26 27
24 13 23 24 17 18 17 16 19 16 6 7 6 17 17 13 14 12 7 5 4 3 1 5 4 2 3 4 4 6 10 12 12 15 17 19 19 19 21 21 25 24 24 30
25 21 19 14 19 23 23 21 18 19 17 14 6 12 3 7 10 10 6 10 9 6 4 4 5 6 9 8 10 14 16 20 20 20 21 21 21 24 23 24 27 28 30 34
25 28 25 23 24 18 19 21 19 17 14 16 21 26 22 19 17 15 16 17 15 14 12 10 10 10 12 17 17 20 22 23 26 26 27 26 27 25 28 29 30 29 34 40
28 27 27 26 23 20 18 21 25 27 23 21 22 23 20 18 18 17 14 15 17 17 17 17 14 16 17 19 20 21 24 28 27 26 25 28 27 28 30 32 33 37 37 37
27 21 22 22 22 20 18 19 16 14 17 21 21 24 18 16 16 18 18 16 15 18 20 19 19 19 19 20 22 24 25 27 28 25 25 26 27 30 33 32 39 38 40 44
28 28 23 23 20 19 22 24 24 25 28 28 28 28 25 24 21 19 17 18 19 20 19 18 17 17 21 22 21 21 19 20 21 23 26 26 28 32 33 37 38 39 45 44
33 31 25 18 17 4 26 27 26 31 33 32 33 35 33 34 31 24 22 21 18 16 15 15 18 21 23 21 21 22 22 22 24 25 24 25 29 32 36 40 44 45 42 30
32 28 24 15 18 23 20 26 23 16 20 22 26 27 28 28 25 21 19 17 15 14 17 20 21 22 22 23 23 23 25 24 22 23 25 27 30 33 36 44 45 34 39 39
29 29 31 16 7 8 26 19 22 22 31 25 17 16 15 19 20 18 14 12 14 16 18 19 21 22 23 23 23 22 23 23 24 23 25 28 30 35 32 31 40 41 35 34
29 27 27 26 17 17 20 15 14 17 26 17 16 16 16 19 17 16 14 12 15 19 21 21 21 21 22 23 25 27 26 26 24 25 29 31 30 30 35 35 34 33 35 36
34 31 26 26 18 15 23 22 27 26 19 17 19 16 21 19 17 15 15 17 20 21 20 21 22 23 25 28 29 27 26 28 31 31 30 30 33 35 31 31 34 34 36 39
34 35 32 28 28 27 18 15 15 19 22 18 13 12 18 18 16 16 18 20 20 20 21 22 24 26 28 30 27 28 29 31 34 33 28 27 27 29 32 32 34 37 40 44
35 30 34 30 30 30 29 25 24 20 16 17 12 12 14 15 16 18 20 20 21 23 24 24 27 28 29 27 27 29 34 27 23 24 26 27 28 29 32 35 38 42 45 48
33 32 32 33 34 34 26 22 19 18 16 16 15 14 15 16 18 20 21 23 24 25 25 26 28 28 26 28 29 27 23 23 24 24 26 28 30 33 36 38 41 44 47 50
32 31 30 32 29 27 20 15 17 18 17 16 16 17 17 19 21 23 25 26 27 26 27 28 28 27 29 27 23 22 23 23 24 26 28 31 34 37 40 43 45 47 49 52

GFSCGP_700_spd_054.txt.gz
Wind_Speed
13 9 11 8 9 12 8 9 8 5 7 6 5 7 8 6 5 6 6 6 6 9 12 13 12 13 14 15 15 15 16 17 17 17 17 16 16 17 18 19 20 19 19 18
12 12 9 8 7 7 8 10 10 9 10 10 8 9 12 4 3 2 4 3 9 16 15 15 16 16 16 15 15 16 15 15 15 14 14 14 14 14 16 18 17 22 20 18
14 7 9 9 9 10 9 11 8 8 8 11 12 13 3 6 8 9 8 8 10 12 15 17 17 16 17 18 17 16 15 15 15 15 15 15 16 16 16 18 20 22 21 20
16 15 15 12 13 13 12 9 9 8 9 12 5 7 6 6 6 8 12 15 14 13 13 17 18 17 16 16 18 19 19 18 17 17 17 17 18 16 14 16 19 20 21 23
16 13 12 9 10 12 10 7 5 8 12 9 8 10 6 6 7 7 9 15 18 18 17 17 16 15 15 18 18 18 18 18 18 19 19 19 20 19 21 20 22 22 24 25
16 14 10 8 5 8 10 6 5 7 9 12 13 11 6 6 6 7 9 11 15 22 21 20 17 18 19 18 18 18 18 17 17 18 19 18 20 21 23 23 25 25 27 27
22 19 14 12 8 9 11 9 9 7 8 8 5 9 14 9 8 9 14 17 17 19 25 25 26 23 21 21 21 20 19 18 16 14 16 19 21 21 23 25 25 28 26 27
24 18 20 15 14 11 15 15 9 5 4 2 5 7 4 6 10 10 9 13 18 20 22 27 29 27 25 22 21 20 18 18 18 16 17 21 21 22 25 28 28 24 26 32
24 19 11 16 14 12 13 16 12 5 6 5 8 8 9 2 6 6 5 7 9 14 19 24 26 29 29 27 23 21 20 20 19 18 20 22 23 25 25 27 28 30 30 28
10 13 16 14 14 15 11 14 10 10 5 6 4 7 3 1 1 2 4 2 6 11 16 22 28 28 28 27 26 24 23 24 23 25 23 22 23 24 28 29 27 27 29 34
18 14 10 15 16 13 15 14 11 7 6 4 4 5 6 6 5 8 6 8 5 3 9 15 20 25 29 27 27 25 25 26 27 25 25 25 27 26 26 27 29 36 35 26
28 15 16 15 13 15 14 13 14 13 8 8 6 14 12 15 11 8 7 7 2 2 3 9 14 17 21 21 26 26 27 27 25 25 22 21 22 23 25 25 25 26 26 19
31 19 17 14 16 20 16 17 16 15 16 15 10 9 5 9 6 8 9 10 8 7 6 6 9 11 11 11 13 15 17 19 18 17 19 20 23 24 25 26 26 29 25 28
27 26 25 22 19 17 17 19 20 20 15 17 19 17 13 13 14 12 15 14 15 11 11 12 14 13 12 12 14 15 15 16 18 21 22 24 27 28 28 28 27 27 29 29
32 27 27 26 21 20 20 19 19 22 20 20 19 21 18 15 15 14 11 16 19 17 17 18 19 19 18 18 18 19 19 19 22 24 26 28 30 31 30 29 28 29 28 31
28 20 18 19 19 22 25 23 23 24 22 22 21 23 18 15 16 16 15 15 19 21 20 18 22 24 22 22 22 23 23 25 27 27 29 30 30 31 30 28 27 31 31 30
24 26 19 22 18 17 18 29 22 23 24 22 22 21 18 19 22 22 22 20 20 18 19 18 20 26 27 26 26 23 22 23 25 26 27 27 27 28 29 32 32 27 29 31
13 23 19 17 13 7 21 17 19 25 23 20 23 25 24 25 27 28 26 25 25 25 24 24 24 24 22 20 19 20 22 24 25 25 24 26 28 29 30 31 30 30 30 22
19 19 11 11 17 17 15 21 21 22 23 19 24 26 26 29 25 25 27 27 26 25 25 24 21 18 17 17 20 22 23 24 23 22 23 25 26 28 30 29 29 26 22 24
24 24 19 12 10 8 20 18 19 19 30 19 17 16 21 24 27 24 21 22 23 24 24 21 18 17 18 19 21 22 21 20 21 22 23 23 24 24 23 25 22 22 23 25
22 26 26 24 14 14 16 16 16 16 33 16 18 20 19 19 21 22 15 19 23 24 22 19 18 17 18 19 19 19 19 20 21 22 22 22 23 22 20 19 20 20 22 23
17 16 21 19 14 17 20 23 26 28 22 21 20 19 18 18 19 19 18 20 24 22 20 19 18 18 18 18 18 19 20 20 22 22 23 23 20 18 19 19 20 22 24 27
23 27 19 22 21 27 22 18 20 22 22 24 23 20 20 19 21 21 21 25 25 22 20 19 18 18 17 18 18 19 21 23 24 22 20 18 19 19 20 21 23 26 29 31
30 32 34 25 30 28 29 30 29 28 28 27 25 22 21 20 21 23 25 25 23 21 19 18 18 18 18 19 20 22 23 25 23 22 19 20 19 20 22 23 26 29 31 32
30 28 37 43 37 27 27 29 28 26 24 23 25 22 20 21 22 25 26 25 24 21 19 19 19 20 20 21 24 25 25 25 23 20 20 20 20 22 24 26 28 30 32 34
35 34 31 42 36 30 26 28 24 26 24 24 23 22 21 23 25 28 28 27 25 23 22 22 22 22 24 25 26 25 25 24 21 20 20 21 22 24 26 28 31 30 33 36

GFSCGP_700_spd_057.txt.gz
Wind_Speed
14 14 17 14 13 15 13 13 12 6 6 7 7 8 5 10 9 10 11 7 9 11 11 8 9 11 13 14 13 12 13 15 17 19 19 19 20 21 21 21 21 20 18 20
16 20 14 13 12 10 11 13 14 7 7 8 10 14 9 9 11 12 12 6 8 15 13 12 12 13 13 14 15 15 15 14 14 16 17 18 19 19 18 19 19 19 21 24
21 10 13 11 11 10 11 15 13 11 8 11 14 18 6 10 11 13 13 12 10 9 11 16 17 16 16 16 16 15 13 13 13 14 15 15 16 17 18 19 19 21 20 25
21 17 11 13 13 12 14 14 15 10 12 16 7 11 10 14 12 15 15 16 16 12 10 13 16 17 17 16 16 16 16 17 17 17 18 17 16 16 15 16 18 19 23 28
23 19 18 18 16 13 14 8 10 13 17 17 16 11 11 11 12 15 16 18 18 19 15 14 15 15 15 18 18 18 18 18 18 18 18 17 18 17 19 21 21 21 24 27
23 16 16 16 12 12 12 10 11 12 14 16 17 18 3 18 10 8 9 15 20 21 22 19 17 18 18 19 21 21 21 20 20 19 18 18 18 19 21 25 22 25 28 29
24 21 18 15 12 10 14 14 13 8 12 11 9 10 12 6 5 7 9 10 15 22 24 24 25 23 23 23 21 20 21 20 19 18 18 17 18 19 20 25 21 26 28 30
27 27 25 18 20 14 15 19 11 6 6 5 7 8 10 4 4 7 9 11 15 17 24 27 28 26 25 24 23 23 21 20 20 21 21 19 19 19 21 25 28 29 29 32
27 28 17 26 19 17 16 21 20 16 9 9 10 8 9 7 4 4 5 7 8 15 20 24 28 29 29 28 27 25 24 22 23 21 25 27 16 20 21 25 28 29 30 31
17 20 19 18 18 18 20 15 17 15 4 10 13 11 4 6 5 3 2 0 2 5 10 16 23 28 28 28 30 29 27 25 25 24 24 23 22 24 24 24 26 28 30 33
26 19 18 16 21 21 17 15 18 16 21 4 6 7 2 6 4 4 6 3 2 3 6 13 14 24 26 26 27 32 29 28 28 28 27 27 27 26 28 30 29 29 31 31
32 20 18 22 19 21 16 20 22 20 16 16 14 19 3 7 10 10 9 8 6 6 5 7 13 16 19 27 31 29 26 27 26 26 28 31 28 27 28 28 27 27 29 29
33 30 22 21 18 17 21 20 19 21 17 14 6 13 5 8 9 8 8 10 9 9 8 7 9 15 17 17 18 20 22 23 24 27 31 26 23 23 25 26 28 28 29 31
34 29 32 23 27 21 24 22 22 21 18 18 22 21 16 13 14 15 15 12 14 14 11 8 11 12 14 15 17 19 20 22 25 23 21 23 24 25 27 30 31 31 31 30
29 37 29 29 24 20 21 27 26 27 25 25 21 21 17 16 18 15 15 13 13 18 17 14 13 19 20 20 22 17 20 21 21 21 21 23 25 28 31 33 34 32 33 32
27 28 29 32 27 25 24 24 25 26 24 26 26 26 18 19 18 17 15 18 17 17 20 22 22 27 26 27 26 25 22 23 25 24 25 29 30 32 33 32 32 30 30 29
23 26 27 27 23 25 26 26 26 26 25 24 26 23 18 16 17 18 17 19 23 22 21 22 27 27 27 30 29 27 28 27 29 30 28 28 29 28 28 28 30 31 34 34
14 21 27 20 21 14 22 20 23 27 26 24 24 22 21 19 20 19 21 23 29 29 28 27 24 24 25 28 31 31 28 25 24 25 27 28 28 27 29 31 32 33 35 34
12 15 19 21 23 19 22 21 19 21 22 22 24 22 21 21 23 30 29 28 28 28 28 29 28 26 26 26 24 23 22 23 24 26 27 26 27 27 30 31 32 31 29 28
18 18 23 14 20 19 28 23 16 17 25 19 20 20 19 17 23 21 22 22 24 26 28 28 26 25 25 23 22 22 23 23 24 25 25 25 26 27 27 27 27 26 24 24
21 23 27 25 15 17 18 18 19 18 31 14 15 16 16 17 17 22 23 23 22 22 23 26 26 25 23 22 21 22 23 24 24 24 25 25 26 26 27 25 23 23 22 23
24 15 19 23 23 20 18 20 23 25 15 16 16 16 19 22 23 21 22 22 21 21 24 28 26 24 22 22 22 23 23 23 23 24 25 25 26 26 24 23 22 22 22 23
29 23 18 21 17 23 19 25 21 21 19 19 20 18 22 26 23 23 25 24 23 24 26 28 27 24 22 22 23 23 23 23 25 25 26 26 25 23 22 22 22 23 24 26
23 17 32 28 29 21 16 19 20 25 21 21 25 24 25 26 25 25 25 25 25 27 28 29 27 25 23 23 24 25 25 26 26 26 26 25 23 23 23 23 23 25 26 29
25 18 30 28 25 22 26 31 30 22 24 22 23 23 22 26 26 24 25 26 27 28 30 29 27 25 25 26 26 26 27 28 29 28 27 25 24 24 24 24 26 27 28 30
25 25 29 27 22 25 30 24 32 28 24 24 24 23 25 26 26 25 26 28 29 30 31 31 30 28 27 28 28 29 29 31 30 29 28 26 25 24 25 26 27 27 30 30

GFSCGP_700_spd_060.txt.gz
Wind_Speed
17 17 21 17 20 24 18 17 19 11 12 9 7 10 5 6 14 9 9 6 7 6 7 4 5 5 6 8 11 15 17 20 22 23 22 25 24 23 23 23 24 23 19 21
18 27 20 18 17 14 14 16 17 12 6 9 11 13 12 9 5 14 12 10 7 11 11 9 6 5 8 8 9 12 13 14 16 17 18 17 17 18 19 20 20 19 19 19
26 21 21 18 17 13 15 16 19 14 11 16 13 16 12 3 8 11 12 11 6 16 9 11 11 9 9 12 11 11 12 14 16 17 17 18 20 21 20 19 19 19 18 21
26 23 14 16 16 14 19 13 16 15 13 15 5 9 13 14 16 16 17 17 13 10 10 9 13 12 10 10 12 12 13 13 13 12 14 16 15 15 14 16 17 17 17 19
28 26 24 20 19 14 17 10 9 11 14 19 21 6 12 12 17 22 17 18 20 13 10 9 11 12 14 14 13 14 15 14 12 13 13 13 15 13 14 15 16 16 13 18
26 23 22 24 18 17 15 15 13 14 14 15 22 15 15 7 12 11 16 14 19 20 15 14 13 16 16 17 17 16 14 13 13 14 15 16 19 18 17 17 19 19 16 22
29 28 24 19 20 14 13 14 13 2 9 10 19 18 13 12 11 15 10 15 19 22 22 20 19 21 20 20 20 19 18 17 17 17 18 17 17 19 19 19 25 22 18 23
30 27 28 23 21 19 16 19 15 6 4 9 7 6 11 7 6 9 9 11 11 16 26 26 25 25 25 24 22 21 20 20 21 21 23 23 19 19 22 25 22 22 25 23
31 32 23 27 21 23 20 22 19 16 5 8 11 11 11 14 8 8 6 8 10 15 19 24 27 28 27 25 26 25 23 22 22 19 22 24 28 24 15 19 20 23 24 28
28 23 27 34 27 23 24 20 16 16 4 4 12 16 9 10 9 7 7 7 7 11 13 22 24 29 29 28 26 26 26 26 25 26 27 26 26 22 21 23 22 22 24 26
35 29 19 26 30 26 23 25 17 19 21 5 4 1 21 2 10 8 6 4 4 6 8 18 23 24 29 30 29 28 29 30 30 29 31 30 29 22 24 22 24 26 26 29
42 18 26 26 23 22 28 22 26 21 12 18 13 5 10 5 5 8 8 9 8 5 6 7 9 19 23 28 28 31 29 31 33 30 32 30 29 23 23 21 24 26 26 28
38 37 22 22 25 24 26 25 24 24 21 22 7 10 7 8 8 11 9 11 13 9 9 10 10 11 19 27 26 28 26 33 30 28 27 27 21 23 22 23 22 24 27 29
37 34 29 19 28 25 24 24 26 28 21 17 18 15 17 14 12 11 13 14 13 13 12 11 11 12 14 19 29 34 36 30 25 25 24 21 22 21 21 22 24 26 29 31
31 34 37 32 28 27 26 27 27 30 27 23 26 22 19 17 15 16 9 13 17 16 13 13 16 14 15 18 20 20 20 19 17 18 20 19 21 21 23 25 28 31 33 33
31 29 32 37 30 35 25 29 31 27 29 26 25 26 21 19 14 15 11 14 15 16 16 17 17 21 21 22 22 22 23 22 23 22 22 22 24 27 28 30 32 33 33 33
24 25 28 34 32 30 36 32 28 25 30 27 28 24 22 19 18 15 18 16 18 16 17 18 21 24 29 29 24 25 28 27 25 25 25 28 30 32 32 32 33 32 31 31
22 22 31 21 26 23 30 30 30 27 25 24 24 23 21 20 18 16 16 15 21 25 24 23 28 31 31 31 32 27 31 30 30 31 32 32 28 28 30 30 29 29 30 32
22 13 19 18 27 26 23 22 19 21 27 26 27 25 22 21 19 18 19 19 26 33 35 30 32 35 34 29 28 26 29 32 31 27 26 26 28 28 27 26 28 30 31 32
30 9 15 11 9 14 25 25 24 25 28 24 21 21 22 21 19 18 20 22 27 27 25 27 29 31 31 29 28 26 25 24 24 24 25 26 26 25 26 28 29 31 31 29
23 30 18 16 13 17 21 27 24 27 27 17 20 22 23 23 20 22 21 21 21 25 26 25 27 28 28 28 26 25 25 24 24 25 25 25 25 27 27 29 30 31 29 28
23 23 24 13 9 18 11 24 31 30 27 26 14 16 15 18 20 21 21 22 22 24 25 25 25 25 26 27 27 26 24 25 25 25 26 26 27 28 29 29 30 29 28 28
26 28 23 19 23 17 15 26 18 22 18 19 13 20 17 23 25 22 22 24 25 26 25 26 26 26 27 29 27 26 26 26 27 28 27 27 28 29 30 29 29 28 26 27
20 24 22 18 23 27 16 16 18 23 22 24 21 13 19 26 26 23 22 25 25 25 27 27 28 28 30 31 30 29 28 28 28 28 28 29 30 31 31 29 28 26 25 26
27 14 23 24 26 22 19 19 23 23 25 23 23 22 23 26 24 23 24 25 25 25 27 29 30 32 33 33 32 30 29 29 30 31 32 32 32 31 32 28 27 26 26 27
24 22 22 22 22 22 26 26 27 27 32 30 32 32 24 25 23 24 26 26 25 26 28 32 34 36 37 36 33 32 32 33 34 33 33 33 33 33 31 28 29 27 26 27

GFSCGP_700_spd_063.txt.gz
Wind_Speed
18 23 29 22 20 19 19 25 18 17 17 14 14 20 10 14 11 8 10 18 13 11 5 4 5 7 7 11 14 18 22 28 31 29 30 32 33 36 37 35 29 27 25 21
20 29 25 18 15 22 28 17 17 17 8 6 13 16 14 18 7 4 9 11 9 6 2 4 8 9 9 10 12 12 15 19 24 25 24 22 25 25 24 24 24 24 22 18
28 24 18 17 15 20 24 18 16 18 15 16 16 21 15 13 5 10 10 13 11 7 2 2 8 8 8 10 11 14 15 15 18 21 20 20 21 21 21 21 20 20 19 19
30 25 22 25 27 19 18 17 18 18 15 11 12 13 12 10 14 16 17 18 12 9 5 6 7 8 8 10 11 11 11 14 16 16 18 17 15 15 13 14 16 17 19 18
34 26 28 25 22 18 20 15 13 14 15 16 18 12 12 14 17 22 22 16 15 14 11 8 8 10 10 9 9 10 10 11 12 12 13 12 16 15 14 15 16 17 15 17
28 25 28 27 23 21 20 19 17 11 16 15 23 18 22 14 16 22 22 22 19 17 15 10 10 11 14 15 14 13 13 12 12 13 13 11 11 13 14 15 16 14 13 16
33 35 27 25 23 21 17 22 7 4 4 7 8 13 21 25 22 23 18 27 24 15 13 14 15 17 17 17 17 17 16 14 14 16 14 13 13 12 12 14 15 16 17 13
31 30 35 24 28 21 24 18 12 5 4 5 9 7 8 11 7 13 14 17 22 19 13 16 11 15 19 19 19 20 19 19 20 20 18 17 15 14 13 13 21 17 17 15
28 37 22 32 21 27 19 23 22 21 5 1 7 19 13 11 11 11 11 13 13 19 20 18 17 17 17 19 25 24 22 23 24 22 21 20 18 18 13 22 23 27 23 20
32 25 34 28 28 24 30 25 17 20 5 4 8 18 7 8 14 10 10 13 12 15 21 22 24 21 20 19 18 22 27 27 25 25 25 24 24 23 25 22 27 27 32 15
42 29 19 28 35 33 30 27 25 17 20 5 1 4 4 22 17 9 15 14 16 20 21 15 19 23 27 24 24 22 21 28 29 29 30 30 30 25 31 31 28 10 13 12
44 34 35 33 22 27 40 35 28 23 12 16 11 9 1 11 14 15 12 11 13 15 13 15 17 19 28 30 29 28 27 25 27 29 31 36 32 24 30 31 14 19 16 16
42 45 24 17 32 22 43 32 25 28 29 26 10 6 13 13 10 12 18 17 18 19 18 14 13 23 27 27 28 32 34 28 34 35 24 23 27 16 18 18 14 17 17 17
43 40 45 27 17 25 25 32 29 29 27 22 26 23 22 18 22 18 18 15 18 19 19 14 14 16 18 29 26 33 33 25 15 15 20 19 20 18 18 17 16 18 20 23
34 48 42 38 30 23 33 26 32 35 34 29 28 21 20 17 21 16 17 12 22 17 17 19 20 14 16 17 22 30 31 24 19 20 19 18 18 18 18 18 20 23 26 28
24 28 41 47 33 34 24 30 33 29 31 31 29 28 26 15 22 23 18 20 21 26 24 21 22 22 18 16 18 20 20 23 23 22 20 20 20 21 21 22 25 28 30 30
14 34 28 35 38 31 35 36 34 33 24 30 29 27 22 22 23 21 13 19 20 20 25 23 22 26 26 23 22 24 23 24 24 24 25 26 25 25 25 28 30 31 30 31
32 23 32 25 27 14 24 33 24 26 30 28 27 18 16 21 21 26 21 21 19 21 22 24 26 28 28 29 29 23 23 28 30 31 30 28 28 28 31 32 28 30 30 29
20 32 18 23 29 20 42 25 23 25 29 26 29 25 21 16 19 25 20 18 21 23 23 25 28 33 34 34 35 33 28 29 32 32 33 31 32 33 30 28 30 29 28 28
21 30 33 9 6 15 19 30 27 21 29 21 18 20 18 20 32 26 24 20 21 23 24 27 30 33 35 34 32 32 33 29 30 30 33 30 28 27 28 29 29 27 27 28
9 4 11 8 5 15 4 22 27 21 21 23 19 22 22 25 24 23 25 24 21 22 23 26 28 29 31 30 30 30 30 27 27 26 26 26 26 27 28 28 28 28 28 29
17 11 10 14 8 9 12 17 24 40 23 25 23 20 17 19 14 14 19 26 23 22 24 24 26 28 29 28 27 26 25 24 25 25 24 25 27 28 28 28 29 29 30 30
21 20 15 11 19 17 19 11 16 22 26 19 20 29 36 23 13 22 23 21 23 23 24 25 24 26 27 26 25 25 25 26 26 25 25 26 27 28 29 30 30 30 30 30
31 17 20 12 19 20 18 22 20 28 21 18 14 18 23 20 25 24 27 23 24 24 25 24 24 24 27 27 26 27 29 29 27 27 27 29 30 30 30 31 31 31 31 32
31 25 18 21 26 16 16 16 22 25 29 23 16 13 16 21 24 23 25 25 25 25 25 25 25 24 27 29 30 31 32 32 31 31 31 32 33 34 33 32 32 31 33 33
24 32 24 27 21 16 16 13 13 17 14 16 22 23 27 33 31 32 31 27 26 25 26 26 25 26 29 32 33 35 37 37 36 35 35 36 37 37 37 35 35 35 33 32

GFSCGP_700_spd_066.txt.gz
Wind_Speed
23 28 36 30 23 22 25 22 22 19 20 20 11 15 13 17 15 21 12 11 4 6 6 4 3 1 1 6 13 14 18 20 20 17 23 32 33 27 23 29 32 41 36 35
22 37 30 24 20 22 23 24 23 20 20 8 10 19 18 16 15 13 14 10 4 3 6 8 7 6 3 4 10 15 20 18 19 20 21 26 23 25 29 34 39 41 35 31
35 26 19 22 21 23 22 23 20 22 17 22 19 20 18 13 13 17 14 10 11 3 3 8 9 9 7 6 8 12 16 18 22 23 23 25 27 31 34 37 36 34 31 31
33 28 25 14 22 21 25 13 17 19 17 9 12 12 16 10 12 19 17 15 10 6 3 8 13 11 11 10 9 12 13 14 16 19 22 22 19 20 20 26 28 28 28 25
34 31 28 29 26 19 25 18 19 16 18 20 20 13 16 15 16 21 25 20 17 11 8 6 10 11 13 14 11 12 14 15 15 15 17 18 18 17 17 21 23 23 24 24
30 29 23 25 23 20 16 19 19 18 17 12 23 19 21 21 21 18 24 25 21 14 10 13 11 16 17 16 18 16 15 13 12 13 14 16 17 20 21 23 22 22 21 19
32 34 30 25 25 21 23 25 8 5 4 8 18 12 20 17 19 26 24 26 24 17 12 15 18 21 23 22 21 20 19 18 16 16 16 16 16 16 17 19 19 18 15 17
30 21 37 29 34 28 21 27 15 5 4 7 11 8 8 9 11 18 27 24 22 22 22 15 16 16 19 20 21 21 21 20 20 19 19 18 17 18 16 16 16 16 17 17
15 26 29 37 27 22 25 26 27 23 5 2 8 22 26 16 14 13 23 22 22 25 29 22 16 15 17 18 20 23 21 20 22 21 21 20 20 20 18 17 19 18 18 19
30 10 16 27 25 29 24 26 19 9 3 4 8 17 17 8 15 12 17 16 18 17 23 24 23 20 19 19 15 15 20 25 22 23 23 22 23 23 23 24 22 25 25 24
45 36 26 14 39 28 33 30 21 17 15 5 2 7 6 8 18 18 13 16 17 16 18 24 27 24 23 23 22 19 19 20 22 24 25 26 27 28 28 33 33 34 41 20
38 30 39 43 17 31 32 34 35 26 10 15 19 23 20 8 14 24 18 19 16 17 18 19 22 23 23 26 28 29 27 25 23 22 22 25 29 29 29 35 37 32 12 12
19 33 23 28 43 35 31 25 37 39 30 33 13 9 11 10 17 18 16 18 19 19 21 18 18 21 26 23 24 29 31 31 30 31 19 31 34 33 29 19 20 10 10 13
15 23 37 32 28 27 31 33 32 45 33 27 33 31 29 22 19 22 20 18 19 23 23 20 19 20 19 21 23 26 25 28 26 29 24 18 12 16 21 17 15 14 16 18
20 26 34 40 36 30 27 29 33 41 40 28 29 30 23 26 25 27 24 19 26 24 21 22 21 20 19 21 17 17 21 22 21 22 23 18 15 15 16 20 17 17 19 21
16 18 21 37 30 37 39 35 33 32 32 33 31 36 30 27 29 26 27 28 27 24 26 28 24 25 24 21 18 18 17 20 21 25 26 23 19 16 19 20 19 20 21 22
25 12 9 30 25 36 33 51 38 36 33 25 24 30 28 30 25 27 28 27 28 25 26 27 27 25 22 23 20 21 20 21 25 25 26 24 22 22 24 23 24 24 24 26
22 30 18 17 21 13 46 42 45 32 36 33 32 28 21 22 26 32 25 28 29 27 24 27 27 24 24 25 26 25 26 25 23 25 26 27 27 28 28 27 26 28 30 30
22 21 15 11 19 21 23 18 26 42 34 25 30 28 21 22 22 21 23 24 24 24 24 24 23 25 26 27 29 30 29 30 29 28 27 28 31 33 32 31 32 32 29 30
18 20 20 26 13 13 26 25 20 17 27 28 20 23 14 20 26 28 26 20 21 21 22 21 23 24 27 30 32 32 33 33 32 31 34 34 31 31 33 33 29 29 30 31
8 10 21 23 21 22 12 14 26 25 27 25 21 28 20 28 28 22 20 17 21 20 22 26 25 23 23 26 29 29 32 34 32 32 33 33 32 31 29 26 28 30 30 30
9 7 6 3 9 8 12 11 12 19 28 30 21 20 23 22 15 17 17 18 22 19 23 24 23 22 24 25 27 28 31 32 32 31 31 30 28 26 26 28 29 30 30 29
24 13 8 5 17 10 11 21 17 11 7 29 29 25 20 14 24 16 14 18 15 16 19 20 22 22 25 26 26 28 29 29 28 27 28 28 28 28 30 30 31 31 31 32
33 33 31 25 27 14 6 11 21 28 18 22 21 24 21 12 8 18 23 23 20 17 20 21 23 23 23 21 21 24 26 26 25 27 29 31 32 32 33 32 33 33 33 35
26 27 36 41 33 22 18 17 19 16 22 16 27 27 24 14 11 15 15 17 21 23 23 25 24 25 24 22 21 22 23 24 27 31 34 35 36 36 35 35 35 36 36 36
29 24 23 35 27 29 26 28 21 8 11 17 23 34 19 12 21 21 22 22 25 29 27 28 29 28 27 25 24 24 25 28 31 35 37 39 39 39 39 39 38 38 37 36

GFSCGP_700_spd_069.txt.gz
Wind_Speed
27 30 39 35 31 27 22 20 21 12 8 15 19 15 12 12 16 18 15 13 6 10 14 9 6 4 5 9 12 18 17 16 18 18 23 28 24 40 45 45 38 38 36 37
28 38 34 30 28 25 24 24 24 17 12 17 12 15 17 17 18 16 13 12 6 8 10 9 7 5 3 5 8 13 17 19 20 18 19 21 27 35 40 39 42 44 44 43
39 28 28 33 29 28 28 25 19 17 15 19 16 20 18 17 18 16 17 11 11 7 8 7 6 6 2 3 5 9 16 18 13 11 16 26 27 32 31 27 39 40 43 39
34 39 13 10 27 27 30 23 19 18 17 21 11 7 15 17 17 18 19 14 12 9 8 6 6 5 4 4 5 6 9 15 16 17 19 24 27 30 30 27 34 32 39 37
33 35 39 36 28 19 29 16 18 20 26 23 20 12 20 11 18 21 21 17 17 14 10 7 5 8 9 7 5 6 7 9 12 12 13 13 16 19 22 26 30 34 36 36
28 30 27 27 25 26 17 17 19 22 19 12 20 18 16 18 27 29 26 22 17 19 14 12 10 14 14 12 11 9 8 8 9 10 11 12 14 17 19 20 21 24 27 29
32 35 31 28 20 20 21 21 4 5 5 9 18 13 22 18 12 17 28 24 21 18 18 12 18 16 16 15 14 13 12 11 11 10 10 10 13 17 18 20 22 25 26 26
29 19 39 31 36 25 24 27 13 6 3 6 13 7 8 8 8 16 21 23 23 21 17 14 14 15 16 16 18 17 16 15 13 13 11 11 13 15 17 19 21 23 24 24
14 21 29 32 32 31 31 30 24 31 11 3 11 19 25 24 17 20 18 18 20 16 17 18 15 13 15 15 16 18 19 20 17 15 14 15 15 15 17 18 19 20 25 26
23 7 9 17 17 33 30 21 16 14 5 4 5 8 16 15 9 11 18 14 15 14 16 20 22 20 15 14 18 19 22 25 24 22 22 21 21 22 23 24 24 28 30 30
43 32 21 23 19 25 31 37 30 22 22 6 2 7 10 4 4 12 13 15 13 15 15 15 18 19 20 20 22 24 21 21 29 31 30 28 27 27 27 27 29 32 34 33
27 16 34 49 35 24 30 32 34 21 6 15 18 24 20 9 7 10 14 16 13 13 15 13 11 16 22 26 27 29 29 25 23 23 27 31 31 31 34 31 35 33 33 19
2 9 25 28 26 37 36 24 32 31 32 33 15 12 12 18 13 12 22 21 17 17 14 14 16 15 11 17 21 22 25 28 28 24 24 26 23 16 30 41 36 29 20 15
12 16 14 14 18 15 23 34 30 31 36 26 39 35 33 34 33 19 19 22 18 21 21 18 18 17 15 14 16 18 18 21 23 25 23 26 25 20 24 30 33 21 24 30
11 18 23 28 23 28 30 30 29 39 39 33 35 41 42 34 29 27 22 26 22 22 20 20 22 18 18 15 14 15 16 14 16 21 22 22 21 18 19 17 16 18 21 24
18 22 22 24 20 20 34 36 37 35 35 30 38 40 31 29 28 26 25 29 31 23 21 24 24 25 23 20 16 16 18 17 15 14 18 20 22 20 18 18 18 21 23 24
16 17 18 8 6 16 22 48 39 42 39 29 32 33 32 32 31 33 26 25 34 30 30 29 26 28 25 24 15 15 15 16 17 16 20 23 24 23 23 23 22 24 23 25
12 13 14 16 20 5 19 19 32 39 39 43 34 28 26 26 26 27 29 31 28 32 28 30 21 22 25 24 21 20 20 21 21 20 19 22 25 27 26 26 28 29 28 30
19 21 10 7 8 25 46 19 14 23 42 40 44 26 30 29 33 24 21 23 30 26 29 33 27 23 24 25 23 23 24 25 25 25 23 22 24 26 27 29 32 32 32 32
18 17 17 10 4 6 39 38 14 27 38 27 36 39 26 32 34 29 22 22 23 23 25 27 29 26 24 23 24 26 27 27 28 27 27 27 28 28 29 30 30 32 33 34
12 17 22 22 10 17 25 21 20 17 22 17 12 23 31 35 32 33 28 21 22 27 25 23 26 24 24 26 27 26 26 26 26 27 30 30 29 28 28 27 27 30 31 28
13 8 11 12 10 9 14 14 13 15 20 22 15 17 21 26 34 29 25 21 20 20 23 25 27 28 23 20 21 24 25 26 26 29 30 30 28 28 28 27 29 28 28 29
17 14 5 11 8 9 12 13 18 13 10 18 28 23 21 24 21 24 19 21 21 24 24 21 19 16 16 16 18 20 21 23 27 29 29 27 27 27 26 27 27 28 29 30
24 26 33 32 33 23 19 18 14 20 17 21 26 26 16 14 27 30 22 19 20 24 16 17 17 17 18 19 20 20 22 24 26 27 27 27 26 26 27 29 31 32 33 34
20 22 25 32 34 41 37 35 24 24 22 21 24 35 26 21 18 24 25 23 19 20 19 19 19 19 21 23 24 23 24 25 27 27 28 28 28 29 31 33 34 35 36 37
27 23 25 25 25 32 26 22 23 24 22 19 14 10 17 17 29 26 22 21 19 21 22 22 23 22 24 25 25 27 26 25 26 27 28 29 31 33 35 37 38 39 40 40

GFSCGP_700_spd_072.txt.gz
Wind_Speed
34 32 38 38 31 30 19 15 16 12 11 18 16 20 11 11 16 16 16 14 9 9 12 11 9 6 7 11 15 18 23 20 20 16 14 21 21 26 30 37 33 37 42 40
35 37 35 33 27 30 28 25 26 21 15 19 15 19 17 19 22 17 15 16 10 9 7 8 7 3 4 8 11 5 17 20 18 23 16 21 30 38 38 38 38 37 39 39
39 29 31 35 30 29 31 32 25 22 17 19 19 23 19 17 17 16 14 15 14 10 8 7 5 3 2 3 5 6 6 11 16 20 16 21 32 28 35 39 40 39 35 30
28 36 28 18 30 34 30 30 25 22 22 16 16 10 21 19 23 20 15 13 14 10 9 4 4 3 3 2 4 6 6 7 7 6 13 24 25 23 25 31 25 29 27 29
23 23 36 21 20 23 28 29 19 19 20 22 28 13 23 20 24 23 17 14 16 11 11 6 3 6 7 6 5 7 9 10 10 10 9 11 18 26 25 23 21 31 30 34
30 25 20 28 32 30 24 13 15 15 18 11 25 21 15 14 18 22 23 23 18 17 14 13 10 10 10 8 8 8 10 11 11 11 13 14 15 16 19 20 22 26 28 32
30 34 27 17 17 15 20 21 3 2 5 6 7 16 26 24 22 19 9 13 19 22 19 16 14 15 11 9 8 9 9 10 11 12 13 14 14 16 16 16 17 21 24 27
28 17 36 29 31 18 22 25 9 6 3 3 7 7 6 3 10 12 17 13 16 19 19 17 15 13 14 10 9 10 10 11 10 12 13 15 17 18 20 22 23 24 25 25
16 18 22 20 27 29 23 22 28 22 12 5 13 17 20 24 18 14 16 13 13 12 16 16 15 12 10 10 10 12 13 14 14 14 14 16 17 18 19 20 22 24 25 27
18 5 8 11 15 25 31 18 16 14 4 5 4 6 12 14 11 11 11 11 10 12 14 17 18 17 14 12 12 12 14 19 20 19 18 18 18 19 19 21 23 25 23 26
32 17 18 15 10 17 24 31 24 11 16 5 3 8 10 7 1 3 7 7 7 6 10 12 16 18 19 19 18 17 19 17 19 25 25 24 23 23 23 24 26 27 26 29
12 10 24 38 15 12 6 21 33 25 9 9 15 21 13 6 7 8 8 10 12 12 11 11 12 10 13 18 20 23 23 24 20 20 20 24 27 28 28 30 29 29 31 33
2 4 6 13 15 14 23 35 23 25 30 37 15 7 9 12 17 17 12 13 18 15 14 12 11 9 10 8 13 20 21 20 20 25 25 27 26 31 28 18 32 40 36 36
13 3 4 4 9 14 17 13 23 34 31 22 40 32 31 22 23 28 23 19 18 22 18 17 15 13 11 9 6 9 11 15 18 18 23 25 24 21 23 24 23 28 30 42
16 16 15 11 14 19 22 22 26 26 33 35 33 34 31 29 28 29 25 22 21 21 20 22 22 19 15 13 11 9 8 10 12 14 19 22 22 22 25 24 22 22 24 26
12 17 17 19 18 19 22 30 27 32 31 33 38 42 34 32 29 22 21 20 21 24 27 24 22 21 20 16 17 15 9 8 10 12 12 15 20 22 24 23 21 21 21 22
11 11 11 17 18 17 22 3 8 22 32 36 39 33 22 26 29 22 24 24 25 25 29 25 27 29 24 21 19 21 15 11 11 11 12 14 16 21 24 25 23 22 23 25
18 12 13 9 5 3 15 18 14 21 20 23 34 41 40 36 26 22 22 23 28 26 30 31 32 30 27 20 20 23 22 17 17 17 16 20 22 21 23 25 27 27 27 28
21 18 6 5 7 20 29 26 26 22 33 20 27 32 37 33 34 32 24 23 21 19 20 22 27 29 32 25 24 25 26 20 21 22 21 21 25 23 22 24 27 27 30 32
24 19 21 11 5 6 9 10 14 23 39 30 26 26 27 31 40 33 30 24 26 27 23 18 24 26 32 31 28 26 26 24 24 27 23 24 29 25 23 26 27 30 33 34
19 22 28 19 7 15 24 17 12 12 23 16 15 21 17 23 34 37 32 28 28 30 25 28 26 27 28 32 30 26 24 25 29 29 27 27 26 29 30 31 32 33 35 35
9 11 12 16 9 12 1 6 5 14 19 17 22 18 10 13 19 26 29 27 24 20 25 23 27 26 28 31 27 29 28 29 29 29 28 29 30 31 33 33 32 32 31 26
22 24 15 17 15 11 9 12 18 22 25 16 20 23 13 13 10 15 22 26 30 27 25 29 22 18 15 20 21 22 25 26 27 26 27 29 30 31 30 27 31 24 25 33
19 14 23 22 29 22 19 21 33 34 30 26 20 13 24 29 25 21 21 24 20 22 25 25 22 20 16 15 16 19 23 25 22 24 25 27 28 29 29 31 27 27 31 36
14 17 24 31 29 30 25 26 31 27 29 22 22 13 20 18 20 31 28 18 25 26 26 23 16 16 19 19 19 22 24 23 27 25 24 26 27 28 29 27 26 29 33 35
20 24 27 28 26 28 27 23 24 26 21 19 16 14 15 18 19 19 35 21 18 18 20 28 29 24 27 24 25 24 22 24 28 27 26 27 26 23 22 23 27 30 32 34

GFSCGP_700_spd_075.txt.gz
Wind_Speed
32 36 38 36 34 29 24 20 20 16 10 21 20 19 15 16 13 10 9 12 11 8 11 7 7 6 6 10 14 3 19 17 16 18 24 19 27 34 38 40 50 52 51 50
34 41 32 34 26 27 27 24 28 26 23 22 22 23 16 17 17 14 12 11 14 12 11 7 6 5 3 7 11 2 20 14 18 18 13 19 26 34 36 40 42 49 47 47
36 27 34 35 32 29 31 34 31 27 25 24 23 27 19 15 18 16 13 12 13 11 11 9 5 4 2 3 6 6 14 16 18 20 20 20 25 24 35 39 41 36 37 42
24 32 21 22 34 32 30 31 27 25 23 14 10 12 19 23 24 18 17 13 10 8 11 9 5 5 5 2 2 4 6 6 13 19 26 22 26 27 30 35 37 36 36 42
20 18 32 30 19 19 25 26 21 19 21 22 18 10 13 5 17 17 12 14 12 9 10 12 7 7 6 6 6 6 7 5 6 10 13 23 21 27 33 36 36 37 34 28
24 17 15 22 28 22 11 13 6 12 12 8 19 13 19 15 14 18 12 10 19 17 13 12 13 10 9 8 8 8 9 8 5 5 9 11 24 31 32 28 28 24 27 27
29 29 28 18 17 26 22 11 4 3 5 8 10 13 23 20 20 13 8 5 10 18 15 15 16 14 9 8 9 11 11 10 9 7 8 10 14 19 24 24 24 24 25 31
24 13 33 28 26 22 27 28 9 7 5 3 7 7 7 2 6 17 17 14 12 15 14 13 15 15 11 9 10 10 12 12 11 11 9 10 11 12 15 17 19 21 22 23
16 16 21 23 32 30 18 23 27 12 5 3 6 10 11 19 14 13 11 10 10 11 14 17 17 16 12 11 10 9 10 12 13 14 14 12 13 14 15 17 20 21 23 24
11 4 8 9 17 28 26 17 13 15 6 9 6 7 11 9 18 6 10 7 9 10 12 15 18 17 14 13 12 12 12 13 15 16 16 16 16 16 17 18 18 20 22 25
21 11 7 10 14 21 27 24 16 13 17 6 5 6 8 6 4 1 7 3 3 5 12 14 18 18 17 17 17 16 15 17 16 19 19 19 19 19 21 22 22 23 25 27
9 9 19 14 10 5 19 22 30 20 8 8 10 13 10 12 6 7 7 9 5 7 10 12 15 18 19 21 22 22 22 22 19 18 16 18 21 24 23 21 22 23 28 30
3 4 4 3 13 16 18 14 17 21 23 28 13 8 8 18 17 16 15 10 11 10 13 14 15 16 13 12 15 22 26 25 23 22 21 24 23 24 25 25 32 30 29 32
5 5 6 2 3 6 8 9 11 13 17 19 26 17 19 25 27 27 24 23 18 15 11 17 17 16 12 10 11 12 16 19 21 22 21 25 28 27 25 26 28 30 28 27
12 13 10 6 5 10 13 15 18 19 18 22 20 25 23 24 24 21 21 18 22 17 14 15 20 20 16 15 13 12 8 11 15 17 17 18 23 27 25 29 26 29 35 28
11 8 9 14 13 17 20 19 19 27 28 31 27 30 25 13 18 23 22 23 24 22 16 20 24 21 19 19 17 18 15 12 14 15 14 14 17 22 23 28 27 29 28 29
11 6 9 8 9 12 16 18 4 6 8 16 22 22 23 27 23 17 14 19 26 22 21 21 27 28 23 23 20 19 19 18 15 12 12 16 18 17 18 22 26 30 30 27
17 9 7 9 5 7 13 14 14 15 16 23 23 23 22 23 31 32 26 21 23 22 24 26 28 33 33 31 26 25 24 24 21 16 16 16 19 20 21 21 25 28 30 29
22 20 10 6 12 17 14 11 16 19 23 21 25 26 28 24 24 32 28 21 25 23 20 21 25 29 32 35 32 27 28 27 28 25 22 19 20 22 24 24 24 29 31 34
20 24 19 8 4 5 7 10 5 13 24 18 19 19 23 24 20 19 28 32 25 27 27 22 24 25 27 30 35 33 32 30 30 29 25 24 24 25 28 29 28 28 30 32
21 22 26 15 9 14 18 19 17 6 11 13 15 15 18 13 11 11 17 25 30 26 29 35 27 25 25 29 31 34 37 35 31 31 29 27 30 30 33 33 30 31 33 34
13 14 17 17 9 12 6 7 1 10 12 15 11 9 19 17 11 6 15 10 18 29 32 31 31 39 30 31 34 34 38 38 30 31 31 33 33 31 32 34 35 36 38 38
14 13 10 14 12 5 7 8 18 22 23 26 22 11 19 13 16 14 12 8 11 18 21 27 23 26 27 31 30 32 36 31 37 30 32 33 32 33 34 34 36 37 40 38
13 15 21 23 26 26 23 26 29 29 31 30 29 25 20 20 10 9 18 22 22 18 19 16 26 28 24 27 32 34 29 26 26 26 28 29 34 32 30 30 32 31 30 32
12 13 20 27 26 27 25 25 29 24 25 30 32 31 23 21 11 12 15 16 21 25 26 17 16 24 27 22 22 21 24 29 32 29 28 28 29 28 29 29 29 29 27 25
20 21 23 27 27 28 28 27 29 29 27 27 22 21 22 21 18 13 17 18 17 15 30 20 18 30 20 20 20 22 26 25 24 25 25 27 30 28 30 28 27 27 26 28

GFSCGP_700_spd_078.txt.gz
Wind_Speed
35 30 34 36 33 27 22 18 19 13 11 13 17 22 21 19 21 19 18 14 13 14 15 12 12 13 12 10 13 18 5 13 12 17 15 17 23 30 28 24 27 35 38 35
25 36 32 26 25 26 26 23 24 18 13 17 19 22 20 19 21 19 18 18 13 14 17 12 11 14 11 8 10 10 9 12 13 13 17 19 27 31 29 24 30 28 33 37
29 18 33 28 24 23 27 27 24 20 12 16 20 26 23 21 21 21 23 19 17 14 15 12 10 12 9 6 5 2 8 10 16 13 19 22 28 32 33 31 33 39 41 41
22 23 22 24 29 25 29 24 23 22 17 14 6 13 10 14 19 20 19 21 19 14 14 12 10 10 10 7 3 1 5 9 13 14 20 18 25 35 32 33 32 34 44 45
16 17 29 28 25 22 27 20 18 16 19 19 21 13 12 12 13 11 13 15 18 15 13 12 12 11 11 8 6 4 5 7 8 12 16 20 24 26 33 34 37 34 33 37
25 12 15 24 19 20 8 11 9 8 9 13 22 17 17 17 15 8 9 12 14 21 16 16 17 13 10 10 8 7 6 6 6 7 12 21 25 25 32 35 41 34 34 35
23 30 16 14 21 19 19 16 8 9 8 9 6 14 20 11 13 11 10 10 10 18 24 19 17 12 11 10 10 10 8 7 7 7 7 7 19 28 27 32 33 39 36 33
32 17 34 23 19 13 26 23 9 7 8 6 7 9 9 6 8 7 12 15 16 14 23 22 21 17 14 13 14 13 11 10 8 7 6 6 7 13 23 28 29 27 30 27
22 31 13 32 28 22 18 26 24 23 14 8 10 6 10 9 9 8 8 7 12 13 20 21 21 21 18 17 15 14 14 14 12 10 9 7 7 9 11 17 23 22 22 22
7 9 19 24 21 24 21 16 13 17 8 14 10 15 11 4 11 7 4 0 7 11 15 18 22 25 21 19 19 18 17 17 15 15 13 12 11 10 11 12 13 14 15 18
10 8 3 17 22 27 28 24 18 18 24 12 10 8 7 9 7 9 4 5 4 4 11 15 18 25 25 22 21 21 20 19 19 19 18 18 16 16 17 17 16 17 19 21
13 7 11 13 7 15 21 25 25 19 15 16 17 18 4 8 5 7 6 9 4 7 5 12 17 20 21 22 22 21 21 20 19 18 19 22 22 23 23 22 20 21 22 24
3 9 11 12 12 8 12 16 18 22 25 27 14 8 7 11 18 16 14 11 9 11 9 10 16 20 23 24 25 26 26 25 26 26 24 23 26 28 30 28 27 28 29 28
3 5 7 6 5 8 7 7 8 9 13 17 23 21 17 17 18 18 18 18 15 14 13 12 16 19 22 22 19 19 23 27 30 31 30 28 28 29 29 29 32 34 33 33
9 7 7 6 4 4 7 10 11 12 12 13 17 18 18 18 18 21 24 21 22 19 13 18 17 20 22 23 22 19 21 23 26 27 29 30 28 28 32 34 32 33 35 32
12 8 8 12 12 11 15 15 15 17 19 21 21 22 20 20 20 20 23 21 23 21 19 21 21 22 24 26 24 23 21 20 17 21 23 24 26 27 29 36 36 34 35 33
10 8 8 14 9 11 16 22 20 17 11 9 10 11 8 11 14 20 24 19 20 21 19 21 24 24 27 27 25 28 26 26 24 20 20 24 25 24 24 27 31 34 36 36
13 12 10 6 5 9 10 8 10 15 11 10 14 12 14 18 20 18 19 31 29 22 20 27 28 27 26 28 33 29 30 29 28 28 26 26 24 21 21 23 25 26 30 34
22 14 8 8 16 18 17 10 10 12 10 14 12 12 12 17 18 6 19 26 35 34 27 25 28 29 29 31 32 34 35 35 32 34 32 30 27 24 22 23 24 25 27 28
19 20 17 9 8 6 1 10 14 13 9 3 5 7 9 11 10 9 13 21 27 31 32 30 32 26 21 23 30 35 38 39 38 34 37 37 34 31 29 28 29 31 32 30
20 20 24 22 11 8 7 7 13 10 2 7 8 12 13 14 13 12 11 11 14 24 36 29 30 37 32 28 29 28 35 38 41 39 36 40 41 39 33 34 35 36 34 33
15 15 15 19 13 12 9 4 8 8 9 12 15 15 17 14 15 18 18 13 12 14 21 34 34 34 36 37 37 33 30 33 40 43 46 43 41 41 41 38 38 37 36 37
9 12 11 12 12 7 9 3 12 18 21 22 21 21 21 20 19 20 23 26 19 18 17 16 21 33 35 34 34 43 40 34 36 39 44 46 42 43 45 44 39 38 38 40
11 12 13 8 9 9 12 21 21 25 26 27 27 28 29 27 25 20 18 14 14 19 20 21 18 16 28 32 33 33 34 35 41 37 40 41 40 41 46 43 37 36 37 40
12 10 10 15 15 19 17 26 24 24 25 23 23 25 26 28 31 29 21 20 18 17 18 21 24 23 21 19 21 25 33 34 32 31 32 33 34 36 38 34 33 33 36 36
12 14 15 16 19 22 24 29 28 27 30 31 27 25 23 21 19 18 21 24 24 16 19 17 15 19 25 22 17 17 21 26 29 28 29 32 35 38 40 45 41 35 33 31

GFSCGP_700_spd_081.txt.gz
Wind_Speed
32 29 36 33 35 33 25 26 22 17 11 16 19 21 22 22 22 22 18 18 18 18 16 17 16 14 16 17 15 16 20 9 11 14 18 14 24 20 20 23 28 23 22 38
29 42 33 29 29 28 30 29 27 23 17 15 20 22 22 23 25 23 22 19 20 18 18 19 16 14 15 14 12 14 10 4 11 10 14 14 16 18 27 24 26 20 20 43
36 34 32 30 30 30 30 31 28 25 18 15 19 26 26 27 26 24 21 19 19 19 20 19 16 13 13 12 10 10 7 6 9 12 15 15 15 20 27 28 21 16 18 27
28 30 25 29 36 30 29 25 26 24 22 23 20 21 20 13 17 19 20 19 19 20 20 20 16 13 11 11 10 8 6 7 9 12 12 15 15 19 26 25 23 15 18 24
24 19 28 29 30 28 32 21 23 22 22 22 26 18 21 21 23 17 17 20 21 20 21 19 16 15 13 9 10 9 6 6 8 11 12 17 16 19 27 24 24 24 21 26
21 20 16 25 24 22 20 22 16 19 20 20 26 25 23 22 18 15 14 15 15 18 20 19 18 18 15 10 9 9 7 6 6 7 10 16 17 22 26 28 23 23 27 24
33 28 25 14 18 20 23 18 12 13 15 13 16 19 24 10 7 10 13 14 14 17 19 22 23 18 16 12 10 11 10 8 7 7 6 8 14 20 23 23 28 26 28 29
18 20 28 19 19 21 22 28 15 14 11 13 23 9 19 17 13 10 10 10 14 14 16 22 25 22 15 15 14 14 13 11 9 8 6 6 7 14 21 24 29 25 21 26
7 17 20 22 28 17 20 30 26 14 16 7 12 12 6 9 10 6 7 9 14 16 16 19 28 25 21 20 17 16 16 15 12 10 9 7 7 6 10 21 23 24 24 26
16 20 17 21 22 30 20 15 16 15 6 12 14 18 13 11 12 9 3 2 5 10 14 18 25 27 25 23 20 20 20 18 16 14 12 10 9 8 8 11 12 16 20 22
24 18 9 18 27 30 28 30 20 19 23 4 3 7 7 11 7 10 6 2 3 2 7 14 20 25 27 27 24 24 23 22 20 19 17 16 14 13 13 12 12 12 16 21
20 9 18 12 23 22 26 26 27 17 14 21 18 6 9 5 7 9 3 2 2 5 2 8 14 19 22 29 25 26 25 24 22 21 20 20 20 19 18 17 16 17 17 19
4 12 18 8 14 12 24 25 28 27 22 15 3 3 11 12 7 6 8 8 7 6 8 5 11 16 21 26 27 25 25 23 22 22 22 22 23 25 24 24 23 23 24 24
5 9 15 10 2 8 19 17 23 21 20 20 22 23 18 16 12 12 14 14 12 11 10 9 10 13 19 24 27 28 27 28 28 29 29 29 28 26 26 29 30 30 30 31
5 9 9 11 7 4 5 8 11 15 17 16 15 14 14 14 13 15 16 18 20 22 20 13 13 15 18 21 27 30 30 29 31 34 36 36 35 34 32 34 34 34 35 36
10 11 8 12 13 11 13 13 15 17 17 18 19 22 21 20 16 16 19 20 21 19 21 18 17 16 20 24 24 28 28 27 28 29 30 31 31 34 35 35 35 36 38 38
9 10 13 16 10 10 14 18 20 18 17 17 20 13 8 6 7 10 14 16 18 20 20 20 26 17 18 22 25 26 29 30 30 28 25 24 27 30 30 32 34 35 38 40
12 10 11 13 8 11 13 9 5 11 15 11 10 10 6 8 11 12 15 20 20 27 30 28 25 25 27 25 27 28 32 31 32 34 33 30 28 27 29 31 32 31 32 35
20 18 13 14 16 19 20 10 9 11 15 8 9 8 7 8 8 8 4 13 17 15 21 33 29 29 32 32 28 29 32 35 36 35 37 36 35 33 32 32 31 28 28 29
20 20 19 9 14 11 19 6 8 11 13 3 4 5 7 8 7 14 15 18 16 14 17 22 36 32 32 33 29 30 24 29 39 39 38 40 43 42 40 37 35 33 32 30
22 21 25 22 15 9 7 4 3 12 6 1 2 4 7 8 11 17 18 20 19 20 18 20 25 33 34 35 37 34 31 29 25 28 38 46 44 40 39 42 48 42 41 38
20 17 18 18 10 18 10 8 10 5 1 3 5 9 14 13 14 15 17 18 20 19 20 26 24 25 35 38 39 40 39 38 37 35 33 39 45 48 49 56 50 50 44 44
14 16 16 17 16 5 7 13 7 7 8 11 13 16 20 21 21 20 21 16 17 17 21 25 30 27 21 27 42 41 37 36 39 44 40 36 38 41 46 43 56 52 52 49
12 13 10 12 10 12 4 12 10 12 16 19 21 22 24 25 26 28 29 29 25 22 23 22 20 24 26 25 21 25 35 37 41 46 46 37 41 45 40 46 49 50 50 49
12 10 14 14 10 9 5 5 20 16 21 22 23 24 25 26 25 23 25 24 22 25 27 25 23 19 19 24 27 21 21 27 31 35 38 43 38 41 49 47 46 47 41 44
10 11 12 9 12 10 9 17 19 22 28 30 29 28 27 26 25 24 23 23 22 28 28 27 24 22 19 23 26 30 26 20 18 21 25 24 25 30 34 39 42 35 43 36

GFSCGP_700_spd_087.txt.gz
Wind_Speed
20 29 36 34 30 27 22 24 30 30 27 28 30 35 34 26 19 23 25 23 21 24 26 27 24 24 18 19 16 16 14 14 15 14 11 6 5 8 13 18 21 21 25 29
17 27 29 25 28 26 25 31 39 37 32 25 28 29 28 28 27 26 27 28 26 22 26 29 28 26 18 17 16 15 13 14 12 10 9 8 8 8 13 15 16 17 19 29
17 13 14 29 27 30 36 36 35 36 39 34 32 30 29 27 28 28 27 27 26 24 25 32 32 26 21 17 15 15 12 14 10 8 6 7 3 4 9 11 16 7 4 21
17 25 29 35 35 38 37 29 26 31 21 21 22 22 30 27 29 30 30 33 31 28 28 28 32 27 22 18 16 15 13 12 9 6 4 3 5 5 7 9 8 9 7 17
13 12 20 22 35 37 39 30 25 23 22 25 40 25 30 26 32 31 25 31 31 32 30 28 27 25 24 20 17 15 14 11 8 4 3 4 4 8 7 15 18 16 13 16
21 21 24 20 7 27 31 30 23 22 19 13 41 20 20 33 33 26 20 19 29 26 33 31 31 26 28 23 18 15 13 11 7 4 2 2 3 4 5 16 24 21 14 11
20 28 31 23 22 15 18 14 7 8 7 8 8 23 32 19 27 28 20 27 27 21 29 30 32 31 30 21 16 14 13 10 7 5 3 1 2 1 4 12 17 21 17 14
4 9 6 15 25 11 14 25 5 4 3 3 16 12 23 29 15 19 13 14 20 19 24 27 29 26 25 22 18 14 13 10 9 6 4 2 2 3 1 7 20 18 13 10
5 7 2 6 13 16 13 17 25 10 9 3 8 10 30 11 19 17 20 15 15 14 18 24 25 21 22 22 18 13 13 12 11 9 7 3 1 2 2 2 10 17 19 18
9 14 7 10 10 17 24 4 13 7 3 4 8 13 3 10 11 19 15 15 15 11 14 20 19 21 15 12 18 17 16 13 13 12 11 7 5 3 2 1 2 7 12 18
12 20 11 10 10 13 15 18 9 9 6 2 3 5 6 12 8 11 16 15 14 17 14 8 22 17 15 17 16 18 19 17 15 15 14 12 9 7 6 5 5 5 8 8
9 8 22 27 13 14 18 21 21 6 7 7 1 5 4 12 10 9 17 15 12 9 7 5 10 13 17 14 14 15 19 22 19 16 16 15 14 12 11 9 8 10 11 13
7 6 6 7 4 10 15 20 22 24 8 15 3 3 6 9 6 8 11 12 5 12 12 8 1 10 15 16 13 14 15 20 23 18 18 18 17 16 14 13 13 13 13 14
17 7 6 6 11 8 7 13 23 25 13 13 15 15 4 11 15 10 9 4 1 7 9 4 6 6 9 8 10 10 11 13 22 20 19 19 20 20 19 19 19 18 18 19
11 18 8 11 10 11 17 10 7 24 30 15 9 13 15 8 12 9 15 9 13 9 12 8 4 1 2 14 17 15 13 12 15 24 21 20 22 23 24 25 24 25 25 25
9 11 8 13 7 8 14 9 5 9 16 22 21 17 7 3 1 5 15 9 13 13 14 16 17 17 15 7 12 19 17 18 18 16 20 29 28 28 29 31 32 32 32 33
7 7 7 6 7 15 9 12 11 10 6 6 8 5 2 2 12 9 10 9 10 12 14 19 19 19 22 25 16 16 22 25 22 19 17 19 25 31 31 29 28 28 29 32
18 8 7 15 19 4 2 2 3 1 4 12 12 9 8 7 9 5 3 4 9 11 13 16 18 21 23 21 23 17 16 28 28 28 24 22 23 25 27 33 30 29 29 30
31 26 13 10 8 15 17 2 1 3 7 8 7 10 12 5 6 7 4 2 4 7 9 13 15 14 15 17 25 26 26 23 23 27 31 30 29 29 28 30 30 33 35 33
35 29 23 8 7 5 10 3 12 11 5 1 5 11 16 15 9 9 1 6 8 13 15 18 18 26 21 17 17 16 25 27 25 28 30 33 35 34 34 32 28 31 41 38
26 26 29 26 10 7 7 11 8 14 8 9 10 10 12 8 10 5 7 10 16 18 18 19 21 23 23 18 17 19 21 20 23 27 26 33 38 38 38 35 34 35 34 35
20 20 22 24 9 11 6 4 7 13 19 19 14 11 11 11 7 8 8 10 12 14 15 18 20 19 20 21 21 18 17 19 22 24 26 31 33 35 40 41 38 37 35 31
12 23 15 16 15 6 7 10 14 14 21 15 10 12 9 9 10 15 14 17 20 19 20 22 25 26 27 26 24 23 23 24 24 25 26 30 31 35 42 44 44 47 47 46
14 19 10 13 13 12 13 12 16 17 14 12 12 8 9 11 13 15 14 17 19 18 20 21 22 22 22 24 27 27 27 27 28 27 28 30 29 33 36 43 44 43 44 42
7 5 14 15 16 21 18 12 14 13 6 4 9 11 12 14 17 20 19 20 21 22 24 25 25 25 24 24 25 26 27 28 30 32 32 30 27 30 31 37 37 40 43 41
9 4 2 13 6 17 12 1 10 9 9 11 13 16 15 16 17 20 19 19 21 21 23 24 25 26 26 25 24 25 28 26 26 27 27 28 27 23 23 30 27 29 29 40

GFSCGP_700_spd_090.txt.gz
Wind_Speed
18 32 40 39 35 33 32 27 27 30 28 26 20 27 35 35 28 34 34 31 33 30 25 29 30 27 22 15 12 13 16 16 16 16 14 12 10 11 19 27 30 34 33 32
20 27 29 32 32 33 31 28 34 33 29 22 29 37 36 38 32 26 24 24 24 22 25 28 30 30 25 18 12 14 15 15 16 14 12 11 8 7 10 15 23 29 33 38
18 12 16 21 21 22 30 37 32 26 27 37 34 50 44 39 28 24 25 29 26 30 30 30 31 30 27 21 12 14 14 14 14 13 11 8 4 4 10 10 12 19 23 31
14 21 19 18 22 23 32 32 33 27 25 15 12 18 40 43 30 28 25 33 35 27 31 36 34 31 25 21 13 15 15 15 13 12 10 8 5 4 8 13 20 21 24 22
12 11 11 19 25 22 32 26 19 19 20 18 30 16 49 40 39 32 28 34 37 37 32 35 37 28 23 19 15 14 15 15 13 11 10 8 7 6 6 15 21 18 21 15
20 19 17 14 18 17 20 19 17 18 18 14 25 21 30 45 40 33 33 32 29 28 35 40 33 27 23 21 18 16 16 14 12 9 8 7 7 5 4 9 17 18 14 14
16 18 17 20 20 16 12 12 5 7 8 11 6 21 35 34 40 30 29 26 27 28 22 37 36 30 25 24 21 16 15 13 11 8 7 6 6 5 5 6 13 21 17 17
7 2 5 8 11 9 13 21 5 6 4 3 18 10 15 21 34 27 27 27 27 29 30 36 33 27 24 25 21 14 16 14 10 8 7 4 4 4 4 4 12 24 22 18
6 5 6 9 4 9 7 21 22 7 4 1 7 8 13 14 11 27 30 19 19 24 32 34 28 23 24 21 16 17 18 15 10 9 8 5 2 2 2 1 10 20 23 18
3 6 4 9 8 11 19 9 5 6 3 3 6 6 4 9 5 2 8 19 22 20 25 27 22 23 22 11 11 14 18 16 13 10 11 8 6 3 1 2 2 9 15 22
14 9 5 8 9 8 10 20 16 6 5 1 3 2 4 18 14 18 15 13 15 19 20 19 18 20 13 10 11 10 17 18 16 13 11 11 9 7 5 2 2 4 9 13
10 4 8 19 18 20 16 23 16 7 4 7 1 5 9 21 13 15 22 19 14 18 21 19 16 17 15 10 8 8 11 15 19 19 15 13 13 12 9 8 6 6 5 7
5 3 6 6 3 9 10 13 17 24 18 11 7 4 7 10 14 13 14 14 8 13 14 20 20 15 11 8 7 5 6 10 14 21 20 16 14 13 12 12 12 11 11 11
10 7 6 8 10 13 13 19 14 19 8 12 18 19 14 24 17 4 7 10 2 7 12 15 17 18 15 12 11 10 5 2 3 13 20 18 16 15 15 15 15 16 16 17
7 9 10 16 15 15 15 16 11 12 27 12 6 13 15 18 17 3 13 10 5 5 5 11 10 6 4 14 17 15 15 12 3 1 7 18 19 20 20 20 20 20 21 21
2 8 11 14 11 9 18 22 18 15 13 17 31 27 13 13 8 11 9 10 7 5 6 8 3 7 5 7 7 8 18 21 18 13 8 7 10 18 23 24 25 26 26 27
13 6 7 6 9 22 14 11 17 11 7 4 4 5 13 9 8 13 11 7 5 9 11 11 11 12 10 12 12 15 16 18 21 20 22 23 21 20 20 18 22 26 27 29
18 13 11 10 16 6 10 6 10 15 8 14 8 9 11 24 19 14 15 10 10 13 15 8 8 11 17 19 19 19 20 22 23 25 28 29 30 32 28 25 22 21 24 26
25 25 19 15 12 19 25 7 7 8 5 7 15 22 19 19 16 15 12 6 4 3 4 6 7 5 8 10 12 13 19 25 24 24 25 25 30 30 33 33 28 27 28 28
11 30 26 15 5 4 7 4 8 8 5 5 10 15 19 18 16 12 8 3 2 5 8 10 9 11 14 17 15 14 14 13 16 20 21 24 30 34 34 34 32 31 33 35
11 18 32 25 15 12 14 9 7 14 8 13 14 15 18 16 14 14 11 3 7 10 10 10 10 10 12 12 13 11 12 14 14 17 18 18 22 27 31 35 36 36 37 34
15 11 18 24 13 14 24 17 9 12 19 17 16 12 11 12 14 9 8 8 11 12 14 15 16 16 17 19 20 19 18 16 16 17 17 19 23 24 26 29 36 39 39 37
15 19 10 13 18 16 15 14 12 18 19 18 14 15 14 10 8 7 7 11 14 16 19 19 19 19 19 21 20 19 20 21 22 22 22 23 22 22 23 23 28 32 37 40
9 20 8 14 13 16 15 12 18 19 19 16 15 10 8 7 9 11 12 13 15 16 17 19 20 21 22 23 24 23 22 22 22 24 26 25 25 26 25 27 28 27 28 37
6 5 14 16 14 12 14 16 14 18 13 4 1 3 9 11 11 13 14 15 17 19 20 20 20 21 22 23 23 23 23 24 25 25 27 28 28 26 27 26 24 27 28 28
5 3 3 5 17 17 12 6 5 5 5 5 6 7 9 9 10 13 14 15 17 18 18 18 18 19 20 21 22 24 25 25 26 27 28 30 30 30 29 28 28 30 27 26

GFSCGP_700_spd_093.txt.gz
Wind_Speed
26 32 37 37 34 30 30 31 29 29 26 32 37 42 47 42 47 44 39 39 34 31 31 28 33 31 28 24 25 13 13 15 16 17 18 19 18 18 17 21 29 26 32 31
22 28 27 29 29 29 30 31 35 36 34 31 35 46 47 44 47 41 43 36 31 32 31 31 31 27 29 19 25 16 13 13 15 16 17 16 16 14 14 15 24 32 33 32
24 12 12 21 23 24 28 29 33 36 34 34 36 47 46 50 47 43 44 37 31 26 23 24 25 26 27 19 21 16 13 13 15 15 16 15 13 12 13 13 12 24 34 37
15 17 18 12 17 20 26 27 26 26 24 20 21 25 48 51 51 47 49 39 28 29 25 26 27 29 27 20 21 20 14 13 14 15 15 14 12 11 13 13 14 19 25 33
10 7 9 12 19 23 27 25 25 26 25 21 21 13 55 19 34 38 45 40 27 24 26 26 26 30 31 27 22 22 14 13 14 13 13 12 12 10 12 14 14 16 24 27
18 14 12 12 12 16 19 20 17 19 17 12 25 22 35 26 32 36 32 42 29 25 23 25 27 30 30 32 26 25 17 13 14 12 12 11 11 9 9 12 17 20 21 22
18 18 17 15 15 18 18 10 3 5 6 6 9 22 36 24 20 27 26 32 32 28 29 32 31 35 37 29 27 24 18 13 14 12 10 9 10 9 8 9 15 21 21 22
14 3 12 5 7 8 7 14 6 4 3 3 16 10 9 18 23 22 18 30 31 33 29 34 33 29 32 26 24 24 16 14 15 12 11 8 7 8 6 6 9 19 21 15
8 5 9 6 6 4 5 12 17 11 14 4 8 11 16 17 11 16 21 37 34 30 25 30 27 28 28 22 19 19 16 14 16 13 12 9 7 7 6 4 3 15 18 17
4 3 6 7 9 10 11 8 6 8 3 3 6 8 2 4 7 1 7 24 32 24 22 23 28 27 24 21 18 14 17 16 16 15 12 11 9 6 6 5 2 7 15 19
12 5 2 6 11 10 5 10 9 6 7 2 3 3 3 6 12 16 10 15 30 28 21 19 23 24 21 21 16 14 14 16 17 15 12 12 11 10 6 5 2 2 8 13
7 6 6 14 15 12 12 10 10 5 3 8 3 7 11 3 7 10 15 15 7 23 21 20 22 21 23 18 17 12 11 10 13 17 16 13 14 13 11 8 6 4 3 7
3 2 5 3 9 5 6 10 8 21 20 18 6 3 4 20 2 13 17 17 18 4 15 20 21 25 25 21 17 14 14 12 11 14 18 19 16 16 14 12 11 10 8 8
4 1 3 4 9 10 11 14 12 14 8 8 21 23 16 19 25 3 9 17 18 9 12 23 27 28 30 25 21 18 16 14 12 14 15 20 20 18 17 16 16 15 14 14
3 3 6 8 12 11 18 17 17 19 18 16 18 11 13 16 18 21 10 18 17 8 9 16 18 24 24 22 19 15 15 14 10 8 12 17 23 23 22 21 20 21 22 21
4 5 8 9 7 11 17 20 18 21 19 17 19 24 16 13 15 14 18 16 19 15 11 13 14 14 12 10 14 12 12 14 10 13 15 15 14 19 21 22 23 24 25 26
8 9 11 8 11 19 12 10 13 17 15 16 13 10 13 22 8 17 16 14 12 11 13 7 2 4 1 5 8 11 13 16 19 19 24 24 20 20 19 20 19 20 23 26
16 15 10 9 12 3 6 11 15 8 17 19 16 15 9 14 19 18 15 10 8 5 4 2 1 2 3 7 10 12 13 15 18 20 21 23 27 27 30 29 29 26 25 26
21 16 7 5 7 16 18 3 11 15 17 15 11 12 12 10 13 15 10 12 13 9 8 9 4 2 2 4 7 9 11 14 17 20 22 23 24 24 26 30 31 30 35 29
2 15 17 12 3 3 4 5 8 11 15 6 11 18 24 25 19 11 17 14 9 8 7 3 2 6 6 5 7 7 9 11 14 16 14 14 20 25 27 28 30 31 30 30
9 9 18 23 12 12 22 22 14 10 5 10 9 8 13 18 8 10 15 12 8 1 1 3 5 7 9 10 11 11 11 11 13 14 15 14 14 17 20 25 29 31 32 32
10 6 6 8 8 11 19 20 15 11 13 14 13 12 12 13 14 13 8 4 6 6 8 9 11 14 16 15 15 16 16 16 16 17 18 18 19 19 19 20 23 26 30 33
7 9 13 11 7 15 16 8 12 9 12 16 15 15 13 10 9 8 6 8 8 10 13 15 16 16 16 17 19 19 18 17 16 17 18 20 21 22 23 23 21 19 19 21
13 16 14 14 13 16 16 10 9 15 20 22 21 18 14 11 9 10 10 12 14 15 17 18 17 18 18 19 19 20 21 20 19 18 19 19 19 20 21 21 22 24 24 24
16 15 7 6 16 17 15 12 15 21 19 20 14 15 11 8 10 11 14 17 17 17 17 18 19 18 18 18 18 19 20 21 21 21 21 22 24 24 25 26 24 25 25 27
6 6 5 2 8 11 13 11 11 8 5 9 6 2 3 6 10 12 11 14 16 17 17 17 17 17 17 16 17 18 19 20 21 22 23 24 26 27 27 29 30 27 27 28

GFSCGP_700_spd_096.txt.gz
Wind_Speed
30 32 38 37 36 35 32 27 27 25 18 23 32 44 40 37 40 44 44 41 40 37 35 35 34 34 31 29 25 21 21 19 17 16 16 17 17 18 19 18 18 27 27 27
27 36 31 29 29 30 29 28 29 29 30 31 37 52 47 44 45 45 44 43 42 39 40 36 34 34 31 26 25 25 20 20 17 14 16 16 16 16 17 16 15 20 25 29
26 16 18 26 26 28 28 26 25 26 26 30 35 55 53 48 48 48 47 47 43 39 36 34 32 33 33 26 25 24 21 19 18 14 15 16 14 14 14 14 15 15 26 26
18 22 17 12 13 21 23 20 19 19 17 11 12 22 45 43 45 44 45 48 43 39 34 30 29 33 28 23 25 23 22 21 19 15 14 16 14 13 13 14 13 14 18 34
12 12 22 21 17 12 11 14 16 17 18 20 16 12 30 20 36 39 34 31 39 40 37 27 30 28 24 23 21 22 21 21 18 15 14 15 12 12 12 14 13 15 18 23
20 9 9 10 8 9 9 10 13 15 10 7 18 21 25 17 18 16 18 16 25 31 33 23 31 29 27 23 25 27 23 21 18 15 13 15 12 10 10 13 14 14 13 19
21 20 17 14 11 10 9 8 5 4 3 5 7 15 33 32 24 29 23 17 11 17 32 26 31 29 25 23 22 24 28 22 19 15 13 14 12 9 9 12 14 14 12 14
15 6 19 10 10 4 1 4 5 4 3 3 5 9 8 6 12 18 26 19 19 20 33 34 32 31 28 26 23 25 25 23 19 15 13 12 10 8 8 11 13 10 11 11
11 5 13 7 3 2 2 3 8 7 22 7 9 15 18 19 12 13 17 18 20 21 30 35 36 30 32 27 24 26 25 25 18 17 14 12 10 7 6 8 9 7 7 12
8 8 8 4 4 4 3 4 2 8 3 4 6 9 9 9 4 6 9 16 21 26 30 36 40 34 32 25 20 24 23 24 18 16 15 13 12 9 5 5 6 4 6 10
7 4 5 4 4 1 5 5 3 6 7 3 3 3 5 5 9 12 17 10 11 26 32 25 28 27 30 25 25 26 25 24 22 19 18 14 13 11 8 4 2 1 3 7
9 4 3 2 7 4 6 7 10 5 5 8 9 7 12 10 7 10 19 16 6 5 17 17 19 24 30 28 26 28 24 21 22 20 19 16 14 14 12 8 6 4 4 5
10 5 6 6 7 5 3 7 11 9 11 10 3 8 15 11 9 16 10 20 12 12 6 17 20 30 31 26 29 28 25 23 20 17 18 19 19 17 16 13 11 9 8 7
9 7 6 3 3 5 8 11 13 13 7 10 16 27 23 23 22 17 12 17 16 9 3 11 26 26 27 32 30 28 26 24 22 18 16 17 21 20 19 18 16 15 14 13
8 6 4 3 7 8 9 12 16 19 24 20 23 24 19 12 16 10 13 15 10 19 11 8 11 18 25 30 28 25 22 21 19 16 16 15 16 21 21 20 19 18 19 18
5 3 5 11 9 7 15 18 9 13 14 24 23 23 15 20 13 11 7 7 9 19 24 22 19 12 13 24 21 19 19 16 18 14 13 10 10 12 15 18 18 18 20 21
3 4 7 5 7 13 16 4 12 15 12 18 20 27 20 10 13 10 12 9 9 8 13 17 20 14 14 18 16 16 21 17 23 19 17 16 15 17 12 13 14 13 13 14
10 8 5 5 8 2 2 10 12 12 12 14 19 12 12 12 16 15 20 13 11 6 4 7 9 18 14 6 6 9 11 13 13 12 14 17 19 21 24 31 30 25 25 28
10 8 3 2 3 14 7 6 3 20 14 16 16 10 10 4 12 12 10 11 9 7 8 10 11 14 14 5 4 3 2 5 9 15 18 20 21 21 21 24 31 34 35 32
6 6 8 5 2 3 5 10 6 19 13 6 11 12 8 5 13 7 2 15 8 7 14 11 10 8 6 6 6 4 4 5 6 6 8 11 14 18 22 25 26 27 28 32
6 4 11 16 8 9 17 18 19 8 8 11 8 10 13 7 3 11 4 5 11 9 5 4 4 4 3 8 9 8 9 10 11 11 12 12 12 13 15 18 20 23 26 28
3 4 4 5 6 8 8 11 8 10 14 15 12 11 17 11 10 11 6 5 2 2 2 2 4 7 10 12 12 14 14 13 13 14 17 18 19 18 17 18 19 21 24 26
3 2 9 10 7 15 17 14 8 6 12 12 12 13 10 9 7 3 4 4 2 2 6 9 10 13 14 15 16 18 17 16 15 15 17 17 19 20 21 20 19 18 19 20
5 12 9 13 7 12 12 10 9 8 11 14 15 17 11 13 8 2 4 4 6 11 13 14 15 16 17 19 19 19 19 19 18 18 18 18 19 20 20 21 21 21 21 22
15 12 8 1 8 9 11 10 10 12 15 19 19 11 10 14 16 11 8 10 12 15 16 16 14 14 16 17 17 17 17 16 16 16 17 18 19 19 19 21 21 21 21 23
11 9 8 6 10 9 7 8 7 8 8 10 14 10 9 6 5 5 11 12 13 13 15 14 14 16 17 17 18 18 18 18 18 18 18 19 20 21 20 21 22 23 23 22

GFSCGP_700_spd_099.txt.gz
Wind_Speed
37 36 43 37 31 27 16 17 17 16 12 19 29 39 37 35 35 36 35 35 35 36 33 32 32 34 35 38 34 29 24 20 19 17 16 16 16 17 17 15 15 18 19 20
30 41 37 29 27 27 26 26 27 28 26 27 34 49 45 45 44 40 39 41 40 38 36 36 35 34 34 36 35 34 27 24 21 18 16 16 16 16 16 15 14 15 17 24
30 20 24 29 27 25 26 26 24 23 24 26 32 50 35 24 27 30 37 42 44 44 41 37 35 34 34 35 34 34 28 26 22 19 17 15 15 15 14 14 13 14 15 16
18 25 17 14 27 23 24 21 18 18 12 9 7 13 19 17 14 17 22 24 30 37 44 41 37 34 34 32 34 35 29 26 24 21 16 15 15 14 13 13 13 12 14 14
13 11 21 16 13 14 15 13 12 12 13 13 9 11 7 14 22 6 7 14 22 33 36 43 40 33 31 33 37 34 31 28 25 23 17 16 15 14 12 11 12 11 12 16
17 7 11 21 18 14 10 10 6 9 7 6 12 12 8 11 12 27 19 16 16 18 30 33 35 33 27 30 36 31 30 27 25 22 17 15 14 13 11 10 11 11 12 15
16 14 12 12 13 12 13 8 3 2 4 4 2 10 19 19 15 16 24 25 22 19 23 30 33 32 23 29 33 32 28 25 24 23 17 16 15 13 10 9 10 10 11 13
17 9 22 17 16 8 13 10 4 4 3 1 2 8 5 8 12 14 21 30 29 19 23 28 34 31 23 32 34 30 29 29 26 23 18 17 16 12 9 6 8 10 7 9
15 4 17 10 13 12 9 6 6 1 4 1 6 11 14 15 13 13 18 24 25 22 24 28 34 31 30 31 30 28 27 29 28 24 19 18 16 12 10 6 5 6 3 7
15 12 12 14 12 10 4 7 4 4 2 3 5 7 8 9 16 14 17 21 23 23 19 24 31 29 29 28 27 28 27 30 29 25 21 19 18 15 12 7 3 2 4 6
18 12 12 12 6 8 9 4 3 3 3 1 3 1 7 14 13 13 22 23 14 13 14 24 29 32 31 27 26 31 29 34 31 26 22 20 20 17 14 10 6 3 4 7
10 14 11 9 8 7 6 5 2 3 4 3 5 9 7 11 14 15 22 27 23 11 9 20 27 30 35 33 36 28 32 32 33 29 25 21 22 19 16 13 10 6 5 6
15 10 9 11 9 8 5 2 2 3 3 5 3 5 13 25 19 19 20 19 21 16 6 12 23 31 35 36 26 34 36 34 33 30 25 24 24 21 19 17 14 11 8 7
10 12 7 7 9 7 4 1 3 4 4 7 15 24 22 23 14 11 11 16 14 3 1 4 14 23 26 33 29 31 34 32 28 27 26 24 26 24 21 20 18 15 14 12
13 15 12 10 5 1 2 4 5 11 14 12 20 23 25 21 19 15 12 15 16 9 19 9 4 11 17 25 34 38 37 34 30 26 22 21 20 23 23 21 19 18 17 15
9 7 5 5 4 1 9 10 13 7 10 16 20 25 19 23 20 14 11 11 11 5 22 23 19 13 14 19 22 31 32 28 26 25 24 23 19 17 18 19 18 17 17 16
6 4 3 3 3 7 8 6 6 6 7 12 16 19 23 18 12 14 9 11 13 7 10 22 22 22 21 26 23 23 25 24 24 22 23 24 17 14 15 15 15 14 14 14
4 3 4 2 4 2 3 9 7 7 9 13 16 17 18 15 15 16 12 13 13 6 7 8 23 19 15 16 17 24 27 22 23 21 21 22 20 21 22 19 17 15 14 14
5 5 4 2 2 8 9 5 3 13 14 13 10 11 9 13 4 15 13 9 4 8 13 14 10 18 23 18 12 8 5 3 12 9 7 14 20 21 21 21 25 26 28 32
9 5 3 3 2 2 3 5 11 17 10 6 11 10 9 16 17 6 2 10 8 15 17 16 14 13 16 19 15 9 2 6 5 2 5 7 9 9 13 17 20 22 25 30
6 4 0 3 2 6 10 11 10 2 7 12 12 13 17 13 15 6 4 5 11 8 9 9 8 9 12 8 7 3 3 2 5 8 8 8 8 11 12 14 15 16 19 21
4 4 3 2 2 3 3 15 12 9 9 12 13 14 15 18 13 10 3 8 5 7 8 4 1 1 2 3 4 5 7 8 10 10 10 11 13 14 16 17 18 20 21 22
1 3 4 2 4 16 22 20 10 8 7 10 11 13 11 7 3 1 2 2 4 4 2 6 6 6 7 8 8 9 10 11 12 14 15 15 15 15 16 16 17 19 21 23
3 5 7 6 3 5 7 7 8 7 10 9 7 8 12 10 9 7 6 3 2 4 4 10 12 12 11 11 11 12 12 13 14 14 15 16 17 16 17 18 18 19 19 21
9 8 6 3 4 4 6 8 8 7 7 11 14 13 12 13 13 15 14 13 9 10 11 10 11 12 13 12 12 12 12 12 13 14 14 15 17 17 18 20 20 21 21 22
10 7 5 5 6 4 5 5 5 5 8 11 10 9 9 8 9 7 8 9 11 11 13 15 13 12 13 13 14 13 14 14 15 16 16 17 19 19 20 21 22 23 23 24

GFSCGP_700_spd_102.txt.gz
Wind_Speed
33 32 41 34 30 25 21 21 21 16 16 18 26 28 26 25 27 26 26 31 33 34 34 33 32 39 40 38 39 35 32 28 25 24 18 15 15 16 14 16 19 19 18 19
28 38 31 26 26 26 24 20 20 18 20 21 25 30 28 29 31 31 32 34 35 35 36 37 39 39 41 42 41 41 35 33 29 26 22 17 17 18 14 16 18 18 17 14
32 24 29 27 26 26 26 25 19 18 15 21 23 29 20 14 19 21 27 30 34 35 35 37 41 40 43 43 42 43 39 36 35 29 26 21 18 18 15 16 18 16 16 15
21 21 17 25 29 25 25 19 19 16 12 10 3 7 14 12 6 6 10 14 17 22 27 34 41 43 43 42 40 43 37 38 37 33 28 22 17 18 14 16 18 15 15 15
18 21 20 17 22 24 22 17 12 13 13 14 16 10 4 5 7 4 11 12 15 21 30 31 34 44 47 38 42 43 38 38 38 35 29 24 18 18 15 15 17 16 13 15
12 15 16 18 17 15 13 10 7 6 7 8 18 15 6 3 6 9 10 14 14 14 19 24 32 37 42 43 43 40 38 37 37 34 30 26 20 19 15 15 16 16 14 15
15 13 13 17 20 14 13 14 6 5 5 6 5 10 13 9 4 12 14 17 17 18 16 19 22 29 35 42 39 37 38 37 36 33 30 28 22 19 16 15 15 16 14 14
19 10 17 18 16 13 19 18 6 7 5 5 6 8 3 4 6 11 14 19 26 25 20 17 19 25 33 37 37 35 37 38 36 32 31 29 24 20 16 15 15 15 13 13
17 8 19 18 17 12 16 13 9 3 1 3 7 7 7 3 7 11 15 21 25 25 22 18 18 23 32 36 34 34 36 36 34 34 33 30 25 20 17 16 15 15 11 9
10 9 15 16 14 18 9 13 5 6 5 5 5 5 3 6 11 13 17 22 22 22 20 16 14 21 31 33 32 33 34 34 37 35 32 32 26 22 19 16 15 14 10 10
17 11 15 19 12 17 12 8 4 4 1 2 1 5 3 8 14 15 18 20 27 28 22 16 17 22 30 30 30 32 32 29 34 34 34 33 28 23 21 18 16 13 10 11
14 12 20 14 12 14 10 9 6 5 6 3 0 4 4 12 18 18 19 20 26 26 27 19 16 27 32 33 30 30 30 36 33 33 37 35 29 25 23 21 19 15 12 9
14 14 14 10 9 10 8 8 6 4 4 4 2 3 6 17 19 16 17 19 20 27 25 14 14 21 33 34 29 26 35 33 35 38 41 37 30 25 25 23 22 18 14 11
10 11 8 8 13 14 11 9 6 4 3 2 9 16 16 20 21 19 17 19 22 23 28 14 10 14 28 36 36 37 35 35 33 42 42 36 31 26 27 25 24 21 19 16
15 12 14 13 12 11 11 8 5 2 5 6 11 17 19 18 18 21 15 20 17 20 22 9 13 9 20 30 38 44 40 34 37 40 39 37 30 27 27 27 25 24 22 20
18 4 9 11 7 6 4 2 4 3 3 7 10 12 14 20 19 12 13 14 13 17 22 8 17 18 13 17 26 27 33 37 39 40 37 30 25 24 21 23 26 25 23 22
6 4 5 4 2 0 4 7 4 2 3 5 11 15 18 20 18 14 11 8 13 11 8 4 20 28 22 21 21 22 24 27 32 32 32 29 30 28 26 24 26 25 24 23
5 5 4 3 2 3 5 2 4 3 6 8 8 13 12 18 14 12 10 14 12 14 9 8 7 19 22 28 29 26 25 22 25 26 27 27 27 30 35 26 17 18 24 23
5 4 5 2 5 7 7 5 6 7 5 8 8 8 9 11 14 14 10 4 1 8 10 6 6 10 17 18 20 23 19 23 23 25 26 26 24 28 30 23 27 26 23 21
6 4 3 2 2 3 3 5 10 8 3 2 9 10 13 12 10 14 6 3 6 11 12 17 15 17 18 14 15 13 13 9 11 21 23 18 19 23 23 22 26 28 29 30
4 5 5 3 3 3 0 8 9 2 5 12 12 12 14 15 10 12 10 9 2 4 10 5 5 8 10 12 14 11 13 9 5 8 6 4 3 7 9 11 13 16 16 17
2 2 3 3 1 1 4 15 7 3 7 10 11 11 13 17 9 10 2 5 5 2 6 6 6 6 6 4 4 5 5 2 2 1 2 5 7 8 11 12 12 13 15 16
2 5 2 2 1 8 17 11 5 6 6 6 7 8 9 11 8 5 4 8 7 4 8 4 6 9 9 8 6 5 5 6 7 8 9 13 12 10 11 14 16 16 18 19
4 3 0 3 4 7 6 4 4 6 5 8 8 10 11 13 12 9 10 10 9 8 7 7 9 10 9 9 8 9 8 7 7 8 11 12 14 14 15 16 17 18 18 19
3 6 2 4 7 7 6 6 7 7 7 8 9 10 10 10 11 13 12 10 11 10 9 11 11 10 10 11 11 11 11 10 10 9 10 11 12 13 15 16 17 18 19 20
5 7 2 6 7 8 6 5 4 4 6 8 8 7 7 8 9 10 10 9 8 9 12 13 14 15 14 14 13 13 13 14 14 12 12 13 14 15 16 17 18 19 20 22

GFSCGP_700_spd_105.txt.gz
Wind_Speed
31 33 39 47 40 34 30 28 27 22 26 26 28 26 27 26 28 27 26 26 26 26 24 23 24 27 30 33 36 44 41 38 33 30 28 26 18 18 18 18 19 21 18 19
28 42 44 30 33 33 29 27 24 21 20 18 22 29 29 29 31 31 30 29 27 27 26 27 29 28 29 31 44 45 44 42 35 31 30 29 22 21 20 20 19 20 19 19
37 34 32 30 31 30 30 27 25 22 17 20 20 30 30 32 29 29 29 27 27 28 28 28 30 32 33 34 38 49 46 45 42 34 33 32 27 26 23 20 20 20 19 18
32 31 20 32 32 31 29 26 23 22 19 21 16 18 17 8 11 12 13 14 16 17 20 23 29 34 34 36 35 43 47 47 45 40 36 32 31 26 21 22 20 20 19 17
27 29 28 31 35 27 28 19 23 22 22 20 24 14 23 11 12 12 6 7 7 11 14 17 22 25 29 34 35 40 46 48 50 46 40 35 33 29 26 24 20 19 20 18
23 19 23 24 24 24 21 19 18 16 18 18 25 23 16 16 11 9 5 4 8 9 12 15 18 21 25 29 36 36 45 48 48 45 40 37 34 32 28 23 22 20 19 19
26 19 23 20 21 20 24 23 11 11 13 12 13 19 16 9 6 5 2 5 7 9 13 13 16 16 21 25 34 40 42 44 48 43 40 38 36 35 29 24 23 22 18 20
24 11 23 22 29 23 27 26 10 11 13 14 12 9 7 9 6 2 3 5 11 12 14 17 16 11 19 24 28 35 42 42 45 41 39 38 38 36 30 25 23 22 18 19
24 6 20 21 19 21 27 26 21 9 9 4 13 10 6 5 6 2 2 8 11 14 18 18 14 19 18 21 23 34 45 42 42 44 38 39 41 35 32 25 23 22 19 17
10 9 15 20 17 16 21 20 11 11 4 6 10 11 15 6 5 5 9 12 17 19 22 20 17 14 20 8 21 36 38 40 45 39 40 41 41 37 32 27 23 21 19 16
7 10 17 18 19 19 11 19 9 10 4 4 2 8 10 7 8 10 11 17 24 25 22 24 18 10 17 14 18 27 33 36 38 38 42 41 40 39 33 29 24 22 19 15
11 7 18 23 16 14 17 14 13 8 6 3 5 4 8 8 11 12 14 21 22 20 22 22 19 11 15 19 19 24 25 31 33 36 38 38 42 39 35 30 26 23 20 16
15 8 17 11 12 11 15 11 9 6 3 6 3 4 3 9 13 12 18 24 23 20 19 22 20 15 17 21 25 24 24 27 27 33 34 41 43 41 38 31 28 25 22 18
10 10 11 7 16 20 13 11 9 5 6 3 7 10 13 11 12 16 24 21 19 21 22 26 28 17 19 23 23 25 24 27 29 26 25 42 45 41 38 32 29 26 24 21
5 8 8 11 15 16 13 11 7 4 1 3 8 10 13 18 24 25 21 21 18 20 20 26 26 16 18 21 22 24 26 26 28 31 38 44 43 43 40 34 29 27 27 25
14 9 11 15 14 13 11 6 1 1 2 6 7 9 16 19 18 17 14 17 14 18 18 19 21 13 17 17 17 21 24 26 33 34 43 42 43 42 38 31 30 28 28 28
17 8 7 6 7 9 9 6 5 5 8 8 11 8 12 15 18 20 16 11 12 14 13 14 14 19 6 19 17 17 21 23 25 29 34 41 44 42 37 31 30 29 28 29
5 3 2 5 6 4 7 7 5 6 8 8 8 8 9 12 18 19 14 12 10 11 9 5 8 5 16 16 17 23 22 24 27 31 32 34 38 35 33 30 29 28 32 41
6 4 4 3 6 13 9 7 5 4 5 7 8 10 9 13 12 15 12 8 6 10 10 10 16 11 6 17 15 15 21 24 28 32 35 35 34 33 33 33 31 28 32 36
9 6 2 4 5 3 8 5 11 4 1 5 10 10 11 11 5 9 10 10 5 7 10 10 14 16 19 14 14 16 12 9 22 26 15 25 29 28 28 29 28 35 37 28
7 8 7 4 2 4 3 9 3 4 4 11 9 10 14 10 7 8 8 9 8 5 5 5 12 14 15 18 18 15 12 15 9 11 5 9 15 24 22 26 25 19 18 25
6 6 7 2 1 3 1 10 4 3 5 6 7 9 11 12 12 11 9 11 10 8 4 3 6 8 9 11 14 19 18 15 12 8 6 10 9 6 4 4 0 2 6 9
4 6 4 5 2 5 9 8 6 4 4 5 6 8 10 11 12 11 9 11 10 11 9 8 8 13 13 10 7 8 10 12 8 9 8 8 4 5 8 4 7 9 11 12
6 5 2 4 3 4 6 5 4 5 5 6 8 9 11 11 11 11 11 13 14 13 13 9 8 11 13 11 10 9 6 5 7 9 9 8 9 10 9 12 13 15 16 15
3 4 2 5 6 6 6 5 5 7 6 6 8 8 8 8 8 9 9 10 10 10 8 10 11 12 13 14 12 10 10 9 8 8 9 9 9 9 11 13 16 16 17 18
3 4 1 7 8 8 8 6 5 4 5 7 7 7 8 8 9 10 10 11 11 12 11 11 14 15 15 14 14 15 13 12 11 10 11 12 12 12 12 13 13 14 16 18

GFSCGP_700_spd_108.txt.gz
Wind_Speed
23 28 38 43 43 39 36 36 33 31 32 34 43 42 37 30 29 28 23 26 24 24 26 24 28 29 36 38 32 37 44 43 43 34 33 30 30 26 18 20 18 18 19 19
22 37 43 36 32 36 37 36 38 31 33 25 29 30 28 28 29 29 28 28 27 29 26 26 25 24 24 37 38 38 44 45 48 35 34 33 33 26 21 22 19 19 21 21
32 35 31 34 35 36 39 39 32 29 21 21 20 24 25 26 29 32 31 30 28 28 24 23 24 25 27 27 36 42 43 49 51 39 36 36 37 29 27 26 21 19 22 23
35 30 28 32 37 35 36 32 30 25 22 19 20 18 24 32 33 37 28 28 27 27 28 30 31 31 29 33 36 35 39 43 49 42 39 39 38 32 27 30 24 21 22 24
41 32 30 36 35 33 34 26 22 21 20 23 24 20 20 9 15 17 17 19 18 16 18 19 22 30 38 35 31 38 36 38 43 42 41 40 41 34 30 32 28 24 23 24
34 22 28 32 22 29 23 12 14 14 18 19 30 25 18 21 16 19 15 7 3 7 13 15 18 18 21 39 43 36 36 42 43 47 42 43 41 39 34 34 32 25 25 24
31 28 24 23 27 25 21 19 4 9 8 12 24 24 24 12 16 18 12 11 11 13 18 22 23 25 25 22 17 36 44 36 42 47 43 43 41 40 40 36 34 27 26 25
27 12 25 21 24 25 28 28 11 8 9 12 24 11 28 22 15 11 11 6 6 13 18 14 13 14 23 29 28 25 38 44 41 45 43 42 42 40 38 36 34 30 26 24
15 17 26 18 21 23 28 35 32 6 7 3 13 9 13 20 19 12 8 3 4 7 13 15 16 16 18 25 29 30 32 40 39 42 44 43 41 41 38 37 34 32 27 23
15 5 20 15 24 21 25 30 17 9 5 3 12 15 14 17 15 11 6 4 9 17 20 20 18 15 15 22 24 29 24 32 38 41 44 42 40 40 38 38 36 32 28 22
15 12 13 13 15 20 29 25 14 15 13 2 4 5 11 10 11 11 5 7 16 23 22 15 15 13 12 17 18 20 21 31 40 42 45 40 39 38 39 39 36 33 26 23
8 8 12 22 7 13 10 16 25 5 7 4 5 7 7 12 13 4 4 12 20 20 14 15 17 18 8 19 20 19 26 32 41 45 41 37 36 36 41 39 37 34 26 24
2 2 3 6 13 15 19 15 14 10 5 3 2 5 11 11 10 13 16 20 19 15 16 17 18 20 10 10 20 23 25 25 31 35 37 38 39 36 41 38 39 34 28 25
2 2 3 4 3 16 14 13 10 5 4 6 17 14 15 17 16 17 17 14 15 15 19 21 21 24 14 12 19 23 21 23 22 25 28 34 36 44 37 37 40 36 30 27
6 6 3 10 13 15 10 10 8 5 3 5 9 18 17 21 21 19 17 15 12 11 18 18 23 25 26 10 17 21 24 19 21 22 19 24 36 34 36 38 43 40 33 28
9 3 13 22 17 21 15 8 11 9 13 14 15 21 16 18 18 16 16 14 11 13 14 19 21 21 23 8 17 18 16 17 18 22 24 28 33 38 37 44 46 40 32 30
11 9 11 15 16 16 17 17 19 20 17 10 16 13 12 14 17 21 16 15 14 13 13 15 16 16 16 10 7 14 17 16 16 20 24 25 30 35 36 42 42 37 37 34
7 8 7 3 5 4 12 16 16 16 17 16 9 11 10 13 15 18 13 11 13 14 15 20 20 19 18 15 16 24 8 18 18 18 22 25 29 35 38 44 44 43 41 37
6 3 3 3 3 15 8 10 11 12 14 11 10 11 11 11 9 11 13 10 12 11 13 14 16 19 18 16 13 14 22 7 20 24 28 31 34 37 39 42 41 41 44 36
9 6 1 1 5 1 7 7 4 3 9 10 7 11 11 6 8 10 11 12 10 6 6 10 13 16 18 17 15 11 9 18 15 9 17 29 23 32 39 37 39 40 43 40
10 8 10 5 4 6 8 6 2 3 4 8 9 8 8 6 9 9 11 12 12 11 9 8 11 12 14 17 21 18 18 14 13 19 15 11 9 11 11 19 12 24 35 36
8 10 9 10 7 4 10 5 4 7 5 5 6 8 8 9 9 9 10 11 12 12 10 7 5 10 13 13 14 15 16 20 20 17 18 15 17 14 6 10 9 7 7 17
8 9 4 6 4 7 9 10 10 5 4 4 7 9 11 11 11 10 10 11 12 12 11 11 11 9 10 13 12 12 13 12 11 12 12 15 18 13 11 11 9 10 7 5
6 8 5 5 6 6 7 6 5 4 4 5 7 10 11 11 11 11 11 11 11 12 12 10 9 10 10 11 11 12 12 12 12 12 11 8 8 9 10 14 15 14 9 10
7 7 4 4 4 7 5 7 5 4 4 5 7 8 9 10 11 12 13 13 12 11 13 13 12 11 11 11 10 11 11 12 10 10 11 12 11 10 9 9 9 11 13 11
4 7 5 5 9 8 7 6 5 4 6 6 6 7 8 10 12 13 14 15 15 13 13 14 15 15 14 13 13 12 12 12 13 13 12 11 11 11 12 11 11 11 12 13

GFSCGP_700_spd_111.txt.gz
Wind_Speed
22 28 41 39 39 43 34 26 32 31 30 37 33 46 44 42 43 38 39 40 31 32 28 23 22 22 26 30 38 38 37 37 33 37 37 33 33 28 24 22 20 20 19 19
30 40 34 34 33 33 37 35 38 36 35 29 35 37 28 44 43 42 33 32 24 27 28 26 23 23 27 28 37 41 42 40 38 37 38 37 34 33 28 24 22 24 20 19
33 39 30 31 34 31 36 37 35 34 34 29 16 24 33 33 26 42 33 30 30 30 30 27 31 27 23 25 23 42 43 40 37 36 39 40 38 35 34 29 25 27 22 21
33 32 33 35 35 29 35 33 35 35 31 19 12 8 21 23 30 24 28 32 24 21 28 31 29 30 33 33 31 31 39 46 39 39 42 47 45 39 36 32 27 28 27 25
35 28 34 35 28 33 33 29 30 30 7 11 17 18 22 20 20 27 35 33 29 27 30 33 34 36 38 36 34 39 33 37 43 45 43 45 49 40 38 33 30 29 30 29
36 27 30 30 30 26 31 29 10 15 6 7 22 16 11 11 15 12 22 29 29 32 37 37 36 38 40 42 40 37 41 32 38 42 43 48 47 38 39 35 32 30 32 32
21 26 25 30 32 24 24 21 4 1 4 6 9 12 22 13 21 24 24 20 21 29 28 25 28 32 37 44 47 45 40 40 41 36 39 42 44 40 37 35 34 32 31 32
11 9 21 18 27 19 14 25 10 5 4 2 7 11 24 11 23 17 20 20 22 21 19 18 21 25 26 33 37 47 57 45 48 48 37 37 39 38 34 36 33 33 32 31
4 14 16 21 16 14 26 23 24 0 1 3 12 14 12 20 25 23 20 23 22 14 11 14 15 17 17 23 30 34 35 39 59 59 47 38 40 39 37 36 35 35 30 33
9 9 20 21 10 10 30 25 16 8 2 4 8 11 9 17 16 22 24 18 9 7 9 15 18 18 19 20 24 38 40 35 33 47 46 39 39 40 36 36 35 36 30 35
9 13 9 22 14 15 15 20 14 10 11 2 2 3 13 7 14 17 17 11 2 9 14 16 18 15 13 18 22 29 34 35 35 34 34 35 38 41 36 35 38 35 31 35
8 14 3 6 16 16 16 15 24 6 3 5 3 10 15 16 19 14 11 9 11 14 8 8 10 11 14 12 20 22 21 25 28 25 33 37 40 39 34 34 37 34 33 34
5 6 4 3 0 8 13 24 26 15 1 6 2 6 17 18 12 13 14 8 7 7 9 10 7 9 10 10 16 23 23 25 29 30 31 35 38 32 33 33 34 32 34 32
5 8 11 5 9 3 8 13 16 18 4 8 18 21 24 22 20 19 15 13 12 11 14 15 17 15 14 14 15 20 25 25 28 30 35 36 35 34 33 33 35 34 36 35
7 14 19 7 7 12 10 16 11 14 9 12 18 31 24 24 22 19 15 10 8 9 10 13 16 20 20 19 12 18 22 22 26 26 28 33 35 35 33 35 36 38 36 34
10 12 24 34 25 23 29 21 20 27 23 22 22 24 19 19 19 13 14 13 10 11 13 14 15 16 16 18 10 12 17 25 23 23 24 23 30 30 29 29 37 37 36 31
9 10 9 7 9 17 25 23 24 26 25 21 23 14 11 12 15 17 14 14 14 14 16 17 18 19 19 19 19 11 11 15 16 17 17 23 28 23 38 34 35 33 32 28
9 12 4 4 6 5 13 21 22 24 22 20 16 15 15 12 16 15 12 12 10 9 10 13 15 17 20 19 18 17 16 13 6 19 19 21 27 27 29 35 37 33 31 28
14 9 4 3 4 11 11 14 16 13 20 17 17 14 12 10 11 12 13 12 8 8 10 12 14 16 18 18 18 18 16 12 12 4 19 22 25 27 33 36 38 35 40 39
7 12 6 9 4 5 10 9 6 10 17 13 12 11 11 6 6 9 11 11 11 10 10 9 12 15 15 16 18 19 22 18 10 12 19 6 23 26 31 31 36 36 41 39
16 13 18 19 7 6 11 6 6 4 4 9 9 8 6 3 6 8 10 11 11 11 11 9 9 12 15 16 15 15 15 17 21 16 14 15 8 12 14 7 25 25 18 37
15 10 11 8 6 4 16 5 5 9 5 5 5 7 8 8 9 8 9 9 10 11 10 11 11 11 11 14 14 14 14 15 15 15 17 18 16 13 14 16 10 8 7 4
9 10 6 7 7 9 11 13 12 7 4 4 6 8 9 7 7 8 8 9 9 10 11 11 11 11 11 11 12 12 12 13 12 12 12 11 13 16 16 14 12 8 8 8
6 8 7 5 7 7 8 7 5 3 3 4 6 8 9 8 8 9 9 10 10 10 10 10 10 10 11 12 12 12 11 11 12 13 12 10 9 9 8 7 7 11 12 8
5 6 7 6 4 4 4 4 3 3 4 6 5 6 9 11 10 11 12 11 11 11 12 12 12 12 12 12 12 12 12 12 11 12 12 13 12 10 10 9 9 8 8 12
5 7 5 2 6 5 4 3 2 2 4 5 7 7 9 12 12 13 14 14 14 13 12 12 13 14 14 14 15 15 14 14 13 12 13 13 12 13 12 11 11 11 10 10

GFSCGP_700_spd_117.txt.gz
Wind_Speed
24 23 31 37 33 30 31 33 38 40 37 42 41 37 32 43 35 32 40 42 35 40 38 34 38 38 35 38 43 45 44 42 41 38 35 32 32 31 28 25 24 26 26 24
25 30 26 26 35 37 38 33 36 38 34 31 31 39 33 35 37 31 33 35 40 28 48 35 38 37 36 39 44 45 46 38 45 48 43 40 34 33 33 31 28 26 24 25
27 31 23 25 27 30 31 30 40 37 39 39 33 35 39 39 36 35 39 35 33 41 39 40 31 34 47 45 46 45 38 34 35 36 38 38 38 35 39 39 33 29 25 26
24 25 21 22 26 19 34 27 26 34 33 27 22 15 29 28 35 27 31 37 31 30 40 38 36 35 46 50 47 42 41 36 37 37 38 36 34 37 38 34 30 29 26 24
34 29 29 33 38 28 38 22 22 22 25 27 34 15 24 21 22 14 16 25 37 29 35 35 36 40 42 43 41 41 42 39 36 37 40 36 35 34 36 34 29 29 29 28
26 24 30 24 22 21 19 17 23 28 25 8 30 18 10 3 4 13 14 24 31 27 32 34 37 41 40 40 41 40 40 38 37 38 38 39 40 38 36 37 39 33 31 29
27 10 10 13 23 16 13 16 5 2 2 5 10 15 21 10 4 18 24 25 23 25 33 36 40 44 43 39 37 38 38 37 37 38 39 41 38 36 41 35 39 35 31 29
10 10 11 3 7 11 18 21 8 3 3 4 15 4 6 9 6 14 20 24 27 27 29 32 35 38 41 40 38 37 37 36 38 38 38 40 39 40 39 37 34 35 36 30
9 8 21 12 4 9 11 24 24 21 18 5 8 9 15 13 4 5 15 17 20 22 26 30 31 32 33 35 36 37 39 40 42 39 38 40 42 40 40 40 38 39 37 32
8 13 13 10 14 16 20 13 7 13 3 5 5 8 16 18 16 14 11 14 19 22 20 24 29 30 32 34 37 39 41 44 45 48 47 47 45 42 41 41 39 40 37 33
11 11 19 24 21 12 15 19 16 11 6 2 2 5 14 12 11 17 15 10 13 13 10 17 20 21 25 28 29 30 32 34 36 39 41 42 41 43 43 44 44 43 39 37
12 12 17 21 6 5 8 13 19 8 3 0 7 4 8 5 9 14 13 11 10 11 9 7 12 15 19 22 26 29 30 30 29 30 32 31 27 32 31 34 36 39 40 40
12 8 12 7 7 9 10 5 10 12 3 5 1 4 4 7 12 14 13 15 11 11 8 3 3 7 12 17 21 24 27 30 27 24 22 24 21 26 32 35 35 35 37 38
6 17 19 10 12 15 14 16 6 10 3 9 9 11 7 11 12 12 13 15 14 13 13 2 6 6 6 9 16 18 20 25 23 21 22 23 22 20 20 26 31 31 33 35
10 20 30 29 21 20 7 16 19 25 18 9 11 16 13 12 11 11 12 12 12 14 17 17 15 12 8 5 8 10 12 16 18 19 25 24 17 20 20 21 24 27 28 31
11 11 9 17 30 41 43 39 37 33 24 23 19 19 13 11 12 11 10 12 15 19 21 20 21 20 18 17 15 15 15 9 12 16 16 25 30 30 28 25 29 30 29 29
12 12 9 10 13 11 30 29 27 25 19 16 19 17 13 10 9 11 10 11 14 16 18 18 20 22 21 22 26 23 20 20 18 11 11 18 24 23 30 22 27 32 35 39
11 6 5 3 4 6 6 21 25 24 21 16 15 13 12 13 12 10 11 12 13 14 15 16 18 19 19 19 19 21 24 24 21 19 17 11 8 14 22 24 25 26 35 40
8 3 4 4 14 13 9 10 16 18 19 15 10 8 6 7 9 11 13 14 14 13 13 12 13 14 16 18 18 19 19 19 21 21 16 15 16 15 11 23 21 24 33 31
9 4 4 5 4 3 8 3 10 14 12 10 7 6 7 7 7 10 12 13 13 13 13 14 15 17 17 14 15 17 17 18 17 16 19 21 20 18 14 14 12 15 21 32
8 12 14 11 5 4 4 6 10 1 3 7 7 7 7 6 7 10 11 11 11 12 13 14 14 13 13 15 16 17 16 16 17 18 17 16 15 14 17 16 13 12 13 8
13 6 6 4 4 3 4 11 3 10 8 6 8 9 10 9 10 10 10 10 10 10 12 12 13 14 14 15 15 15 16 17 17 17 17 17 16 16 13 11 12 13 11 10
4 9 3 4 6 8 12 13 11 9 7 6 8 9 11 10 9 9 9 9 10 12 13 14 14 14 15 15 16 17 17 17 17 17 17 16 17 16 15 14 12 8 8 10
7 7 3 3 5 6 7 8 7 6 6 6 7 8 9 10 10 11 12 12 12 13 15 15 16 17 18 18 18 18 19 19 19 19 19 19 17 17 17 16 14 13 12 11
4 4 5 4 4 5 3 4 6 6 6 6 6 6 7 8 10 11 12 13 13 14 14 15 16 17 18 19 20 19 20 21 21 21 20 21 21 20 19 19 18 16 15 14
3 3 4 4 4 3 3 3 5 6 6 5 5 6 8 10 11 12 12 13 14 15 16 16 17 18 18 19 20 22 22 22 21 22 23 23 23 23 22 21 21 19 18 17

GFSCGP_700_spd_123.txt.gz
Wind_Speed
16 17 22 16 15 20 22 27 32 31 26 29 36 33 47 45 35 36 34 35 36 43 38 44 45 42 51 46 49 55 55 47 41 40 37 32 30 30 29 27 28 26 24 23
16 14 12 17 16 20 20 24 27 32 30 27 33 36 36 35 36 33 35 34 34 33 37 41 42 41 45 48 46 53 54 52 45 42 38 37 38 35 32 30 27 26 26 27
13 10 11 11 13 16 21 22 29 28 36 36 22 25 15 36 32 34 34 29 35 34 39 41 35 41 40 49 45 48 48 48 49 47 46 41 37 36 35 34 32 34 32 31
6 12 13 12 16 16 25 23 22 27 20 15 17 20 30 20 24 27 33 28 27 30 34 38 32 35 40 47 45 43 40 39 39 40 40 40 39 38 39 38 37 38 35 35
8 12 10 11 13 15 23 16 17 18 18 22 24 12 12 17 22 24 23 27 27 30 32 31 30 28 29 35 43 41 41 40 41 40 41 41 38 40 41 42 42 42 42 42
11 5 4 6 12 12 10 12 14 12 14 7 6 9 6 22 22 21 20 15 16 23 27 31 31 28 27 30 37 43 45 43 41 35 34 34 32 35 36 35 37 41 41 42
7 3 5 5 10 7 6 6 4 2 3 5 10 15 6 20 20 17 15 8 8 14 22 28 30 29 27 30 38 45 47 46 39 34 39 41 30 31 34 35 34 39 39 42
9 6 6 10 8 6 8 6 3 4 4 12 18 6 5 24 14 11 9 4 6 14 16 19 24 26 27 34 37 38 42 49 50 48 41 35 34 30 34 36 37 36 35 35
5 6 11 21 10 9 5 9 8 7 12 8 2 3 12 24 17 15 17 14 14 18 18 20 20 22 25 31 34 34 31 28 29 35 40 35 32 29 37 36 34 33 35 36
8 14 11 9 12 17 13 6 1 2 4 4 2 3 11 25 21 20 21 22 22 18 19 19 20 22 21 22 25 26 26 25 30 28 25 29 28 30 30 37 37 36 34 34
11 9 14 23 12 15 7 11 9 7 7 3 4 4 14 17 15 18 21 22 22 24 18 21 20 21 21 21 20 19 17 21 22 24 25 28 29 32 37 41 39 39 40 39
6 9 16 25 6 5 6 9 12 7 3 4 1 2 10 10 10 13 17 19 20 21 20 21 16 17 19 19 20 22 21 24 19 22 23 27 32 38 38 35 37 38 41 44
10 4 9 9 2 7 6 10 10 15 14 2 2 2 6 3 7 12 15 15 15 15 16 21 18 17 15 18 11 9 14 15 16 22 24 27 27 28 27 26 29 31 33 37
2 4 9 6 4 11 12 13 12 11 6 6 5 5 4 4 6 13 15 16 17 18 20 21 21 20 19 19 16 10 6 0 8 14 17 19 21 21 18 18 20 24 29 31
5 3 9 8 16 19 19 4 9 9 8 4 9 10 8 8 10 13 15 16 20 23 25 26 26 27 26 26 25 21 16 11 9 8 7 9 13 16 19 18 16 22 23 30
5 4 4 3 6 11 27 19 24 23 21 19 14 13 10 9 10 11 13 14 17 20 22 23 23 23 24 25 27 27 25 25 24 18 14 10 6 12 16 21 21 20 21 22
7 10 6 3 4 2 9 20 20 19 16 15 17 14 13 12 12 13 16 18 19 21 24 23 23 25 26 26 25 25 25 25 21 21 23 19 17 14 10 11 20 23 27 29
10 11 4 3 5 3 2 3 13 16 15 13 11 10 10 11 13 14 16 18 19 19 19 20 21 23 25 24 21 22 21 21 21 19 19 17 19 20 18 15 11 17 22 24
12 11 3 3 4 5 4 4 7 10 11 10 9 8 8 9 11 12 13 15 18 18 19 20 21 22 22 20 20 22 22 21 18 16 16 17 18 19 17 16 17 16 15 11
11 12 6 7 4 4 5 6 7 6 6 6 6 7 9 9 10 10 12 15 17 17 18 19 20 21 19 18 20 20 19 18 15 16 18 20 20 19 18 18 18 18 18 17
2 3 7 5 3 2 6 13 6 1 3 4 6 8 9 9 10 10 12 14 15 16 17 17 18 17 18 19 20 19 19 18 20 21 20 19 19 19 19 20 20 19 19 20
3 1 2 2 2 3 4 12 6 7 8 8 8 8 8 7 8 10 12 13 14 15 16 16 16 16 18 18 19 19 19 20 21 21 21 21 21 22 22 22 22 22 21 20
1 4 3 3 3 5 10 6 11 9 8 7 7 7 7 8 10 11 12 12 12 12 13 14 14 16 16 16 17 17 18 20 20 21 21 22 23 23 24 24 24 24 25 24
3 6 8 8 8 9 10 10 7 5 5 4 4 6 7 8 8 9 9 10 11 12 13 15 16 17 17 18 19 20 21 21 21 22 22 23 23 24 25 25 24 25 26 27
3 4 6 6 10 11 9 8 8 5 4 3 3 4 4 5 6 7 7 8 9 11 13 14 15 16 18 19 20 21 22 22 23 23 24 25 26 28 29 29 30 31 30 29
3 3 3 5 10 8 10 9 8 7 6 4 3 1 1 2 3 4 5 7 9 11 13 14 16 18 19 20 21 22 23 24 24 25 26 27 28 29 31 33 35 36 37 36

GFSCGP_700_spd_126.txt.gz
Wind_Speed
12 8 10 11 12 16 18 21 26 21 18 22 23 35 39 33 27 26 27 27 28 30 29 29 32 33 58 48 52 54 51 56 59 56 51 46 40 33 35 35 34 34 33 30
9 7 9 12 12 14 15 19 25 24 10 23 27 35 32 23 24 19 26 32 35 34 35 37 35 50 53 47 50 57 54 50 56 60 53 44 38 39 36 36 33 30 30 30
4 7 11 12 10 11 15 19 22 28 24 23 16 28 17 22 17 26 27 28 31 37 33 33 36 42 50 41 47 53 58 53 53 58 55 48 43 42 41 36 33 32 33 34
3 8 11 8 7 8 14 12 14 16 20 20 19 18 25 13 19 25 35 33 32 32 33 32 31 36 47 41 42 47 58 54 48 54 60 56 50 44 39 37 37 37 36 35
5 10 8 5 5 9 8 12 11 12 17 22 12 14 13 18 27 35 34 36 37 38 35 30 28 25 30 32 33 36 51 55 50 52 57 60 54 42 44 42 38 36 37 40
8 9 6 4 7 9 12 11 12 10 10 7 6 8 7 24 32 36 36 37 36 30 27 24 25 27 26 26 25 31 37 46 50 52 45 57 38 44 41 41 37 39 40 41
6 8 5 3 7 9 10 7 4 3 5 6 10 17 4 26 31 30 33 31 29 25 21 15 17 23 26 27 24 25 32 37 39 46 38 34 42 41 41 38 36 37 40 37
1 6 10 6 7 5 7 6 6 5 5 12 10 3 5 20 23 21 22 21 19 17 16 12 11 17 23 26 26 24 28 22 30 37 36 33 31 32 35 31 31 36 33 35
1 5 8 12 9 7 3 6 6 11 12 8 1 3 7 20 18 18 19 19 17 11 5 8 12 13 16 23 25 27 37 34 30 26 31 32 31 30 32 37 39 38 35 38
4 7 4 4 10 11 15 6 6 6 4 5 3 3 8 21 19 18 19 20 20 17 14 9 11 12 13 17 22 26 28 36 46 31 32 37 38 32 31 34 33 37 36 37
3 4 3 9 4 7 9 12 12 8 8 4 5 5 8 14 16 16 16 18 19 19 19 18 15 13 17 16 18 25 29 26 26 29 36 35 31 31 36 40 42 40 38 44
5 6 6 8 8 6 8 11 16 9 4 9 4 2 8 10 12 13 13 14 15 17 18 17 15 20 17 15 16 17 21 23 24 22 25 24 36 38 28 30 33 30 27 39
5 1 5 3 2 5 6 9 13 18 16 12 4 4 4 6 8 11 12 13 13 12 15 16 18 18 16 17 17 21 20 20 19 21 21 19 17 19 18 20 29 33 39 45
3 2 1 1 4 11 14 17 15 15 5 6 2 5 1 2 6 9 12 16 16 16 18 20 23 25 23 22 20 16 13 10 11 13 19 24 25 25 28 31 32 34 34 33
2 4 4 1 4 11 8 7 8 13 9 3 9 8 6 4 6 9 10 11 12 17 22 26 27 26 25 27 30 27 26 23 16 11 4 4 11 15 17 15 23 24 23 26
2 4 3 11 3 6 14 7 14 14 12 16 13 11 8 8 8 9 11 13 17 20 22 22 23 22 23 26 27 26 25 26 25 23 19 17 11 4 12 15 16 21 21 20
3 1 3 4 6 5 2 11 11 12 13 10 7 12 10 9 10 11 13 17 19 21 21 20 20 21 23 24 27 26 26 26 22 20 18 17 18 17 14 11 8 13 23 24
1 2 2 2 5 4 4 5 8 12 13 11 10 8 8 9 11 12 12 14 16 17 18 19 20 22 23 23 25 25 24 22 20 18 18 18 18 17 17 16 16 16 13 12
3 2 3 4 1 6 5 8 7 6 6 7 6 5 6 7 9 11 11 14 15 16 17 19 20 21 22 21 22 23 21 19 17 16 16 16 17 18 18 17 17 17 16 16
5 5 5 6 5 6 9 10 10 6 3 2 4 5 6 7 10 8 10 13 14 15 16 17 18 18 19 19 20 19 18 16 16 17 18 19 19 18 18 18 18 19 19 20
4 3 5 7 3 3 11 12 8 3 4 4 6 6 7 8 8 7 9 11 12 12 13 15 15 16 18 18 19 18 19 17 19 19 19 18 18 19 19 19 19 20 21 23
4 4 4 4 4 4 9 15 8 5 8 7 8 8 7 6 6 7 9 10 10 11 12 13 14 14 15 16 17 17 17 17 17 17 17 17 17 18 18 19 20 21 22 22
3 7 4 8 7 8 11 11 9 10 9 7 6 6 6 6 6 7 7 8 8 9 10 11 11 13 14 15 16 16 16 17 17 17 17 18 18 18 18 18 19 19 20 22
4 6 6 7 7 10 12 12 14 11 10 8 6 5 5 5 5 5 5 6 7 8 9 11 12 14 15 15 16 17 18 19 20 20 21 22 23 23 24 25 24 24 24 23
7 6 9 8 11 12 14 14 13 12 11 10 8 6 4 3 3 3 5 6 6 7 9 11 13 14 15 17 18 19 20 21 21 22 23 25 26 28 30 30 30 31 31 31
6 6 6 6 9 11 12 11 11 11 10 9 8 6 4 3 3 4 4 5 6 8 10 11 13 15 16 17 18 20 21 22 24 25 26 28 29 30 31 32 34 33 34 33

GFSCGP_700_spd_129.txt.gz
Wind_Speed
11 8 12 10 10 12 14 15 16 17 17 21 23 28 27 26 17 12 17 27 31 28 34 35 33 37 34 37 45 53 56 54 40 49 48 58 58 55 46 43 39 40 35 33
9 11 11 13 13 10 11 15 16 16 13 20 26 28 23 18 8 14 28 32 34 41 42 38 32 35 45 45 47 53 55 48 49 37 49 54 60 56 49 45 44 42 40 38
12 6 17 11 7 8 10 15 18 18 18 19 18 25 20 12 7 13 21 34 40 41 43 40 39 33 39 47 51 43 51 50 46 50 41 49 57 58 56 51 49 45 41 40
12 14 12 8 7 7 10 9 13 14 14 14 15 21 9 6 11 22 34 43 46 43 41 37 35 29 33 39 46 37 44 51 49 57 51 54 52 63 60 55 46 43 42 40
5 9 9 10 8 5 6 12 13 15 16 18 14 11 6 8 22 36 43 43 43 43 40 35 28 24 28 32 34 26 35 47 47 56 61 54 52 60 58 55 50 47 44 40
15 10 11 10 8 6 9 12 14 12 10 10 4 8 7 14 27 36 37 35 40 42 38 30 27 26 24 27 25 23 28 35 37 49 58 55 51 54 53 55 51 48 43 37
12 14 10 11 6 8 4 8 7 7 9 11 7 14 3 16 24 30 32 34 36 37 35 29 23 22 20 20 24 21 27 29 30 39 56 56 53 55 60 74 14 28 32 35
12 9 17 11 9 7 8 7 9 6 7 13 23 3 3 11 21 23 24 28 32 33 31 25 21 20 17 16 16 17 22 21 21 28 42 47 48 54 51 41 27 31 32 37
8 8 10 10 9 7 3 7 7 12 20 14 6 1 4 8 17 19 22 23 28 29 30 27 18 19 11 13 14 13 19 18 14 22 37 36 31 28 23 27 31 36 41 42
7 6 9 11 8 11 14 6 6 9 5 7 4 3 1 14 19 21 23 24 23 25 24 23 19 10 4 10 10 10 17 19 17 14 15 17 27 26 26 29 28 35 36 32
7 5 6 9 10 7 8 12 14 15 16 5 8 4 8 15 18 21 22 22 21 20 21 20 21 16 10 13 18 9 13 18 21 20 18 9 11 19 24 23 27 29 32 35
10 8 7 8 5 7 9 12 15 16 10 12 10 2 10 12 13 18 19 18 17 15 16 16 18 19 16 21 19 13 14 13 30 35 24 22 22 21 19 19 25 27 28 34
10 6 6 11 5 4 2 8 12 15 19 22 9 2 6 8 11 14 14 16 13 13 14 15 16 18 20 21 21 15 14 19 20 21 15 18 20 23 25 25 23 21 22 28
11 8 5 5 1 5 7 10 13 16 14 8 2 3 4 4 7 9 10 12 13 13 16 21 20 21 26 24 26 25 19 10 10 17 17 16 18 18 17 19 20 21 23 23
10 7 7 7 3 2 5 7 7 9 13 5 6 4 2 1 5 6 7 10 9 10 16 23 27 31 29 28 29 30 30 27 21 9 6 8 12 15 19 19 20 27 31 20
8 6 5 11 6 4 7 2 4 7 3 6 6 6 4 2 4 6 6 9 13 16 19 20 22 23 25 27 30 31 31 30 29 25 25 17 9 2 5 1 13 19 10 23
6 6 7 6 11 8 7 1 4 7 9 7 5 8 7 6 6 7 9 11 13 15 16 17 19 21 21 22 25 26 26 24 24 23 20 19 18 16 15 15 15 11 8 9
6 4 5 6 9 5 5 6 7 6 8 9 10 9 7 6 6 7 7 8 10 12 13 15 17 19 19 20 21 23 21 20 19 19 20 19 18 17 16 15 14 13 12 12
6 6 6 6 11 5 7 13 11 7 6 8 9 7 6 5 6 8 7 7 9 11 12 14 15 17 19 19 20 20 19 18 18 17 18 17 17 16 16 15 15 15 15 15
9 6 7 7 7 5 9 14 13 10 7 8 7 8 8 7 7 5 6 6 8 10 12 13 15 16 16 16 17 17 17 17 16 17 17 17 16 15 15 15 16 17 17 18
9 10 11 12 9 3 8 13 13 7 7 9 8 10 10 8 6 5 4 5 8 9 11 12 12 12 13 15 15 16 16 15 17 17 16 16 17 17 17 17 18 19 21 22
8 7 7 6 6 4 11 15 13 7 6 9 11 9 8 8 6 5 5 5 7 8 9 10 10 11 12 13 14 14 14 15 16 16 17 17 17 17 18 18 19 19 20 20
5 7 2 8 7 6 11 19 18 8 10 11 10 9 8 7 7 6 5 5 6 6 7 8 9 10 12 13 14 15 16 16 17 18 18 19 20 20 20 21 21 22 23 24
9 10 7 8 9 10 12 16 19 13 13 12 11 9 8 7 7 5 4 4 3 3 5 8 9 10 11 12 13 15 16 17 18 20 21 22 23 25 25 26 28 28 30 30
8 7 9 11 6 8 13 15 16 14 12 12 11 10 9 8 6 5 4 2 2 4 6 7 8 10 11 13 15 17 18 20 21 23 24 25 27 28 31 33 32 35 36 37
9 12 8 9 7 10 11 13 13 12 13 13 12 10 9 8 7 6 4 2 3 5 6 6 8 9 11 13 15 17 20 22 25 26 28 29 31 32 33 34 36 38 36 36